GFSSW_850_rhum_000.txt.gz
RH
56 62 77 80 77 74 72 68 73 84 85 82 80 83 80 64 49 82 74 65 86 74 65 62 58 52 53 48 39 35 51 48 34 30 27 24 30 23 22 21 18 18 22 22 22
52 63 75 81 89 85 78 74 75 80 77 75 81 79 75 68 60 85 49 50 75 62 64 55 54 53 54 43 38 41 59 49 34 27 35 29 27 25 25 25 22 20 19 21 23
55 56 67 75 83 78 78 80 76 74 77 76 77 74 71 70 89 84 40 34 64 70 57 54 56 53 52 44 42 43 53 42 36 32 32 30 27 25 25 28 22 21 21 28 28
56 62 67 66 77 75 78 73 72 71 76 82 75 66 72 81 86 55 34 28 58 78 63 57 58 53 55 55 45 50 41 37 35 34 34 28 24 27 24 22 21 21 21 22 25
63 70 72 74 67 67 71 75 74 80 77 81 82 70 84 100 72 56 74 28 44 81 74 69 57 54 60 52 47 50 45 39 36 35 32 27 28 30 25 21 20 21 21 20 22
72 71 63 62 62 59 53 72 71 78 73 61 74 70 95 95 48 66 86 61 30 80 78 71 55 50 48 50 50 41 38 33 30 28 28 30 28 27 23 21 19 19 21 20 20
78 72 66 69 68 58 56 55 74 83 84 63 74 84 99 83 48 50 81 88 41 74 80 65 53 49 49 50 42 33 43 40 32 28 30 26 30 27 20 20 19 17 22 21 19
86 81 85 78 68 71 67 74 63 80 75 63 75 97 93 59 50 61 64 90 72 87 73 58 55 54 53 46 34 34 36 45 35 33 29 28 43 30 20 21 21 18 22 21 21
98 96 96 87 88 88 71 69 63 61 64 64 95 99 79 58 60 55 66 73 80 93 81 73 65 60 53 51 47 46 51 47 41 31 29 30 35 28 21 21 20 22 21 20 22
93 100 99 99 88 94 79 71 76 84 81 90 91 91 82 83 50 52 57 65 82 96 91 85 83 70 49 48 72 53 50 45 41 26 36 34 34 29 23 19 20 22 26 25 23
93 99 96 100 99 97 89 85 100 98 100 90 87 76 69 66 65 60 49 70 88 99 92 88 92 91 78 46 44 42 39 40 36 30 32 36 33 31 26 24 26 28 30 31 29
90 97 95 100 94 94 92 100 86 84 94 77 90 74 79 66 71 81 69 87 93 90 78 98 91 75 59 51 41 41 42 43 36 29 26 28 30 30 21 27 29 30 32 30 29
87 100 96 96 90 99 92 90 97 81 75 77 75 75 71 65 76 84 95 92 79 76 82 81 70 65 50 45 46 45 46 41 41 36 32 32 40 23 26 30 33 32 31 32 33
86 100 99 94 94 95 100 94 85 81 87 90 85 67 78 64 92 85 97 87 71 73 70 70 51 58 56 45 40 48 37 36 35 39 45 35 52 30 33 35 36 35 31 33 34
82 100 96 100 95 93 99 92 92 99 97 85 83 79 74 76 94 97 99 82 71 70 72 67 51 54 46 42 38 39 34 33 33 40 40 39 44 40 36 39 41 41 33 32 36
64 94 92 90 82 86 93 92 98 100 98 95 97 97 87 95 90 93 99 74 62 58 52 46 35 41 40 34 34 36 33 44 47 48 57 46 44 41 43 36 40 41 34 32 37
51 73 95 96 96 92 90 98 100 100 90 97 93 82 80 88 85 87 92 88 80 75 73 58 29 23 29 32 26 35 46 60 59 63 62 39 43 38 32 37 33 43 36 33 34
45 55 74 90 100 100 99 100 100 95 90 78 78 79 89 75 80 81 88 81 59 48 59 68 47 30 23 32 36 39 44 64 64 70 55 34 42 32 30 31 31 34 33 34 34
42 48 53 59 78 100 100 99 96 86 77 80 73 93 96 80 68 72 75 55 49 48 45 49 48 32 29 24 31 35 47 40 50 50 55 49 40 26 44 49 44 42 37 36 35
42 53 58 66 76 100 99 94 92 76 68 70 89 86 91 71 66 61 73 55 66 50 47 47 53 39 32 28 26 34 34 46 55 54 53 49 40 41 41 50 50 51 40 36 36
59 64 62 76 85 100 96 93 92 67 75 89 75 83 69 68 58 62 69 61 57 56 50 50 52 54 38 42 46 39 38 34 46 52 55 54 46 36 36 43 47 47 39 36 38
62 63 65 82 83 87 91 89 86 89 93 83 51 55 67 70 61 74 75 67 58 51 57 55 64 71 54 40 37 38 40 38 47 45 53 52 45 30 34 33 34 38 36 39 40
56 58 73 76 81 85 66 76 87 90 79 70 77 65 57 65 72 68 70 60 57 55 58 54 68 79 60 52 48 50 42 39 47 52 56 54 48 34 38 36 37 39 40 39 43
57 60 50 66 64 70 67 67 74 74 70 61 61 60 66 66 63 70 69 62 54 54 51 46 54 58 62 54 55 58 55 46 44 58 48 56 39 34 34 36 37 35 30 43 52
50 60 59 55 58 56 52 56 62 61 56 58 56 53 58 66 62 70 64 56 50 48 47 44 48 45 42 39 38 45 50 56 56 49 45 39 43 34 36 34 33 34 38 50 54
50 56 52 60 50 56 61 52 56 57 55 60 65 54 53 61 59 64 61 55 53 47 50 47 51 36 34 34 36 35 34 36 42 48 52 47 42 32 31 33 45 44 49 52 52
54 53 46 60 57 54 58 53 51 55 47 49 54 48 50 44 40 46 49 49 49 49 50 46 41 38 34 47 45 46 45 43 36 35 32 34 30 35 37 46 50 49 49 50 48

GFSSW_850_rhum_003.txt.gz
RH
47 50 55 59 72 80 83 80 69 66 82 85 86 80 86 82 75 66 68 46 71 85 75 67 60 55 55 54 44 38 52 55 41 32 28 27 34 25 23 24 23 20 23 24 24
47 50 53 65 71 78 74 70 69 74 72 83 86 83 81 82 89 88 49 39 52 82 74 66 67 63 55 56 41 43 62 53 39 27 32 34 33 29 26 25 23 21 22 21 22
63 58 60 70 81 82 80 78 72 78 80 82 81 79 83 81 93 82 46 36 41 82 78 65 63 59 58 48 43 47 55 44 38 31 35 37 34 28 27 29 23 23 23 23 25
68 61 68 68 65 70 79 79 77 79 78 75 74 78 75 83 87 80 43 33 31 81 88 73 62 61 59 61 48 51 44 40 37 35 39 38 34 30 26 24 21 21 21 22 25
55 61 66 66 65 66 71 78 80 66 63 79 79 76 84 99 79 68 84 58 30 66 95 81 67 57 64 58 52 54 48 43 40 40 36 32 34 33 28 23 21 22 20 20 22
65 64 61 61 56 60 59 72 84 74 65 76 78 82 89 91 61 52 79 84 56 43 83 80 65 54 52 53 56 48 47 44 38 35 32 34 32 30 25 22 22 21 20 20 22
78 76 74 63 67 75 64 63 64 80 69 77 63 83 94 82 52 52 59 85 86 43 82 74 61 53 51 53 48 42 44 42 38 35 36 29 36 34 23 23 21 19 18 19 23
93 94 88 82 79 70 78 79 72 70 72 78 66 93 92 69 54 69 61 79 78 71 88 70 64 55 54 48 36 37 41 47 37 33 31 31 43 34 24 24 23 23 21 21 22
85 93 98 99 93 84 81 80 76 70 69 84 81 95 88 73 68 53 75 80 87 75 90 77 69 57 56 61 56 43 54 50 42 32 31 33 40 32 25 23 22 24 23 22 24
78 91 99 99 96 94 94 81 69 76 73 87 84 95 86 74 55 53 67 79 88 81 99 95 74 80 65 68 82 57 50 49 48 33 36 35 40 31 27 22 22 24 27 26 25
81 91 99 98 100 99 98 90 84 95 89 89 89 89 75 60 62 52 60 81 88 87 92 88 94 88 79 69 56 49 44 42 40 33 34 41 39 33 29 24 28 31 31 32 30
86 92 100 99 100 98 100 87 78 80 97 80 88 85 78 70 84 51 58 77 90 85 75 96 92 67 67 53 46 43 44 49 40 35 35 34 38 34 26 27 30 32 34 36 34
82 98 100 98 100 100 87 81 91 96 89 87 84 92 78 76 74 84 63 76 83 78 84 79 71 69 66 71 58 49 48 50 43 41 35 38 44 37 26 30 33 34 36 38 37
83 100 99 98 97 93 100 86 86 84 96 87 85 68 72 77 72 77 72 77 76 78 75 80 61 79 72 67 62 75 43 42 44 45 52 38 58 39 31 37 39 39 38 39 38
74 100 94 98 100 98 96 98 98 100 100 78 79 71 64 74 88 84 84 98 73 70 82 78 71 76 85 65 45 61 36 41 43 43 44 42 51 45 34 42 43 43 38 38 36
66 78 99 100 96 84 99 96 90 100 100 92 84 85 86 79 78 99 95 98 57 67 53 53 55 60 59 50 40 37 37 44 51 52 62 50 47 46 43 34 41 41 38 37 34
60 58 85 100 97 88 92 94 100 100 82 97 87 81 80 84 94 92 93 97 77 83 80 50 49 38 32 34 37 38 47 66 64 67 68 46 52 37 30 33 35 43 37 36 35
53 52 54 89 100 94 96 100 100 91 96 76 82 80 90 78 87 95 95 88 62 58 66 67 67 33 27 36 43 46 48 65 66 73 60 48 51 36 37 36 29 32 32 35 34
46 48 52 57 91 100 99 100 95 84 76 85 89 93 95 80 83 91 94 76 55 50 57 61 52 34 29 27 34 38 50 44 54 56 64 54 44 32 46 49 45 39 36 36 35
48 60 65 77 72 100 98 95 89 70 66 71 84 87 91 78 88 91 86 69 53 43 39 44 52 42 33 28 28 36 38 50 61 63 60 53 47 45 42 49 52 52 40 36 41
70 73 81 89 91 100 99 94 78 62 66 66 72 89 69 73 75 85 81 67 57 54 53 48 47 54 38 42 44 37 38 44 51 57 58 59 49 36 34 50 50 49 35 37 41
76 76 97 96 97 93 95 93 61 67 94 88 67 61 65 59 62 73 81 66 57 54 65 54 60 66 50 44 40 38 39 40 53 48 56 56 48 36 36 46 44 41 42 41 39
70 87 100 100 90 88 96 95 88 90 86 76 60 53 59 59 72 74 74 62 60 56 60 58 70 81 63 56 52 50 44 40 49 53 59 55 45 34 39 35 35 36 37 38 40
72 70 98 100 84 73 80 94 95 90 70 65 66 62 61 65 63 76 73 61 55 55 51 46 62 60 59 60 61 59 53 47 45 59 52 54 39 32 38 37 36 36 37 40 46
66 60 65 77 68 58 56 70 87 80 68 66 67 66 62 68 66 76 66 59 51 48 47 42 50 47 46 44 50 54 58 54 49 44 45 39 47 32 32 35 32 34 37 42 49
64 63 56 65 54 54 57 53 61 58 66 72 74 71 60 58 58 68 62 58 55 49 48 46 54 37 35 39 35 34 36 58 52 49 48 48 44 35 34 37 44 46 45 49 54
57 60 54 65 58 54 57 55 54 52 48 55 56 59 64 50 44 50 50 50 52 51 51 40 43 37 36 45 42 42 45 41 36 35 34 33 29 38 47 53 48 46 45 46 50

GFSSW_850_rhum_006.txt.gz
RH
40 42 47 52 55 63 72 77 84 88 87 87 88 83 83 84 90 86 82 42 42 87 80 72 70 62 56 54 48 39 54 59 45 37 31 25 38 30 30 28 23 23 23 24 22
48 50 49 49 55 82 84 83 83 78 77 77 71 78 87 90 93 95 68 50 40 78 88 79 74 71 62 58 46 45 63 55 42 31 29 32 38 35 32 28 24 22 23 23 21
89 67 56 54 61 77 81 81 79 75 76 78 76 78 83 89 98 85 61 52 38 55 93 84 78 74 62 55 48 49 58 48 40 34 32 41 40 36 31 34 24 22 21 21 20
78 80 64 64 62 61 67 80 80 76 71 78 82 81 84 96 90 97 57 45 41 40 91 97 77 68 66 65 48 51 44 42 40 37 39 44 41 37 33 27 22 23 23 22 20
56 64 64 59 67 67 63 64 67 77 72 74 72 79 94 99 84 66 88 93 68 55 95 97 79 64 70 62 55 58 51 46 42 42 44 42 40 38 31 25 23 23 23 22 20
69 72 69 61 58 57 59 57 60 71 74 73 70 82 96 97 66 53 70 86 97 84 74 86 76 60 58 57 58 52 48 47 47 43 41 38 38 34 29 24 24 24 22 21 20
81 88 85 77 70 60 61 58 54 63 75 74 75 90 98 77 60 57 55 56 88 96 69 77 70 60 54 57 52 49 52 49 41 38 42 35 40 39 28 27 25 23 22 21 19
79 89 91 91 88 78 66 69 65 53 67 75 81 84 97 80 56 62 75 57 63 88 70 81 73 65 58 50 45 48 43 56 42 34 33 34 36 32 23 27 24 23 25 24 23
66 74 85 95 98 95 79 76 80 70 60 82 93 93 86 72 63 58 69 79 79 86 83 77 77 74 58 59 52 45 55 54 47 34 36 38 46 30 27 25 25 23 29 31 28
77 75 85 95 97 99 92 91 88 84 81 92 98 97 78 85 70 56 48 86 94 89 96 99 82 79 79 77 87 64 53 50 52 36 37 39 44 33 29 26 25 24 32 34 30
63 85 93 96 88 95 99 100 93 86 91 92 88 81 77 70 74 62 48 79 95 80 94 88 92 95 82 69 60 59 50 59 43 35 36 41 44 36 31 28 27 29 37 38 34
62 86 99 100 98 99 99 98 71 70 93 76 91 89 66 86 89 66 58 85 91 78 79 96 92 69 72 69 62 47 49 51 49 38 37 42 42 37 36 28 26 32 40 40 37
66 83 99 100 98 100 98 85 76 78 88 92 83 87 90 80 82 78 67 78 85 64 82 81 78 62 68 66 63 53 57 57 58 46 41 45 47 41 30 31 34 36 40 42 36
66 74 100 100 99 98 99 96 92 83 100 94 85 77 80 87 81 67 66 70 76 64 73 86 76 73 69 81 69 87 52 46 46 50 59 42 63 48 34 37 43 42 43 43 39
67 73 94 100 92 99 96 98 92 99 96 77 81 67 62 85 71 83 44 65 86 73 75 85 91 89 79 70 69 72 47 49 45 51 48 46 55 49 36 42 45 49 44 45 42
61 66 86 99 87 100 96 98 100 100 95 92 82 82 84 75 72 80 78 74 66 66 64 65 61 74 78 66 58 51 49 45 52 53 67 52 50 53 42 40 42 44 42 45 43
64 68 77 81 97 96 99 100 99 99 85 95 84 78 76 85 81 80 83 92 81 91 85 58 81 54 58 55 44 51 50 77 65 71 72 50 57 49 35 34 38 45 39 44 45
65 64 78 86 99 85 95 95 100 98 85 72 81 74 82 74 80 75 87 96 83 58 71 82 93 53 38 60 68 61 57 70 71 75 64 54 59 41 35 44 35 34 33 43 46
58 54 90 87 100 88 94 100 99 77 78 83 76 80 86 75 91 86 87 89 74 54 67 85 73 36 32 34 54 51 56 46 61 60 70 62 47 39 43 50 48 42 38 45 45
63 74 93 92 100 96 96 99 95 69 73 68 79 77 96 83 93 90 94 73 70 54 44 53 54 42 33 28 30 44 43 54 62 65 68 61 50 49 34 41 51 54 46 45 46
86 86 99 100 100 99 99 95 85 67 65 67 80 83 74 83 90 91 88 75 58 53 43 45 50 53 39 44 42 40 45 51 55 62 62 63 50 40 36 39 53 52 42 44 45
80 88 100 99 99 92 94 94 67 73 83 78 66 64 69 75 76 87 87 68 53 61 62 49 60 60 49 46 40 36 41 45 61 56 62 60 53 36 44 43 49 48 43 41 42
76 100 100 100 100 99 94 84 73 80 85 83 67 60 54 66 82 80 87 65 60 60 62 58 66 83 66 55 54 47 44 42 52 55 63 59 51 36 43 47 45 44 40 38 40
82 89 100 100 100 89 93 87 92 94 91 70 64 61 60 68 70 85 86 63 59 57 51 46 63 60 70 53 60 63 54 48 46 61 59 58 41 34 40 41 40 39 38 39 42
77 65 70 92 90 78 75 87 94 92 79 64 66 58 64 74 75 82 69 65 53 54 52 49 56 50 47 55 56 56 56 55 51 47 51 45 49 34 36 35 34 34 41 44 48
68 65 67 70 58 61 62 72 70 64 68 69 77 68 59 64 62 79 68 64 62 52 49 49 55 41 39 40 36 44 50 58 51 51 42 50 47 37 41 41 46 46 44 46 51
61 62 58 66 59 56 60 57 60 55 60 62 64 66 60 56 49 54 52 54 55 51 51 44 46 47 49 44 40 38 42 66 55 49 52 58 44 40 52 52 45 42 40 42 45

GFSSW_850_rhum_009.txt.gz
RH
41 38 38 41 49 53 60 67 73 81 89 92 95 93 87 88 89 84 78 55 46 83 90 82 71 72 66 56 50 39 50 56 46 41 36 25 37 34 34 32 28 25 25 27 22
45 47 51 48 44 54 65 66 66 74 84 93 90 89 84 92 89 91 72 60 56 41 81 99 80 76 68 58 52 46 60 54 42 36 32 29 38 37 36 34 28 24 22 23 23
49 59 56 54 51 62 69 78 76 72 78 77 78 82 88 92 98 92 60 53 50 49 56 98 92 87 72 60 52 50 56 49 42 37 34 37 43 38 35 38 28 24 23 22 22
58 50 49 62 62 65 60 62 75 79 73 69 73 76 87 97 87 78 68 54 47 63 53 99 97 84 74 65 52 54 48 44 41 38 41 44 42 43 38 32 25 27 25 23 22
63 59 53 60 59 66 68 61 60 66 70 68 72 82 94 99 89 79 86 77 87 99 77 96 94 77 75 66 58 56 51 47 42 42 46 47 48 44 38 34 31 24 25 24 22
66 69 69 68 64 63 58 57 58 61 69 76 72 85 91 97 75 62 71 78 84 98 89 86 82 72 69 62 59 55 50 47 46 45 48 44 43 40 36 34 32 28 26 23 21
71 92 86 83 87 80 63 57 56 56 65 75 76 81 95 88 61 55 52 56 62 88 94 73 78 68 59 63 56 53 57 53 49 44 43 39 44 43 30 29 31 29 26 23 25
74 84 85 87 92 91 85 73 65 61 54 73 81 93 96 88 66 57 61 60 58 61 83 73 93 77 60 54 54 59 52 70 51 37 35 34 45 30 26 32 30 25 25 29 33
54 69 63 67 77 94 97 82 72 78 74 75 91 96 91 74 64 52 58 69 68 59 74 77 98 90 62 58 56 53 76 64 57 41 42 39 41 34 27 26 27 25 28 34 36
53 74 73 84 88 90 98 100 86 86 90 85 96 96 87 88 73 67 51 54 81 77 99 88 98 93 76 74 90 64 63 53 52 39 40 41 42 34 31 29 27 27 32 36 36
57 70 74 88 98 99 98 100 99 99 95 80 86 73 81 75 78 68 59 59 84 100 87 84 94 96 79 70 61 54 52 51 53 37 38 41 41 34 31 31 32 31 39 39 39
51 66 76 89 98 99 100 100 87 70 89 78 87 89 75 81 92 78 65 70 89 92 72 81 93 70 68 70 59 56 55 55 50 40 39 44 42 34 36 34 28 32 43 40 42
52 66 76 95 98 99 99 98 94 86 88 91 76 94 91 80 84 76 76 67 84 74 75 78 77 61 69 78 74 63 64 60 59 50 44 46 44 40 32 32 36 37 40 40 38
52 65 78 100 91 100 99 100 98 97 100 95 91 80 88 80 83 70 75 67 77 73 63 84 72 71 76 76 70 82 52 52 52 60 68 42 56 46 36 34 44 49 48 43 43
52 62 77 97 93 93 94 100 99 97 98 82 84 73 76 71 69 78 67 67 80 63 65 90 96 76 83 74 67 75 61 60 53 55 50 49 50 42 38 38 45 51 52 48 45
56 60 75 80 90 90 99 99 97 100 96 96 83 92 89 80 72 79 77 71 78 58 57 89 78 71 66 66 64 49 58 62 53 50 63 52 46 47 39 34 45 49 52 51 48
67 76 87 84 91 95 99 98 100 99 83 96 91 86 72 90 89 77 79 82 95 91 73 90 87 84 84 64 54 52 72 98 96 74 67 54 55 42 38 34 38 42 48 50 47
91 97 98 96 82 99 96 98 99 90 90 73 82 80 82 77 89 80 76 92 90 76 65 97 99 69 80 73 71 75 72 80 76 71 60 57 58 37 35 41 37 38 42 49 49
100 92 100 99 93 100 96 99 89 89 84 82 78 85 97 75 87 83 83 75 83 74 60 82 82 54 50 50 60 78 85 49 62 62 67 60 48 38 39 45 48 48 45 50 51
91 99 98 100 100 100 98 99 90 89 80 68 73 74 88 79 99 71 88 72 83 68 57 68 61 46 34 40 35 56 48 77 61 67 70 62 53 48 36 39 53 53 54 53 52
86 100 100 100 100 95 100 98 87 90 71 61 74 77 65 82 95 90 88 78 72 64 51 49 53 56 39 44 48 53 74 57 54 61 62 58 46 40 37 37 48 51 49 50 50
84 96 100 100 97 92 97 86 82 79 67 72 70 73 77 80 88 86 86 75 69 59 54 46 57 62 48 48 40 42 50 49 59 60 61 56 50 36 44 47 48 50 45 45 46
86 99 100 100 98 97 87 92 87 83 79 82 71 61 66 82 94 81 76 65 62 59 61 53 65 76 61 55 58 47 42 44 51 53 61 56 49 38 47 53 51 47 41 44 48
92 99 100 100 99 99 95 88 90 82 85 80 62 57 65 76 73 93 86 67 63 54 51 46 63 67 70 59 61 64 52 48 44 56 56 53 41 34 40 47 50 46 41 40 43
86 86 89 97 97 97 96 88 91 90 91 80 73 60 61 83 84 88 87 68 59 59 53 48 57 52 48 52 52 56 56 51 49 43 46 44 48 38 41 44 44 36 38 42 48
88 76 74 70 65 97 96 97 88 91 88 77 70 58 61 72 75 87 74 66 65 55 56 53 58 44 43 48 50 58 58 49 46 50 48 45 48 39 40 39 45 47 46 46 48
73 70 66 64 61 74 81 88 90 85 87 66 62 59 64 57 52 59 52 54 54 56 54 59 50 51 55 44 40 48 49 61 51 54 42 50 38 45 54 55 50 50 49 50 51

GFSSW_850_rhum_012.txt.gz
RH
32 34 35 36 37 39 50 74 78 91 97 98 96 93 93 93 92 92 96 64 52 60 74 68 74 75 81 65 53 42 38 38 34 34 28 22 27 30 32 30 24 24 25 28 24
40 41 49 51 49 42 43 46 52 62 72 84 93 94 94 94 94 100 70 63 57 52 75 96 82 81 70 61 54 41 41 35 29 26 27 27 31 34 33 26 24 21 24 26 26
51 51 51 54 50 51 71 60 73 68 66 73 81 87 87 90 100 88 67 59 55 62 76 93 97 90 68 56 50 43 42 31 33 32 31 32 33 36 35 32 24 23 21 24 26
58 58 48 46 48 53 53 60 62 76 77 72 77 78 86 96 77 94 88 59 53 60 92 78 94 92 72 60 48 47 40 35 34 37 38 35 35 36 36 36 33 30 30 28 26
62 60 47 44 54 48 53 58 59 68 74 72 68 79 90 99 79 83 80 75 62 93 95 76 90 79 73 56 48 48 37 40 38 40 40 40 40 37 38 36 34 33 33 28 26
66 68 66 66 68 64 52 53 60 60 74 75 70 76 98 86 77 65 66 69 71 88 96 78 83 65 58 54 52 44 44 42 39 40 40 42 37 40 33 31 31 30 30 29 26
71 72 83 79 78 78 71 64 58 58 59 76 79 84 100 81 64 56 59 61 65 74 87 80 82 87 58 56 54 47 50 43 42 42 39 40 41 36 32 26 25 24 27 32 25
53 85 72 75 73 81 82 80 72 68 56 74 87 89 92 81 75 68 64 66 68 65 80 79 87 100 93 55 54 54 53 56 36 38 40 39 42 26 27 25 25 24 28 38 35
48 84 79 66 64 71 77 96 94 75 81 72 87 96 78 76 79 61 67 72 79 58 66 80 93 98 84 70 63 57 62 57 42 38 36 36 36 23 26 25 23 22 28 36 42
50 72 84 76 72 92 80 94 100 83 94 87 90 94 81 77 79 73 73 60 66 81 76 88 89 96 93 80 82 60 58 45 48 35 34 36 36 26 24 27 24 22 30 36 40
50 68 76 74 81 97 93 94 100 100 100 76 74 64 74 77 78 82 76 65 74 78 87 72 91 93 82 70 44 36 41 47 39 33 36 37 35 28 27 27 25 25 30 36 41
48 57 72 77 82 97 100 100 91 89 98 93 90 78 79 83 81 76 82 67 71 73 81 67 95 72 74 58 45 45 48 48 34 35 36 38 40 32 26 24 25 25 30 36 44
50 54 64 78 86 98 99 100 99 95 95 92 91 87 82 81 75 71 80 63 59 58 84 77 70 55 88 71 54 51 49 40 42 43 42 39 37 30 25 26 29 27 32 38 41
52 54 62 79 99 96 98 100 99 99 100 90 92 82 88 80 79 68 73 58 60 60 86 60 52 70 90 69 53 66 43 46 52 61 57 41 49 32 24 26 29 32 38 40 44
62 54 63 76 100 99 93 98 100 97 95 70 83 77 76 67 61 72 75 59 60 76 92 76 54 82 80 78 48 50 47 49 54 60 59 49 48 30 28 26 30 32 38 42 47
95 65 61 77 90 98 98 100 98 98 90 92 82 86 83 72 53 76 76 62 68 68 80 48 71 64 67 60 52 50 51 53 49 54 63 41 42 31 26 22 26 33 40 45 50
99 96 75 78 94 87 100 97 100 97 78 99 98 93 71 73 64 83 74 77 97 99 100 71 93 78 59 81 63 51 65 98 91 89 60 39 42 29 24 24 25 32 40 45 52
100 100 93 87 87 90 100 98 99 84 96 85 86 80 78 68 69 90 65 68 82 89 66 99 99 96 63 66 81 69 53 53 62 58 47 44 44 28 26 29 28 28 38 46 52
100 100 99 98 98 97 97 100 86 91 86 94 75 84 74 65 86 80 58 56 89 78 68 99 99 81 63 59 56 84 87 40 45 46 45 36 33 27 29 31 32 32 41 49 52
100 99 88 98 100 100 98 98 88 82 88 78 63 59 69 66 98 62 55 44 66 64 56 67 97 68 63 69 58 67 50 68 51 58 54 39 39 29 27 26 34 33 41 48 54
98 98 97 100 100 99 100 99 87 76 84 64 48 57 49 59 85 58 56 57 52 53 58 52 54 72 53 81 77 66 78 69 46 44 43 39 32 24 26 26 29 31 37 47 55
80 99 100 99 97 97 99 92 84 84 86 56 47 43 44 52 87 87 56 68 45 50 65 48 38 77 62 45 43 47 53 53 59 55 43 39 32 25 28 31 32 33 39 47 53
85 99 100 99 99 97 90 89 85 92 81 56 58 44 42 57 82 78 62 47 51 54 52 40 43 59 80 58 43 58 48 48 39 38 43 44 35 27 32 35 38 36 42 49 54
86 99 99 99 98 92 95 93 92 78 62 63 54 54 54 56 53 60 67 60 61 55 50 40 44 39 49 45 41 52 48 47 48 52 42 38 31 28 32 35 38 38 39 45 54
77 83 84 98 96 94 93 89 87 84 78 81 66 55 50 62 69 74 69 69 62 60 54 46 46 43 43 42 39 41 46 42 46 44 44 36 36 28 24 32 33 38 39 41 49
76 82 83 73 81 92 94 92 89 89 88 87 88 54 50 56 56 70 72 60 65 56 53 46 52 40 42 48 42 42 39 41 43 41 37 33 34 24 26 32 35 35 39 44 47
88 70 77 55 61 93 95 89 89 90 94 87 65 56 58 53 46 52 52 48 48 50 50 47 46 45 48 41 43 52 42 40 36 33 32 38 30 28 35 33 34 39 45 46 50

GFSSW_850_rhum_015.txt.gz
RH
39 38 36 38 37 34 36 58 79 92 98 94 92 99 96 98 95 92 91 74 66 56 49 74 67 76 70 62 50 42 38 37 31 28 24 21 22 21 26 26 22 20 21 25 29
41 44 45 49 52 49 40 34 42 67 76 84 89 96 94 97 97 99 72 67 64 64 74 67 58 55 66 56 48 41 39 33 23 22 24 22 25 27 28 25 22 21 20 23 23
50 56 56 50 53 50 47 47 40 41 46 55 68 85 94 97 98 84 75 62 58 59 73 69 76 82 61 55 46 41 41 28 25 24 26 26 27 27 29 30 26 22 21 22 25
55 62 60 50 54 54 54 49 45 49 72 68 69 79 81 91 62 74 61 66 62 87 87 66 64 76 64 63 46 43 35 32 28 28 30 31 29 28 29 29 28 30 29 28 27
52 64 61 47 56 63 53 52 52 49 63 80 71 74 86 97 75 74 75 70 74 93 83 68 55 57 61 49 53 45 34 32 32 31 31 33 32 31 32 30 30 29 28 29 28
42 65 68 65 69 72 66 55 54 52 52 62 71 72 94 78 65 65 70 74 68 72 76 70 55 50 47 48 47 45 38 35 31 33 33 33 32 31 30 30 28 26 26 26 26
39 59 71 78 85 85 82 75 58 45 49 55 78 86 94 72 63 65 65 61 62 60 66 70 61 54 52 50 42 44 44 37 34 33 33 32 38 33 29 28 26 20 19 21 29
45 45 84 82 82 82 87 87 75 62 46 50 70 97 96 75 74 70 69 64 61 60 60 65 66 60 86 72 52 47 55 66 39 32 32 35 45 25 23 24 20 19 19 27 35
89 49 63 82 72 69 75 76 94 85 68 63 73 97 76 74 77 68 67 61 58 63 59 59 69 73 82 96 79 60 68 60 52 30 30 35 40 24 24 22 20 19 19 26 33
90 70 50 76 79 77 85 89 98 100 84 97 89 88 72 68 66 70 67 66 59 59 56 58 72 81 83 96 90 67 65 46 53 31 35 36 36 27 25 22 22 20 18 25 30
82 72 51 62 76 80 91 100 97 100 100 79 69 61 59 59 69 75 65 69 65 55 67 53 84 87 70 74 55 42 47 44 35 28 32 36 34 28 23 23 22 21 19 25 31
77 61 53 67 72 91 99 100 96 88 95 93 72 72 62 75 68 70 66 64 59 60 50 63 93 59 47 61 76 73 49 38 31 30 34 33 33 26 24 25 24 20 20 25 34
64 52 51 66 80 82 91 96 99 95 98 95 92 83 71 79 61 60 66 61 47 54 56 70 66 57 46 71 82 65 53 35 37 34 34 36 41 36 28 26 23 23 21 26 34
84 56 52 74 89 77 100 94 100 100 100 89 95 94 87 92 85 65 64 57 48 53 51 68 51 79 54 74 80 89 42 35 38 46 53 37 42 25 23 24 24 22 23 29 33
99 67 54 61 90 98 96 98 100 99 96 68 91 85 92 92 56 54 54 61 55 50 85 87 72 85 69 81 71 80 39 38 45 49 61 53 52 31 23 24 24 22 26 31 36
100 95 65 82 78 98 96 100 100 99 93 88 80 86 82 94 62 56 54 57 50 54 76 64 48 60 62 70 70 70 43 49 48 50 64 43 42 30 26 23 20 23 29 34 38
100 100 94 86 89 99 100 100 99 97 72 97 98 93 94 91 76 62 66 74 86 97 99 80 81 70 65 94 90 91 71 92 84 89 51 32 37 29 21 21 19 25 30 36 40
100 100 99 83 97 91 100 99 98 70 83 91 94 95 99 71 60 50 67 80 63 79 100 92 96 95 66 90 86 89 65 52 58 55 42 35 43 28 22 22 21 26 32 37 42
100 100 100 97 98 99 98 100 90 78 88 95 95 100 96 62 53 60 70 76 57 64 100 92 88 65 74 84 69 83 68 39 42 35 36 38 31 25 22 26 24 25 32 38 42
100 100 98 97 100 100 98 96 93 82 87 91 90 58 65 61 68 74 90 57 49 49 71 90 99 90 92 77 85 68 46 56 42 51 46 34 31 29 27 25 26 25 32 39 42
100 99 96 94 100 100 98 97 91 79 86 94 75 52 45 66 65 71 54 40 38 42 69 89 99 94 88 87 85 86 79 54 38 37 40 36 31 21 22 23 26 25 32 39 43
100 93 98 99 98 98 100 95 84 77 86 87 71 36 38 42 61 56 50 36 32 40 87 82 93 100 79 51 49 55 72 47 49 49 38 37 32 21 22 26 25 25 31 38 44
92 89 100 99 99 100 95 94 89 89 90 81 47 37 32 46 54 63 50 31 45 40 66 61 59 100 95 65 62 72 52 46 42 37 40 38 33 21 25 28 27 27 31 40 46
81 98 99 100 93 94 96 96 96 80 79 61 50 35 35 45 40 54 64 41 46 38 54 53 48 47 52 44 62 79 65 46 45 49 40 36 30 26 27 30 30 30 34 40 45
89 78 80 96 96 93 91 90 93 93 80 63 69 44 42 46 46 54 52 48 47 44 46 51 49 37 32 32 41 48 51 52 51 44 42 33 32 25 22 25 28 31 35 39 44
84 58 85 84 77 88 93 94 94 86 61 87 86 49 43 41 40 57 48 54 55 54 55 48 53 40 44 39 35 38 38 40 43 42 40 34 33 22 21 22 26 30 33 36 42
99 85 72 54 57 79 90 89 85 79 73 74 74 55 49 38 33 40 45 42 44 52 57 57 55 46 46 39 43 50 38 36 37 34 34 38 31 25 26 26 28 29 32 34 37

GFSSW_850_rhum_018.txt.gz
RH
29 33 43 60 52 44 36 36 55 80 92 99 100 98 100 99 98 94 80 76 72 68 58 44 65 64 75 70 58 44 56 52 42 38 32 20 22 21 22 25 24 23 20 25 24
34 41 49 57 59 55 49 44 37 47 75 89 94 91 96 95 96 99 66 68 70 66 57 64 58 50 59 62 60 51 60 49 31 28 27 22 23 24 27 27 25 23 21 20 22
36 49 58 60 53 50 49 48 51 45 48 57 72 78 78 81 95 80 67 60 64 65 61 76 63 66 65 59 56 52 61 40 30 26 24 25 27 25 28 34 28 25 27 28 27
36 48 61 58 49 50 50 50 53 51 57 65 59 61 70 88 81 72 62 66 76 97 79 84 62 62 68 63 52 54 44 40 36 30 27 30 29 30 28 29 29 29 29 30 29
38 42 62 59 47 53 58 52 54 59 57 73 74 63 73 94 75 73 58 58 73 79 93 80 64 53 63 51 54 56 49 39 34 32 31 29 32 34 32 30 30 30 30 29 28
53 38 56 65 64 71 72 68 57 60 60 62 74 73 85 82 63 68 70 61 67 69 83 80 65 52 47 46 50 49 50 48 41 32 31 33 33 32 32 30 29 29 29 26 26
65 40 45 68 74 83 79 77 74 63 59 61 64 75 97 74 60 61 60 63 64 61 56 63 62 60 47 47 48 43 55 47 46 37 35 31 39 38 32 31 29 29 28 21 22
74 63 44 82 77 81 71 69 80 81 74 68 62 92 93 74 60 69 64 63 61 60 57 55 61 60 58 69 66 66 54 73 49 40 36 37 51 36 30 29 29 27 19 22 28
71 90 74 57 82 75 69 65 69 92 90 75 65 93 74 67 72 59 68 62 56 55 56 55 57 69 62 75 84 71 78 66 62 41 38 38 46 34 31 28 25 22 20 22 31
68 79 95 58 78 81 81 72 87 84 100 94 91 84 71 63 68 72 69 65 60 54 57 57 54 80 80 82 88 78 80 64 68 50 44 46 40 36 29 25 22 21 20 23 30
81 62 90 68 66 86 88 87 93 92 100 85 77 64 56 61 62 64 66 63 63 59 64 54 74 87 79 71 67 58 58 66 49 39 45 43 38 36 30 28 28 25 22 24 30
90 64 80 65 67 79 90 98 94 92 94 97 77 76 66 66 60 62 64 62 64 73 57 64 83 58 51 56 66 69 73 69 53 39 39 41 41 35 31 29 26 24 23 23 34
89 81 69 60 78 85 90 91 88 96 100 96 84 81 74 69 69 57 64 60 57 66 60 72 61 53 49 55 64 60 83 74 79 49 36 41 46 39 31 26 24 24 25 24 34
93 92 65 64 83 76 99 84 98 98 100 92 95 93 86 89 92 70 61 60 57 61 55 58 47 48 59 60 56 72 55 68 67 85 78 42 66 42 35 34 31 28 22 31 36
94 98 79 59 84 98 91 96 99 100 97 78 89 88 90 94 77 75 68 75 65 57 50 76 62 62 72 74 68 72 61 75 77 87 75 62 62 47 32 38 34 29 24 33 34
97 100 89 80 81 95 97 95 95 99 94 88 85 92 92 94 85 81 70 73 64 63 53 59 55 60 58 64 68 63 70 91 89 78 92 62 62 49 37 32 30 27 26 33 36
100 98 98 82 83 75 93 99 99 99 66 96 95 85 77 95 93 89 84 73 78 95 93 73 93 68 69 83 67 72 84 100 100 99 79 44 53 45 24 24 25 28 31 35 38
95 100 100 95 92 96 99 97 99 58 76 89 93 93 99 92 93 94 93 83 63 73 86 84 80 87 72 85 85 80 97 100 96 92 61 39 54 42 27 23 24 27 33 37 41
96 100 100 100 97 99 97 99 86 84 90 96 97 100 100 83 67 73 72 85 78 63 97 98 95 70 55 68 81 87 99 83 70 38 52 50 35 28 29 29 31 33 37 40 43
100 100 99 100 99 100 100 96 87 77 86 92 99 90 82 73 79 62 59 52 54 52 59 87 99 80 77 75 82 97 75 94 69 59 65 54 47 43 37 37 30 38 40 41 43
99 100 95 99 100 99 98 93 93 84 87 94 95 91 59 58 80 58 59 49 48 50 70 91 99 96 96 91 92 95 96 86 57 49 60 59 46 33 32 32 34 35 38 42 44
100 99 98 100 98 97 97 93 92 86 90 87 90 84 68 48 62 56 57 46 44 43 86 88 100 100 96 79 67 80 75 65 58 58 56 50 45 28 31 29 32 29 37 41 43
98 95 100 96 98 98 93 96 92 91 88 91 91 71 43 40 63 57 55 41 36 56 73 91 99 100 100 95 89 90 75 68 66 53 58 49 47 31 36 33 27 30 37 42 44
93 95 100 100 95 88 97 99 97 92 88 80 73 52 42 39 41 59 53 45 42 46 76 80 78 98 100 72 81 85 81 72 66 66 52 45 40 37 39 38 34 30 35 42 46
89 91 84 98 96 96 94 94 98 98 83 74 68 59 51 46 47 50 52 51 51 42 64 82 94 92 89 62 61 65 68 64 58 54 54 39 37 33 37 40 36 32 38 44 47
97 82 89 83 74 87 94 95 96 90 83 79 80 62 56 43 42 49 47 57 60 52 50 68 82 62 48 48 55 65 60 60 55 49 48 49 47 26 27 29 33 33 37 43 46
98 83 81 65 75 89 92 91 90 88 84 78 67 66 66 43 37 37 39 45 57 51 59 64 66 61 55 41 46 54 53 52 50 48 47 56 42 31 30 32 34 32 36 41 44

GFSSW_850_rhum_021.txt.gz
RH
35 32 34 44 49 47 42 35 34 46 75 86 100 98 100 97 98 93 80 69 69 66 64 57 43 53 64 68 73 66 75 74 62 50 41 29 24 21 20 23 25 25 24 23 24
35 35 41 54 57 50 45 46 44 39 45 76 80 91 100 100 100 97 64 65 80 72 68 58 58 61 59 71 76 71 84 67 45 40 38 31 27 24 26 30 28 27 27 25 24
38 37 47 60 56 46 43 45 46 49 47 46 62 80 91 95 98 77 64 62 68 88 67 62 64 65 68 59 71 67 79 56 44 38 35 31 30 27 29 33 29 30 30 29 30
58 38 45 63 56 44 50 51 52 52 49 72 56 54 74 91 87 74 64 62 63 88 89 66 71 67 73 83 60 82 62 58 51 45 43 38 30 32 30 31 29 29 30 31 30
77 52 41 63 63 47 55 58 52 53 52 60 79 71 77 91 85 68 64 62 67 67 84 86 83 74 69 66 62 68 59 54 50 46 42 38 36 35 33 31 30 29 29 29 30
81 76 40 51 67 66 70 73 69 56 52 53 64 81 81 95 53 56 66 64 66 71 76 84 82 70 62 56 56 52 52 52 54 52 44 40 37 35 33 32 32 31 30 30 30
74 73 46 43 67 73 80 81 81 72 60 50 54 76 84 68 59 64 64 63 62 64 62 66 68 76 63 61 59 62 66 53 51 53 53 46 45 42 32 32 32 31 31 30 29
88 71 64 42 76 74 82 73 66 84 78 71 52 70 87 64 50 67 61 62 62 63 61 56 55 61 63 64 62 73 71 77 53 50 48 47 63 43 33 33 33 32 31 30 26
86 72 81 74 54 81 73 74 68 73 93 87 67 62 81 62 68 59 66 59 58 57 57 57 56 61 64 74 86 85 90 83 67 49 52 49 57 42 35 34 33 33 29 30 24
86 84 71 91 63 77 83 77 75 90 85 99 77 92 75 61 63 60 65 66 60 57 58 58 56 79 88 84 88 69 88 83 82 56 54 60 56 46 34 36 36 32 26 25 27
92 92 61 90 86 66 87 88 86 99 99 87 80 68 57 62 63 66 68 71 68 65 69 61 84 88 82 77 67 72 79 82 66 53 58 57 56 49 41 34 37 30 24 28 33
89 86 69 86 80 62 89 92 86 90 95 87 80 83 68 61 68 62 65 70 69 78 72 76 87 65 62 68 78 77 87 86 67 58 61 56 58 45 40 38 34 31 29 32 42
92 93 81 79 70 77 80 82 86 95 95 89 76 96 89 75 74 66 65 66 69 80 78 83 65 54 59 66 75 79 87 80 73 62 60 68 67 52 41 35 32 30 27 31 36
95 96 93 80 74 73 92 76 86 96 100 86 92 92 91 85 83 73 64 63 66 79 74 76 59 59 69 72 64 80 58 60 61 75 86 69 87 64 46 40 37 31 30 34 42
93 99 98 64 65 74 70 81 99 100 95 78 88 85 92 88 80 77 69 71 83 69 75 81 66 68 67 64 60 68 56 64 62 77 84 85 96 69 45 42 36 34 36 37 40
96 98 100 77 95 91 93 84 95 95 94 91 85 88 86 90 79 80 76 81 89 91 83 73 54 58 58 50 57 61 68 69 78 81 96 84 95 68 53 40 36 34 40 44 45
100 100 99 78 89 100 84 88 93 99 59 94 90 83 81 82 88 81 91 95 99 99 100 93 81 72 73 85 72 81 85 92 93 95 89 65 85 75 37 34 36 36 44 45 44
100 100 99 93 80 78 87 95 98 66 78 83 84 75 93 75 90 88 96 100 90 98 88 96 93 81 73 76 79 89 78 80 90 78 68 77 97 63 38 32 29 36 43 46 52
100 100 100 98 92 86 92 99 84 72 80 95 96 100 98 91 81 83 87 99 80 80 90 97 93 68 60 59 60 86 95 59 95 96 83 90 52 32 34 41 43 45 47 53 56
100 100 100 97 96 100 98 97 84 77 87 93 100 95 93 83 95 98 92 69 73 62 60 83 94 60 68 78 69 72 59 90 100 98 98 75 53 50 41 45 46 48 49 55 58
100 100 99 100 100 99 98 100 79 70 83 95 97 97 97 87 79 78 66 55 54 60 59 76 99 83 76 97 82 94 99 75 83 86 85 78 59 38 38 38 46 48 48 54 56
99 95 100 100 98 96 99 84 80 84 92 90 91 94 95 82 84 77 64 56 46 46 76 85 100 98 86 85 62 63 84 72 86 94 74 60 51 35 38 37 41 45 49 52 52
96 95 100 99 98 99 91 91 85 93 93 94 93 86 76 73 90 71 58 50 55 60 81 91 99 96 100 95 81 87 83 87 95 90 67 61 52 40 40 39 36 47 50 53 53
89 98 100 100 94 90 94 98 98 94 92 88 83 75 77 74 61 68 62 52 52 54 72 79 98 99 98 92 86 89 85 90 98 89 66 62 52 45 40 39 45 47 48 50 51
88 94 87 98 98 92 88 92 99 99 92 88 91 82 80 68 55 61 62 54 53 58 80 88 100 99 94 90 85 76 79 82 84 72 69 48 45 47 44 42 44 48 51 52 55
97 95 89 90 84 96 96 97 97 93 92 90 89 68 73 79 55 60 62 59 63 71 83 86 99 91 77 71 79 83 77 65 68 55 53 51 51 31 40 37 42 50 51 53 57
92 86 84 91 84 93 88 88 92 89 85 80 79 74 77 70 55 54 58 45 59 63 64 76 87 91 70 73 73 88 70 68 62 53 50 57 47 38 43 42 43 49 50 52 53

GFSSW_850_rhum_024.txt.gz
RH
46 37 37 48 56 59 53 44 35 34 50 82 97 99 100 100 99 89 83 72 66 64 61 54 53 55 66 68 72 74 86 87 67 59 47 34 33 28 22 22 23 25 27 26 29
73 37 40 54 65 62 56 49 46 39 33 60 91 91 100 100 95 99 71 76 73 68 66 64 51 58 63 68 68 84 94 80 57 50 47 39 34 29 28 30 29 28 28 28 27
91 56 39 56 66 56 49 48 45 43 41 39 56 79 91 98 95 80 65 66 70 84 67 66 57 69 68 65 72 80 89 64 54 46 43 43 38 34 30 35 29 28 31 31 30
82 80 41 43 66 52 50 52 50 49 47 50 54 51 72 83 86 72 63 63 66 82 84 73 62 71 72 86 69 83 71 65 62 56 53 53 42 41 34 30 28 29 29 29 30
87 76 72 40 62 59 49 59 57 51 51 51 68 70 62 94 80 66 67 67 61 71 90 92 80 78 73 68 67 76 70 62 63 60 57 53 52 47 40 35 30 29 29 28 27
88 80 78 50 48 67 63 69 69 64 52 55 59 76 76 96 49 60 70 70 64 71 82 89 78 72 72 67 68 59 61 61 57 57 57 58 56 46 41 35 33 32 31 29 26
84 89 73 62 42 68 74 75 76 73 66 54 57 63 88 66 54 53 59 64 68 70 66 81 71 84 76 66 61 63 77 69 58 52 58 53 64 61 46 40 34 32 32 31 29
84 86 83 70 43 68 78 84 65 71 80 73 59 61 68 53 53 65 65 66 65 67 65 63 62 58 63 66 66 75 75 83 52 52 52 55 75 53 41 38 37 35 32 31 32
80 84 84 74 55 70 79 77 71 69 73 94 80 60 64 56 57 50 62 65 64 63 59 57 60 58 65 77 84 84 97 84 72 51 56 61 62 51 42 41 38 35 33 32 32
78 84 81 74 86 56 84 83 78 73 85 99 91 96 75 59 55 57 59 66 61 60 59 60 58 80 89 86 88 70 86 83 81 64 58 62 63 54 46 43 40 36 33 35 32
82 87 95 77 91 68 87 95 92 93 97 95 86 73 60 62 60 60 60 67 68 72 78 66 85 85 74 84 78 73 77 87 77 62 72 68 61 51 47 49 47 41 36 35 31
82 85 95 88 85 94 79 95 81 84 93 85 84 90 70 68 73 63 64 72 73 89 77 80 88 69 66 71 84 85 88 84 70 56 62 68 72 60 50 45 43 43 40 35 30
85 80 94 88 91 98 69 96 80 83 96 87 78 96 96 82 80 70 69 72 75 84 80 88 64 58 68 75 84 87 91 79 77 67 56 57 61 60 52 48 43 40 38 36 32
91 88 98 94 100 85 93 82 84 86 97 85 90 85 89 88 86 76 67 66 73 81 74 74 65 64 72 77 74 90 69 73 74 75 90 70 80 62 55 52 48 42 39 36 37
92 99 100 93 77 72 61 80 86 91 87 68 87 88 93 83 79 79 73 70 91 81 83 92 80 77 76 72 60 74 56 63 71 82 80 72 86 68 57 57 50 43 38 35 37
100 100 100 100 70 56 67 83 96 90 94 92 81 91 88 90 80 82 77 76 94 88 75 74 62 62 63 54 59 65 69 70 73 84 92 65 78 68 66 59 46 42 38 37 45
100 100 100 95 70 69 86 99 97 95 61 94 89 87 83 85 81 81 90 95 99 99 98 99 96 73 67 68 63 63 79 92 100 96 80 51 72 60 58 54 42 38 42 39 51
95 100 100 96 83 81 89 86 93 66 81 73 73 79 86 71 81 81 88 97 93 99 100 98 97 96 75 67 76 79 77 91 91 97 62 67 81 63 50 40 36 37 34 47 57
94 100 100 99 92 90 88 99 86 71 75 76 79 90 88 82 82 86 89 86 77 93 95 96 94 66 64 62 60 88 94 61 79 76 96 86 77 57 54 44 45 44 53 60 67
100 100 100 90 91 92 95 97 79 78 81 81 90 93 91 86 98 89 84 69 69 75 71 76 97 75 69 70 69 70 64 93 94 98 83 78 91 62 50 48 56 56 58 66 75
98 100 99 100 100 99 99 96 80 79 76 86 95 98 96 90 86 87 86 67 72 72 75 77 88 89 85 97 75 94 98 85 66 77 95 78 76 43 38 42 57 60 60 71 77
100 100 99 100 98 98 100 82 69 79 82 87 91 95 95 91 92 89 84 60 55 60 84 67 96 95 76 58 71 94 83 79 78 71 96 98 71 39 42 45 48 55 60 70 72
99 97 100 98 98 100 90 77 80 85 87 94 95 88 84 93 96 83 71 50 50 58 77 92 100 97 86 86 83 100 78 92 64 74 71 99 72 45 50 51 50 55 63 69 72
94 98 98 98 94 92 96 95 96 90 86 90 92 83 84 82 78 78 69 53 53 53 79 87 99 92 94 99 87 88 81 70 84 96 73 89 74 46 48 48 60 58 63 66 64
94 94 86 89 98 85 83 93 96 97 93 92 94 85 86 83 82 85 68 59 65 64 81 92 100 99 95 90 97 83 76 80 98 84 98 74 63 58 45 46 56 57 63 67 70
96 96 87 86 88 90 93 97 96 95 94 96 98 80 80 94 66 64 58 61 74 82 91 89 100 100 98 90 95 98 90 81 93 92 97 93 59 37 45 47 60 60 62 65 68
92 87 76 90 87 96 96 93 92 82 85 86 87 88 85 82 68 62 56 51 59 78 80 93 100 100 100 85 90 100 90 96 92 88 91 76 44 44 45 46 62 60 58 60 62

GFSSW_850_rhum_027.txt.gz
RH
98 83 37 36 43 64 64 56 44 36 44 70 84 94 98 95 93 99 86 73 70 64 60 59 56 52 64 55 70 75 87 89 70 64 50 38 36 31 28 24 26 26 27 27 28
97 96 63 38 48 66 65 57 47 44 42 57 90 98 94 98 100 100 74 75 76 72 68 64 62 52 60 67 68 87 95 76 61 54 50 40 39 35 33 32 31 30 28 26 31
89 97 85 41 50 66 55 52 50 46 52 45 58 89 96 97 100 88 71 75 80 80 74 71 66 62 67 66 77 87 87 64 62 53 48 50 44 42 37 39 31 30 31 30 31
82 90 81 67 45 70 52 53 54 53 54 51 47 49 80 88 88 71 68 71 69 86 86 79 69 72 74 88 74 82 73 72 67 61 61 61 50 45 40 36 36 33 32 31 30
86 85 87 76 47 64 60 55 60 55 54 52 53 55 63 95 86 65 66 62 66 87 90 99 84 77 76 72 71 81 74 66 62 64 66 62 65 62 53 49 43 41 34 32 31
82 86 85 82 76 50 70 62 69 67 56 53 53 77 77 88 41 66 66 70 74 73 91 97 91 76 80 71 70 64 65 65 57 58 61 64 62 60 52 47 48 43 35 32 31
76 82 82 90 76 50 72 75 78 77 69 56 54 66 89 59 53 48 68 71 75 76 80 85 94 86 86 78 68 66 78 70 67 56 59 52 61 63 54 53 52 47 41 33 32
82 81 76 84 77 55 70 83 86 78 84 72 60 59 63 49 58 60 68 68 66 69 71 70 82 75 61 64 68 76 78 88 56 62 56 53 67 54 48 48 50 44 38 36 33
81 80 76 90 79 58 71 84 87 69 71 90 80 69 65 55 51 50 64 66 67 67 66 66 65 60 63 79 78 84 95 88 71 56 55 67 63 50 42 47 49 45 41 38 34
79 81 75 82 81 67 74 87 83 76 84 96 98 84 70 58 56 54 54 62 65 62 60 60 62 77 88 88 86 76 98 84 82 62 66 70 66 54 47 50 53 47 42 40 37
88 84 89 89 84 77 81 100 93 92 89 94 82 77 62 65 60 63 59 62 69 71 78 69 84 88 80 85 82 88 86 84 79 64 72 75 72 65 56 52 50 52 46 44 40
99 86 93 89 95 93 67 97 83 88 94 79 92 89 70 73 73 66 67 68 75 91 80 82 89 75 66 70 79 89 96 86 75 64 64 69 69 56 50 49 54 49 47 43 41
99 93 95 96 99 100 89 85 86 85 90 77 82 96 94 79 82 73 69 71 80 93 90 88 65 61 69 76 84 86 87 69 71 60 63 72 64 45 38 41 48 52 47 42 40
97 95 96 97 100 98 99 97 81 84 94 78 91 87 88 83 83 74 67 67 72 88 84 86 69 70 72 78 79 88 72 76 80 86 88 70 81 51 46 46 45 46 48 46 43
80 99 99 100 96 99 92 81 81 85 85 70 88 91 92 82 77 78 74 69 78 86 84 88 94 82 78 72 67 73 61 77 78 85 87 75 95 67 51 48 47 59 49 43 39
87 94 94 100 97 92 86 72 89 88 94 88 86 87 90 87 81 81 79 76 88 86 77 76 70 73 75 60 62 62 69 74 76 88 97 67 80 56 40 42 55 54 45 44 40
80 94 99 98 89 85 74 90 98 93 62 90 82 87 72 80 81 80 89 94 96 98 98 98 95 80 69 75 62 68 91 97 97 96 83 56 71 55 41 49 53 51 44 40 39
90 95 99 83 93 78 81 89 97 70 89 67 75 90 89 82 83 81 85 87 84 98 100 98 99 95 86 71 78 86 87 95 90 92 84 49 71 49 39 32 29 28 35 39 42
93 99 99 100 93 83 80 98 83 70 77 72 72 84 85 67 74 88 91 79 76 74 98 98 95 84 83 66 73 99 98 72 87 68 89 80 67 56 36 55 56 49 43 40 51
98 97 96 95 90 98 94 88 77 72 71 67 91 78 80 76 91 91 84 69 76 71 67 80 95 76 79 68 76 83 65 95 98 96 91 60 68 73 52 40 30 42 55 54 62
93 97 95 98 95 98 97 93 78 80 71 85 84 97 84 89 87 82 80 72 68 72 71 71 87 84 88 92 87 93 96 90 75 84 90 75 48 29 42 37 39 58 61 68 75
99 98 100 100 97 98 100 84 70 87 80 82 78 82 90 83 96 84 94 73 63 72 93 72 92 97 74 70 59 63 71 77 81 88 76 71 65 45 52 49 49 67 72 80 85
96 95 100 99 98 99 93 80 76 89 83 89 94 85 78 91 100 93 80 58 64 70 84 80 99 97 95 84 82 100 95 86 71 70 80 83 54 52 40 60 55 73 80 87 88
96 100 99 99 90 82 89 87 92 82 82 86 93 88 94 94 90 86 84 58 55 59 67 75 100 96 89 84 99 99 94 93 96 95 76 69 51 37 32 49 68 73 84 89 86
99 97 94 98 98 87 77 92 91 96 84 89 95 95 95 97 76 86 81 74 63 61 81 91 100 99 93 81 80 100 98 91 97 78 86 56 54 45 46 64 65 72 82 86 84
97 96 86 84 87 86 86 95 93 81 92 97 99 84 90 96 70 79 74 70 66 77 90 94 100 100 96 85 94 96 96 87 80 76 78 76 75 45 61 56 67 72 76 81 84
90 98 75 84 88 91 94 90 86 82 86 81 90 96 92 80 70 64 69 64 64 79 94 98 100 100 93 96 95 100 94 95 83 73 80 97 78 63 54 54 64 70 69 73 75

GFSSW_850_rhum_030.txt.gz
RH
83 93 87 79 37 43 57 61 56 50 41 48 76 73 81 92 96 99 94 75 74 68 63 61 60 57 55 54 64 73 87 93 74 66 54 39 38 34 32 30 29 27 28 26 27
99 84 94 89 50 44 72 63 54 49 49 41 65 88 87 96 99 99 79 82 80 75 67 71 65 57 55 64 72 87 97 79 65 58 50 44 42 40 38 39 34 31 29 25 25
95 91 86 90 78 41 69 58 49 46 48 47 44 100 92 98 100 92 80 77 76 80 76 79 70 62 64 68 77 88 89 69 65 59 57 55 50 46 42 47 35 34 34 41 39
79 91 77 88 84 51 65 55 55 53 52 50 51 55 97 99 76 69 72 72 74 93 95 87 77 68 76 83 72 84 77 76 72 66 67 66 60 62 49 43 36 39 41 36 36
74 81 92 80 84 75 54 61 60 59 53 54 63 67 73 99 84 69 66 65 70 84 99 99 90 75 77 76 75 86 80 69 65 62 63 64 71 72 66 58 49 44 46 40 37
85 79 82 85 82 82 56 71 64 67 61 57 63 81 80 83 44 60 70 71 72 98 99 100 92 80 79 76 72 68 67 68 62 58 59 66 64 63 59 56 51 50 45 42 39
88 81 80 86 83 82 73 71 74 78 73 62 60 70 87 56 52 54 71 72 78 85 87 96 95 84 88 82 71 70 82 75 70 62 62 54 68 69 53 53 54 52 49 44 39
99 88 79 88 89 78 74 66 83 89 83 74 66 66 61 51 50 55 57 73 74 78 70 70 76 92 75 63 66 75 80 93 62 65 58 57 71 51 41 49 56 50 48 45 38
97 100 87 94 91 86 71 64 90 85 70 88 83 79 72 58 51 50 59 65 67 68 68 70 69 64 65 75 78 78 83 86 75 57 61 73 69 56 50 52 55 55 52 47 41
99 97 94 91 97 94 67 73 100 86 73 86 100 88 72 61 56 55 55 66 67 66 66 64 64 78 81 84 91 74 72 62 74 65 69 75 74 60 54 51 52 49 46 48 47
82 88 98 89 99 100 78 100 95 90 83 93 93 77 66 69 63 62 62 63 68 64 78 71 85 94 86 79 67 77 93 90 75 66 76 75 69 58 50 55 60 56 54 51 44
86 80 97 90 99 100 68 99 78 74 93 73 90 90 76 76 73 69 66 67 75 88 80 84 94 76 68 73 83 85 87 77 70 65 71 71 68 56 52 52 51 56 54 55 46
84 80 85 92 100 100 83 87 78 75 83 77 78 97 86 80 83 73 72 71 80 93 93 90 67 65 73 80 85 88 91 84 78 62 63 70 66 44 35 37 41 40 43 45 50
82 74 82 100 100 99 98 94 82 70 92 77 95 89 92 88 80 73 66 67 80 92 90 93 72 72 78 83 82 89 74 76 80 88 92 72 82 51 41 41 41 37 41 48 42
85 64 68 100 100 100 88 94 81 67 98 74 93 94 90 74 76 85 75 67 79 87 84 83 90 92 90 76 74 76 69 79 83 95 98 85 92 66 48 48 44 50 45 41 36
70 56 76 87 99 94 89 94 75 86 98 91 87 89 90 87 77 81 81 73 83 77 78 74 74 75 77 65 62 64 74 76 92 97 95 69 82 58 44 36 33 48 37 36 38
77 62 70 90 100 99 94 84 95 96 66 87 87 79 76 82 75 78 87 95 97 99 98 92 92 77 73 82 69 82 100 97 98 97 86 64 79 55 38 34 41 43 40 38 39
86 83 79 75 100 100 86 86 94 70 88 69 78 76 79 68 74 84 85 93 85 89 100 97 90 87 79 73 79 82 88 95 92 86 85 59 76 49 39 35 31 31 30 31 42
99 93 87 94 100 96 90 97 82 73 77 81 81 82 93 78 74 83 87 88 64 81 98 99 93 82 83 73 64 98 98 72 97 96 96 80 67 52 46 44 48 49 35 32 30
99 95 90 98 98 99 90 85 73 64 70 70 85 78 77 76 85 90 84 76 74 74 63 80 95 78 80 83 75 81 79 97 98 96 94 76 68 56 45 30 30 38 32 28 36
95 94 95 99 99 98 97 85 76 77 64 78 82 86 75 82 78 82 81 71 72 76 68 76 92 84 86 97 84 97 96 100 89 95 92 72 51 32 29 26 43 50 37 31 34
92 98 98 98 99 98 97 84 75 85 81 84 73 86 84 80 90 88 87 75 63 76 86 70 95 96 76 63 62 68 77 78 84 88 86 82 55 32 43 55 58 61 58 50 51
95 94 100 76 99 100 90 86 80 91 87 85 82 78 77 86 99 91 84 65 66 78 87 77 98 98 88 84 68 99 86 72 69 63 82 88 54 31 31 35 58 72 82 90 88
93 99 100 100 96 87 88 89 97 82 81 80 80 77 88 96 91 96 90 68 68 70 69 69 95 88 84 70 99 100 88 96 98 96 80 87 59 44 40 39 50 70 88 96 92
94 99 97 99 99 78 75 82 85 94 81 83 83 82 93 100 96 97 87 78 67 65 77 83 100 97 92 80 91 100 99 96 98 89 97 64 61 49 40 49 64 66 92 99 96
94 96 95 82 89 78 85 92 94 81 86 91 97 87 93 98 74 76 69 78 76 78 88 90 99 100 97 86 99 97 94 98 96 92 96 78 77 59 60 66 66 76 94 97 96
96 99 85 87 85 89 93 87 85 81 85 75 86 96 97 92 83 74 63 68 71 78 95 98 100 100 89 90 100 100 98 96 95 94 88 97 68 55 76 78 66 80 87 91 92

GFSSW_850_rhum_033.txt.gz
RH
81 89 88 86 80 66 42 78 72 64 55 40 38 51 72 82 100 100 86 68 75 76 68 67 63 58 53 54 71 71 79 79 66 61 48 41 39 35 34 32 34 29 28 31 30
83 79 99 82 87 81 44 61 66 62 53 47 39 57 78 88 98 97 80 80 75 78 71 68 66 57 57 65 72 81 91 75 63 54 49 46 45 43 39 40 38 34 33 35 30
72 82 89 85 84 83 66 53 59 51 53 50 43 64 74 89 98 92 88 86 85 86 87 81 71 62 63 67 75 88 90 69 66 60 62 62 59 52 46 50 40 36 31 35 42
80 85 81 97 83 85 82 46 59 52 57 57 52 48 91 97 94 74 79 69 72 90 94 94 78 65 75 76 73 83 81 83 72 64 65 69 66 68 60 49 44 39 42 41 40
100 83 86 88 93 80 81 56 63 57 58 57 62 61 55 97 90 70 75 66 73 99 97 98 85 71 73 76 78 86 79 72 68 64 61 61 70 67 67 57 55 53 51 46 43
98 100 88 86 96 90 81 77 61 59 63 59 61 79 65 78 53 69 74 73 72 95 97 95 88 79 75 77 71 71 71 70 66 62 60 62 58 64 51 48 49 50 50 43 43
99 99 98 92 88 95 80 77 54 68 74 66 62 69 75 53 52 49 67 75 74 99 94 96 90 82 84 84 75 72 78 71 69 66 63 57 64 68 54 54 51 47 49 46 41
98 99 99 97 90 94 95 77 54 79 84 77 77 69 59 54 51 53 61 75 80 88 84 78 85 90 85 68 66 74 74 82 63 62 63 56 59 50 44 50 56 54 49 43 28
92 78 92 93 96 96 100 81 61 92 84 85 90 82 72 64 55 52 59 64 76 77 73 70 79 73 70 75 78 79 86 88 68 58 63 67 69 53 56 58 56 53 56 55 49
83 76 77 96 97 100 100 87 88 97 74 80 99 93 75 66 57 57 54 66 67 69 69 68 67 77 76 84 87 82 90 72 64 55 66 68 67 54 52 52 51 53 51 48 48
86 81 72 86 85 100 100 100 99 91 80 78 84 78 70 73 66 68 60 68 67 68 82 70 83 92 80 79 70 78 86 79 67 59 70 65 64 56 50 51 51 50 49 47 42
90 86 83 78 90 100 100 97 72 57 87 71 89 88 80 75 73 75 68 67 71 85 78 86 90 72 71 80 83 79 84 69 56 53 65 66 66 51 48 46 44 44 45 46 33
94 88 87 74 98 94 98 82 73 65 69 76 75 88 84 76 80 76 69 73 81 92 89 88 69 67 71 79 83 85 88 82 79 63 59 63 59 37 32 35 38 42 44 44 43
99 90 98 97 89 97 100 88 73 69 87 73 93 91 90 87 80 72 68 64 80 90 90 91 74 73 83 85 78 90 73 73 77 82 86 69 67 38 34 33 32 35 38 41 38
86 88 76 100 96 100 97 89 81 62 86 72 95 97 93 78 71 86 76 68 84 86 86 78 88 93 84 74 75 75 67 74 77 89 87 76 84 49 47 47 40 34 32 30 30
98 80 77 96 79 87 98 89 80 86 94 92 89 93 93 81 78 84 82 72 75 78 83 76 72 75 78 71 67 64 76 78 83 88 96 65 81 55 42 36 34 32 29 26 25
99 87 84 76 84 90 100 98 97 90 68 97 88 86 77 82 79 78 87 91 92 98 98 84 84 74 70 80 73 72 100 95 96 98 83 58 80 57 39 34 36 33 30 23 23
100 95 79 86 80 98 100 98 91 74 82 67 75 79 79 73 72 78 87 92 79 89 98 96 87 87 76 75 82 86 87 91 92 82 70 62 78 50 40 34 31 29 30 29 31
100 95 91 87 84 100 96 98 80 74 75 80 75 82 84 74 76 79 83 79 71 83 96 96 85 78 81 76 66 97 97 72 89 79 95 69 55 43 40 43 39 38 31 33 28
98 96 96 85 76 100 96 94 69 67 73 74 86 79 88 87 92 92 89 76 77 75 72 81 97 74 79 79 77 87 72 96 98 96 86 72 72 53 43 31 24 31 51 47 39
94 94 96 91 94 100 100 89 82 72 62 72 84 87 71 84 82 84 83 70 75 79 72 72 87 79 90 93 79 91 95 99 89 88 81 66 48 36 31 28 32 55 55 50 39
99 97 97 99 99 100 100 80 80 86 76 81 78 78 78 78 79 77 83 73 66 76 87 75 85 97 85 66 66 63 72 76 96 80 92 87 63 29 35 42 54 44 54 54 58
94 96 97 97 99 100 88 87 88 86 86 83 81 77 77 75 90 85 84 66 68 76 85 76 96 97 79 79 71 87 72 70 89 85 94 91 53 31 35 39 38 52 56 64 74
92 100 99 96 98 93 86 91 96 83 84 79 78 73 76 85 80 87 83 74 68 72 70 65 88 86 80 61 83 99 89 83 98 96 78 88 61 42 39 42 40 47 58 80 88
95 99 97 99 99 84 76 78 95 93 84 81 90 78 78 94 85 87 81 76 72 70 70 81 100 88 84 76 75 96 96 97 98 88 96 67 88 64 51 47 53 65 72 96 98
99 96 93 92 90 80 79 83 82 92 79 88 94 78 77 92 81 90 85 85 75 78 84 81 100 100 96 85 82 99 95 96 97 94 97 90 88 54 49 59 66 72 77 98 100
97 97 90 85 88 92 86 75 82 79 79 71 82 82 87 89 82 82 72 66 70 82 85 98 100 100 90 73 89 100 99 97 98 96 84 96 68 56 56 57 71 69 82 95 100

GFSSW_850_rhum_036.txt.gz
RH
80 80 86 90 98 83 80 49 59 68 63 59 44 49 83 79 80 99 96 80 76 71 69 69 64 64 58 55 73 65 39 35 32 31 27 32 28 24 32 29 30 26 28 36 31
98 83 81 82 99 86 81 74 42 64 57 52 47 51 90 85 85 96 84 80 80 76 79 71 64 61 53 55 60 48 44 34 29 30 31 31 32 33 32 28 26 29 34 37 34
99 97 86 81 89 95 80 80 42 60 51 48 49 48 95 96 98 95 88 86 88 86 92 77 69 62 52 58 56 50 48 35 46 44 49 43 43 42 33 32 29 27 28 38 42
97 99 93 86 81 99 82 81 62 56 53 52 52 48 74 95 74 93 79 78 88 96 96 88 73 60 54 51 53 57 50 50 48 55 57 50 48 47 41 32 30 40 41 44 42
99 91 99 97 89 95 94 80 78 51 56 56 56 56 73 89 71 70 69 64 67 93 100 88 70 60 54 51 59 54 44 50 50 58 51 47 46 43 42 43 46 46 47 44 42
99 100 99 97 93 86 100 83 79 53 56 60 56 66 74 64 65 76 70 64 82 97 96 89 75 70 62 56 56 54 57 54 54 52 50 50 44 42 40 39 38 38 40 40 40
90 91 92 99 100 93 96 90 79 58 58 66 60 62 77 62 50 52 73 69 72 95 95 96 85 78 69 61 65 60 61 47 45 45 45 48 47 43 39 38 36 35 34 35 34
86 85 71 92 100 99 96 99 80 65 69 73 67 64 68 55 53 56 57 77 78 94 85 90 89 87 64 64 55 53 52 52 43 46 46 49 41 28 35 37 40 38 35 32 34
91 86 74 76 86 95 99 100 89 66 84 78 84 78 71 65 58 53 60 75 84 79 75 86 83 71 67 65 60 53 53 55 50 41 45 49 47 37 45 40 41 39 40 41 41
76 78 82 70 86 95 99 100 95 88 94 93 95 89 81 69 58 54 61 70 74 72 72 73 63 57 52 58 55 45 54 48 49 40 44 45 46 39 40 39 39 40 39 39 41
82 79 82 80 78 88 87 100 99 100 98 70 80 73 74 72 70 64 70 69 68 67 65 65 69 70 54 51 45 53 54 55 46 42 45 46 44 38 35 36 35 34 34 34 35
94 80 95 88 86 86 98 100 90 73 86 83 88 83 82 80 74 81 74 61 58 64 61 69 76 49 48 52 59 59 61 58 46 40 44 43 41 32 29 29 29 28 27 25 25
86 82 80 98 98 91 97 92 78 53 61 86 88 83 86 80 69 76 71 67 56 66 64 63 54 52 60 62 68 64 64 55 54 45 42 43 41 27 20 20 23 27 27 27 25
86 84 93 96 91 75 83 79 94 76 89 79 85 78 83 79 66 75 70 63 64 61 64 63 49 57 63 63 58 62 45 54 54 59 62 50 52 33 26 24 21 21 22 25 27
90 100 99 99 90 93 88 84 99 82 94 69 88 91 80 63 70 87 77 65 64 65 66 65 69 74 67 60 54 60 51 54 56 61 63 58 85 37 30 31 26 22 21 21 24
99 98 98 96 82 81 97 95 100 96 85 90 87 92 88 66 68 84 80 74 63 62 67 52 60 58 54 52 52 54 62 62 60 73 90 52 66 41 26 24 23 20 20 20 22
95 99 99 98 81 78 95 100 98 96 63 92 82 87 73 75 77 70 84 85 83 97 94 65 63 57 60 66 60 64 89 75 84 93 67 34 42 43 24 24 24 20 19 22 22
97 96 93 97 85 78 100 97 95 69 68 63 69 74 79 70 71 73 81 89 64 64 77 79 75 65 67 68 62 78 74 69 68 44 40 43 54 31 22 22 23 22 24 26 25
98 92 92 69 77 90 99 98 84 59 63 68 70 78 79 67 65 72 75 70 62 65 87 84 78 59 61 58 56 82 96 58 80 66 76 47 31 24 21 23 23 23 23 28 32
98 89 89 82 92 94 98 99 62 61 58 56 72 63 76 73 76 70 68 55 56 54 52 67 88 57 65 66 64 66 53 87 92 78 61 39 36 33 25 25 23 22 24 32 35
98 94 97 85 100 96 100 94 75 60 56 60 65 70 63 72 68 69 63 57 56 59 56 63 70 68 74 83 68 82 92 94 63 61 70 51 34 20 22 20 21 19 30 33 42
100 100 97 96 98 99 100 75 66 68 72 67 60 58 60 64 68 65 62 58 56 61 71 55 70 83 63 43 44 43 55 61 89 70 79 73 58 27 23 21 28 29 27 37 51
98 100 99 87 96 98 96 85 75 69 71 66 70 63 58 61 73 61 67 59 62 60 59 58 85 83 51 69 56 74 58 52 67 76 93 93 58 35 28 28 27 28 29 34 56
100 100 98 91 99 81 96 92 86 80 72 68 66 59 64 70 64 75 73 63 63 57 59 56 67 68 58 53 63 99 78 76 96 96 74 77 59 40 42 38 31 32 34 46 66
98 97 94 100 97 74 65 73 78 80 73 66 71 66 65 75 78 92 72 64 66 67 63 64 97 72 67 60 63 80 87 93 99 93 94 62 63 62 49 55 42 41 51 61 76
99 96 99 82 79 77 75 72 71 79 70 77 70 69 66 76 69 75 69 70 71 66 72 71 95 100 96 71 76 99 92 96 97 96 97 91 86 49 43 45 44 43 48 67 85
98 98 92 94 75 75 68 66 65 65 69 63 63 68 72 67 65 68 76 67 60 64 69 79 98 98 94 76 78 94 97 96 95 93 86 97 64 45 48 50 52 67 70 73 84

GFSSW_850_rhum_039.txt.gz
RH
99 100 92 85 83 90 95 81 72 38 52 61 57 42 49 80 72 80 98 86 82 71 66 74 64 57 53 47 48 50 42 35 27 20 20 18 20 21 21 21 21 20 20 33 39
90 99 99 93 84 88 99 84 77 48 52 59 52 43 66 82 92 93 90 92 76 71 76 68 57 55 48 44 48 47 41 29 17 16 19 19 22 21 22 23 20 23 24 33 41
98 91 94 99 92 85 93 91 78 64 57 51 48 44 79 89 97 91 81 78 82 79 82 62 53 51 45 43 43 42 44 24 22 32 32 28 24 28 26 27 19 19 22 28 35
98 98 100 100 100 91 85 99 79 74 56 50 51 46 78 98 79 95 84 84 91 88 87 70 59 50 42 45 41 44 36 32 29 36 43 41 34 30 29 28 23 24 29 34 34
94 97 99 98 99 100 90 99 83 76 57 56 55 53 74 80 70 79 78 81 83 91 94 72 59 49 47 39 38 44 38 33 37 41 42 44 39 35 34 34 32 31 32 36 37
92 92 84 84 96 100 96 91 94 77 58 58 57 59 83 63 64 72 69 76 78 90 95 84 69 55 48 41 44 40 40 38 40 40 40 42 37 35 32 31 30 31 32 33 35
92 96 92 82 78 94 100 92 99 84 61 60 61 70 83 54 59 61 68 78 85 83 80 86 78 64 61 53 50 50 52 42 39 38 38 39 42 39 34 32 30 29 27 27 27
90 89 77 85 77 77 99 91 99 88 62 69 67 88 66 64 71 48 72 78 83 87 90 91 81 76 70 58 48 48 45 51 30 34 34 38 44 22 25 28 28 28 27 26 25
91 91 72 74 74 74 91 94 99 87 65 78 79 82 60 62 58 61 65 69 71 77 87 95 85 79 70 58 50 44 48 41 33 31 34 41 43 25 35 33 27 28 29 28 27
91 76 77 72 79 75 84 97 97 97 90 97 94 81 74 64 67 65 67 69 66 66 73 72 63 59 56 56 56 42 42 38 37 30 37 39 37 29 28 30 32 32 32 31 29
79 75 80 71 72 84 80 95 99 99 100 76 76 59 68 70 70 66 67 68 64 60 55 54 57 58 44 40 38 36 43 40 32 30 37 37 34 29 26 27 28 29 30 29 29
92 86 76 81 85 90 86 99 97 100 91 80 74 72 70 67 67 64 63 58 60 69 52 67 74 43 37 39 43 47 49 45 36 32 36 36 35 27 24 24 23 24 25 26 25
94 94 92 78 95 91 94 72 92 100 88 79 73 69 77 74 56 66 63 52 49 54 55 62 46 42 44 50 55 51 51 45 44 37 34 36 36 25 20 19 20 22 23 23 22
94 99 97 85 95 97 93 58 94 100 100 86 81 72 79 68 62 63 60 52 49 48 49 51 40 47 48 54 48 55 37 40 44 51 52 40 51 30 21 20 18 18 19 20 21
94 91 98 99 100 90 89 66 87 100 97 72 72 68 70 56 60 67 60 61 50 48 52 59 55 53 56 49 42 49 45 48 49 54 59 51 60 36 19 22 22 19 19 19 19
93 91 99 96 88 85 89 80 88 99 97 87 88 77 70 53 62 68 67 66 51 48 52 47 47 48 47 44 43 47 51 57 56 65 86 46 44 34 21 15 14 15 17 18 18
88 92 94 96 94 98 87 97 98 97 61 93 80 75 68 64 66 70 76 78 73 93 85 61 53 47 46 56 51 53 73 72 83 88 65 27 32 32 20 18 18 18 17 18 18
96 97 90 92 96 88 98 97 98 77 65 52 68 69 76 65 66 62 68 80 56 54 64 74 76 53 55 61 58 60 65 66 61 37 34 29 42 28 17 16 18 19 18 18 20
97 88 89 96 95 88 98 96 94 56 58 63 70 91 83 59 60 66 66 65 55 53 76 69 71 47 52 49 49 64 86 54 70 55 63 39 26 21 18 17 16 16 18 20 20
99 96 96 96 96 97 98 100 60 48 51 54 69 57 74 71 69 65 71 49 54 45 42 63 79 49 52 51 51 55 47 80 90 82 59 33 29 26 21 19 17 18 17 20 26
97 100 99 81 86 98 99 94 63 49 46 50 55 57 55 64 58 63 61 51 44 45 46 57 62 64 60 72 62 68 76 67 54 60 62 52 35 23 28 27 23 18 16 23 26
99 99 99 98 98 99 100 84 53 54 60 53 44 45 51 52 60 56 54 48 45 44 59 52 67 80 56 39 38 42 58 58 86 59 62 78 61 29 29 27 26 27 26 25 27
98 99 99 99 99 100 94 80 58 62 58 55 59 47 45 52 63 53 51 51 50 50 51 52 77 78 63 57 42 56 50 47 56 80 95 93 58 30 28 30 36 36 34 25 29
99 100 93 94 90 75 96 82 72 68 59 51 54 46 50 54 51 57 58 58 54 49 59 49 61 67 59 62 52 89 60 57 96 97 71 70 58 44 39 42 54 42 41 39 35
93 96 92 94 73 58 63 69 72 64 58 54 58 52 52 62 62 66 56 61 61 59 56 56 80 60 56 51 54 65 71 73 97 96 98 80 80 63 53 46 51 57 52 45 41
98 97 89 67 63 55 64 67 80 66 53 59 55 55 52 55 54 63 63 64 64 63 66 68 87 96 89 63 61 83 66 73 96 96 97 95 94 60 45 44 45 47 44 40 53
98 99 100 80 59 67 60 55 55 53 59 55 52 56 61 56 55 57 65 58 52 70 71 73 96 94 84 62 62 86 89 91 90 81 89 93 62 45 48 52 65 75 79 72 71

GFSSW_850_rhum_042.txt.gz
RH
99 93 97 96 98 90 86 89 89 80 64 43 65 60 47 54 69 72 88 81 78 84 61 82 71 61 53 49 43 42 56 53 43 34 27 15 19 19 19 20 18 19 19 33 51
98 99 92 95 95 97 93 87 95 84 75 42 61 56 44 76 84 100 69 86 94 83 69 69 63 57 53 49 43 52 64 52 30 25 25 18 18 19 21 21 21 21 22 29 33
90 98 100 99 97 96 97 89 95 90 76 46 55 49 46 98 93 85 84 92 86 82 73 71 56 51 52 44 43 46 58 34 28 23 32 34 31 24 26 29 22 21 21 24 34
93 87 98 99 99 98 98 93 91 95 83 48 52 47 54 100 84 86 82 81 83 76 84 75 56 49 51 51 41 47 38 36 34 30 38 40 35 36 28 27 26 26 25 29 32
92 92 95 99 93 93 95 100 95 98 86 56 52 55 62 96 83 83 69 83 88 85 83 76 58 51 50 40 39 42 39 34 33 35 36 40 42 44 39 32 30 28 29 30 34
90 90 92 92 93 82 75 98 99 99 94 64 54 60 60 70 67 78 68 77 84 93 83 78 59 51 53 44 40 37 38 38 35 34 37 39 39 39 34 32 33 33 32 31 32
90 90 93 91 86 87 80 84 100 96 96 73 58 61 80 67 57 72 61 72 75 77 84 84 76 63 56 53 53 44 55 47 43 40 41 37 46 44 37 36 33 30 29 29 30
93 91 91 92 78 65 73 76 98 100 98 74 64 85 79 66 68 50 65 71 77 75 80 87 85 72 70 58 50 55 56 71 40 39 36 40 54 35 30 32 33 32 30 28 27
95 90 91 76 79 80 69 67 83 83 99 82 74 90 67 61 62 58 68 69 71 77 84 89 77 74 68 66 65 53 64 56 44 35 34 41 50 35 31 30 31 29 28 27 27
79 83 76 75 81 79 82 76 74 93 99 92 92 87 74 66 57 60 64 64 66 76 86 90 82 78 70 75 80 57 59 51 46 37 37 44 46 36 30 29 29 31 31 30 28
77 90 81 84 72 76 82 74 77 93 98 91 81 61 63 61 64 61 65 64 59 68 67 64 75 84 71 62 56 45 45 46 39 30 37 42 39 34 29 28 28 28 28 28 30
76 92 87 93 88 86 87 99 90 98 99 87 75 62 66 66 63 62 65 61 60 68 52 64 74 48 41 39 44 46 51 53 43 34 36 40 41 34 29 28 26 26 26 27 28
89 93 91 99 94 89 83 90 74 95 98 91 75 65 70 62 59 62 62 56 58 65 65 66 49 42 49 47 52 54 58 54 50 41 39 42 45 36 25 26 25 24 23 23 23
92 91 90 97 100 100 78 70 91 99 100 98 78 69 73 63 58 60 57 49 51 61 58 61 46 42 50 53 50 62 43 44 45 54 67 46 76 41 30 27 23 21 21 22 22
92 94 87 95 99 98 92 92 88 97 97 94 77 69 71 57 61 63 58 54 51 50 51 60 50 54 56 48 43 51 48 51 52 62 69 60 74 49 24 27 23 22 19 19 19
82 83 90 91 98 79 88 89 90 97 95 99 80 72 74 59 60 59 59 58 52 45 45 50 44 46 49 42 42 47 50 56 59 68 93 66 64 59 29 23 19 20 19 19 19
85 80 89 94 99 91 96 85 95 97 94 98 83 68 66 68 70 64 73 71 77 89 91 62 58 46 46 53 47 49 62 94 98 93 91 34 56 44 24 20 21 19 17 18 18
97 96 92 96 98 97 99 93 92 66 100 56 73 67 72 62 71 69 76 78 61 59 78 76 76 56 51 58 59 60 68 94 86 77 70 43 55 38 23 20 18 17 17 17 18
98 85 98 99 99 90 95 97 79 71 58 77 73 86 79 63 65 72 74 69 59 55 75 67 73 45 53 49 54 64 86 58 78 64 86 56 30 24 20 20 20 19 17 18 18
98 96 99 94 95 79 99 98 97 51 52 60 78 60 85 70 72 71 70 52 52 46 46 66 78 51 52 46 48 54 49 85 94 96 85 50 44 37 30 36 33 28 23 21 19
94 95 98 93 90 91 100 100 84 48 50 52 57 55 56 66 62 63 60 49 44 46 45 53 66 66 63 75 73 68 72 64 64 73 91 80 51 32 37 36 38 35 27 26 26
98 98 94 80 97 99 97 98 65 60 53 45 44 45 52 52 62 56 60 50 42 44 57 49 70 87 71 48 51 53 62 64 82 74 77 92 68 33 32 33 35 35 29 28 25
98 99 91 99 96 99 96 87 58 61 55 52 48 42 43 55 66 52 55 49 47 47 55 55 80 92 66 60 46 61 55 56 63 77 90 92 65 33 34 36 36 41 38 38 38
97 99 96 97 91 99 96 81 79 65 54 49 49 44 46 55 49 57 61 55 50 49 48 48 66 80 90 73 70 84 65 56 74 98 78 76 65 51 51 58 58 58 53 54 46
96 85 85 90 83 91 76 75 69 66 55 49 53 48 48 58 58 56 56 67 56 58 52 56 85 70 67 58 59 67 69 67 99 96 98 85 88 78 78 71 62 50 53 57 56
98 99 96 63 58 69 75 68 64 57 54 55 57 51 50 55 58 59 58 62 70 64 62 59 97 96 90 65 69 80 70 70 71 76 91 96 95 64 56 47 65 85 76 72 68
95 96 100 70 62 64 61 64 64 56 59 51 52 58 60 64 54 55 57 51 54 68 67 74 93 95 85 71 77 89 75 75 86 84 84 98 78 60 62 66 84 94 94 90 82

GFSSW_850_rhum_045.txt.gz
RH
94 94 98 100 100 100 100 98 88 94 90 79 51 50 62 58 49 81 84 42 70 75 65 65 62 55 56 54 46 44 67 73 59 50 40 25 24 19 20 18 19 20 32 48 54
90 92 92 94 100 96 96 100 94 92 95 86 66 49 59 54 65 86 49 54 59 74 75 78 76 65 60 52 50 56 74 67 44 40 36 30 34 27 21 21 21 20 32 50 50
96 90 97 87 99 98 99 100 99 93 99 91 68 52 54 70 93 60 50 56 89 84 84 72 68 61 60 55 51 51 77 53 49 37 34 40 36 34 30 30 22 21 25 32 26
91 91 94 97 97 96 99 98 100 99 100 96 70 56 55 95 88 85 74 60 98 85 80 62 68 65 61 64 50 59 48 46 43 39 38 43 42 44 40 33 33 28 26 27 38
92 90 90 90 95 89 90 86 97 99 97 98 74 59 68 92 85 80 76 82 88 84 75 80 77 64 60 54 50 53 48 41 40 37 36 36 44 45 43 38 31 31 31 32 31
92 78 90 91 92 88 97 87 78 95 98 99 79 67 75 94 69 76 65 77 87 86 77 76 67 56 52 54 51 40 43 45 43 44 42 41 41 39 40 36 32 33 31 33 33
86 88 91 93 90 90 95 92 75 92 98 100 83 72 91 73 62 76 63 64 75 81 83 75 77 61 60 56 53 49 55 54 50 46 47 40 52 51 38 36 37 34 31 31 32
86 80 72 77 70 86 79 72 58 60 100 100 86 74 89 59 64 61 63 72 78 79 78 81 82 66 66 56 51 56 59 78 55 46 44 45 59 43 35 38 39 36 33 31 30
76 76 73 77 77 77 80 84 69 52 85 100 86 84 77 66 70 62 61 62 79 79 82 92 93 82 68 65 71 62 78 76 64 41 45 51 56 42 36 36 37 36 34 33 32
82 73 76 87 82 84 78 68 61 64 80 100 89 91 82 69 70 65 59 70 76 76 91 90 85 88 86 82 95 75 76 64 60 43 43 50 56 46 34 35 34 31 30 33 32
79 71 76 84 86 90 89 68 79 76 98 96 90 76 63 65 60 59 64 66 75 76 90 88 90 97 88 80 68 64 61 57 48 39 40 48 51 46 37 35 34 33 31 29 28
93 83 90 94 96 99 98 93 88 98 92 87 95 72 65 60 62 60 65 62 68 87 62 68 78 65 64 66 71 67 58 61 51 39 42 46 44 37 35 34 32 31 32 28 27
82 84 85 86 85 97 100 87 84 92 98 96 99 79 66 63 64 62 66 61 62 71 65 78 53 50 57 58 53 56 62 62 62 51 45 52 51 44 37 33 31 29 28 28 27
83 78 84 87 91 90 94 87 89 89 100 98 93 81 65 62 66 64 65 57 60 63 64 63 52 47 58 60 54 67 51 52 54 62 74 57 87 64 40 33 28 29 28 27 26
93 94 80 82 96 98 96 92 100 82 96 98 94 76 62 71 63 64 63 54 65 61 65 72 59 58 55 55 49 59 52 57 60 71 76 72 79 68 50 32 29 26 22 21 20
87 80 91 88 100 85 99 93 77 92 95 100 89 79 82 64 62 62 61 56 51 53 56 55 46 49 54 45 46 50 56 58 63 78 96 76 72 60 40 27 23 20 19 20 19
96 97 97 96 97 91 98 79 88 96 99 100 94 76 74 74 68 66 71 75 78 81 87 65 61 48 48 59 50 60 70 94 89 95 93 58 74 63 36 28 24 24 20 18 18
100 86 92 93 95 90 85 98 86 59 93 84 75 73 93 71 72 72 78 83 66 64 89 87 88 65 54 61 67 64 70 92 93 92 83 57 77 50 32 26 23 20 19 19 18
80 96 92 93 91 88 86 99 87 100 94 95 84 79 91 71 81 73 76 76 64 64 79 84 77 53 52 50 57 68 85 65 79 77 94 72 47 33 28 38 34 27 26 25 18
84 86 90 97 96 88 97 98 98 93 70 67 96 73 90 76 84 78 79 61 62 56 52 67 80 60 57 49 54 59 59 86 92 94 94 74 58 43 35 38 39 40 35 32 26
89 86 98 95 90 88 99 100 98 75 61 58 69 71 65 80 73 74 76 57 48 52 50 55 69 77 63 72 75 72 80 64 73 87 96 96 70 37 39 36 37 39 39 40 39
91 97 99 95 96 98 100 100 90 73 62 50 46 58 61 65 74 60 67 54 40 42 58 53 76 90 81 59 59 63 68 65 92 75 89 92 74 36 38 40 38 42 49 46 46
83 94 90 99 99 100 96 94 78 73 57 54 50 46 49 59 67 57 64 52 47 48 56 57 82 95 74 69 61 76 67 64 68 82 91 93 68 38 41 40 45 61 67 62 56
93 96 91 99 94 98 96 92 91 61 60 52 50 43 51 57 57 67 72 57 52 56 50 47 74 80 87 77 77 86 68 66 77 98 80 80 63 50 47 55 63 68 70 66 62
95 87 86 99 97 93 85 82 75 71 57 51 52 50 53 63 59 58 67 67 58 59 54 64 85 74 76 73 69 75 77 76 84 78 97 67 71 65 63 72 70 72 71 74 83
91 96 99 93 86 80 87 89 74 69 65 63 65 61 60 63 64 58 63 66 70 66 64 66 85 97 92 71 74 84 76 76 77 76 89 88 93 63 63 70 67 92 94 86 82
100 99 99 78 73 70 67 67 65 59 60 58 59 71 81 79 64 65 61 56 66 75 64 76 85 98 93 70 83 92 80 75 73 79 84 97 75 72 76 78 96 99 97 99 98

GFSSW_850_rhum_048.txt.gz
RH
97 98 96 99 90 99 98 99 98 97 98 99 90 78 49 64 69 60 81 36 42 80 72 79 80 69 53 60 50 48 73 82 61 53 42 31 31 25 21 20 20 24 31 26 49
91 92 97 93 94 97 99 100 96 98 100 98 95 85 54 70 86 68 38 41 37 78 67 80 74 66 66 59 51 57 81 71 52 45 43 34 36 33 27 23 23 28 33 50 56
95 91 90 91 92 91 94 100 93 98 99 94 99 91 59 75 89 51 40 39 40 84 79 74 79 72 68 59 55 59 79 56 52 46 44 41 41 40 36 30 28 34 50 55 59
81 83 91 88 92 90 89 90 98 86 98 98 100 94 62 76 91 89 77 47 43 66 75 80 79 75 70 69 55 60 54 50 49 41 45 43 40 46 42 33 32 34 33 40 56
86 94 93 75 92 89 89 89 89 90 94 97 96 97 69 91 82 79 82 51 96 89 85 84 80 74 70 64 58 60 53 46 43 43 44 39 43 47 45 38 33 36 36 34 32
82 91 81 76 88 82 94 92 86 83 78 98 92 91 68 92 48 74 80 67 98 91 87 72 75 68 55 55 61 50 48 46 44 44 46 45 45 40 41 38 35 34 33 33 33
94 89 79 76 69 78 89 79 76 64 66 90 93 90 81 66 73 71 72 70 70 81 79 72 74 66 59 58 52 50 55 54 50 47 49 43 51 55 39 34 36 34 31 27 28
76 77 76 74 78 78 77 70 82 71 56 64 94 99 85 53 68 77 67 73 78 82 77 70 77 72 64 57 55 58 62 69 51 46 43 46 56 43 36 38 38 36 32 26 23
81 78 74 73 81 82 79 74 61 66 63 58 96 96 73 59 61 74 68 75 85 83 84 83 91 80 64 72 74 64 78 76 66 50 50 57 61 46 35 39 38 35 35 34 30
78 90 90 79 87 86 80 74 56 58 61 79 99 92 86 70 58 62 59 73 86 88 99 96 99 95 87 78 88 82 77 69 66 47 49 58 65 51 40 41 40 36 35 33 32
93 84 74 75 87 91 91 77 67 89 94 97 94 89 72 61 71 65 66 76 81 84 93 90 93 94 90 74 64 59 66 63 52 42 44 49 52 47 40 40 40 38 37 32 30
89 78 72 80 76 85 91 99 90 95 88 84 99 96 80 67 72 68 67 70 84 90 83 90 89 74 77 76 79 74 71 69 55 45 44 50 50 40 36 35 34 33 31 31 30
94 92 87 80 71 85 86 90 96 91 97 87 92 93 67 60 63 65 66 68 76 81 72 80 57 56 61 68 73 63 64 62 63 54 46 57 42 38 38 34 30 30 32 32 30
90 95 86 77 73 90 86 99 78 95 98 94 95 92 72 61 67 64 65 59 64 74 63 64 52 55 64 63 56 66 52 55 59 62 76 58 74 66 47 43 35 29 26 27 27
88 94 97 99 97 82 86 88 81 96 96 92 95 87 71 72 65 68 66 53 67 65 64 69 64 56 60 59 52 61 53 57 61 74 74 72 78 62 48 41 30 28 20 19 19
91 97 97 98 99 98 90 96 94 94 95 100 98 91 80 66 64 68 62 55 52 58 58 57 49 52 53 50 49 53 57 68 73 80 93 73 76 63 43 32 24 22 20 19 18
92 84 84 93 96 94 96 93 88 96 98 100 97 79 75 74 75 68 71 70 75 91 95 64 62 49 49 62 53 58 73 93 91 95 85 65 83 68 47 38 30 32 26 22 22
81 90 91 93 84 88 96 92 89 87 87 89 76 75 91 72 75 73 75 81 66 72 88 86 86 62 52 60 69 67 71 88 79 96 88 64 76 50 38 33 25 28 32 30 28
81 84 96 91 86 87 88 98 97 98 99 85 74 86 98 86 81 72 73 77 68 64 79 85 75 56 56 52 57 69 83 65 84 82 96 75 57 33 37 39 39 38 37 37 38
83 85 92 93 99 98 100 98 99 94 79 71 97 83 99 91 91 76 74 64 61 58 57 68 86 60 57 53 53 57 62 89 93 82 88 70 68 47 33 39 40 45 42 46 52
72 89 95 92 88 85 99 100 99 77 74 65 83 72 79 81 78 76 71 62 54 57 52 56 74 83 62 70 78 75 82 70 77 81 93 95 64 46 36 40 48 50 47 57 58
77 96 93 97 95 99 100 100 95 85 68 68 54 58 70 73 75 66 76 60 49 51 66 56 77 95 84 60 59 64 71 69 90 72 92 93 78 42 42 38 42 37 53 61 60
81 90 94 100 99 100 99 95 90 85 80 56 55 50 56 66 71 66 62 56 46 50 61 59 79 90 76 70 67 78 70 67 70 84 96 91 74 41 45 40 38 51 63 68 65
86 94 86 94 94 97 98 94 87 62 59 51 53 49 54 59 60 78 70 62 55 56 48 52 76 74 87 72 79 84 76 74 79 99 89 86 64 49 47 46 54 63 66 72 80
95 95 98 98 96 90 85 93 75 75 60 49 54 49 55 67 67 77 72 66 62 58 58 62 83 80 80 76 73 74 75 76 88 74 92 65 69 60 58 57 64 78 90 95 90
96 97 95 95 81 83 86 82 76 72 68 65 71 66 61 70 67 73 74 72 70 65 66 68 91 97 95 73 79 86 78 78 77 73 75 69 76 55 54 70 89 92 91 85 87
100 96 98 81 80 77 74 66 70 61 62 61 69 77 84 80 70 65 52 55 64 73 72 71 84 98 88 74 84 93 82 76 76 77 70 86 67 63 71 85 95 91 80 82 81

GFSSW_850_rhum_051.txt.gz
RH
94 91 94 90 88 91 95 96 92 86 99 94 94 98 87 74 80 91 79 44 33 82 82 77 80 78 76 61 56 52 77 85 58 56 44 34 33 29 27 24 22 23 27 32 39
96 94 86 93 91 92 87 93 93 99 87 92 95 100 93 86 83 92 33 39 38 87 88 81 76 80 77 64 55 62 83 74 55 48 43 39 40 38 34 31 24 29 33 43 53
82 88 91 91 88 79 92 89 91 96 93 96 94 92 99 86 90 54 30 34 38 80 88 85 83 79 73 62 59 64 77 56 54 46 48 45 43 40 42 39 28 33 61 61 64
69 77 77 77 85 77 90 90 91 88 92 85 96 96 100 76 84 92 89 43 39 80 95 88 90 78 75 74 59 64 58 55 48 44 47 45 42 46 41 39 33 37 42 61 68
95 87 82 82 77 79 96 89 91 89 90 90 93 99 100 89 61 80 83 79 51 93 90 95 95 77 77 70 62 63 56 52 48 46 48 44 45 49 46 35 37 36 36 35 38
92 85 72 75 77 74 72 74 77 92 77 80 97 100 100 86 57 41 87 86 52 91 87 88 88 75 66 62 67 56 54 51 47 46 46 48 47 42 42 36 34 39 37 35 34
95 77 72 77 76 75 78 75 74 72 57 75 93 100 100 77 55 41 82 93 72 89 86 86 75 75 65 59 54 53 57 55 53 49 51 46 54 62 42 39 37 32 34 32 32
94 74 73 74 73 74 76 75 72 61 74 63 85 100 98 77 64 70 77 84 82 89 74 72 78 73 66 59 59 63 62 74 51 51 47 44 57 44 35 37 39 35 31 29 26
79 79 90 80 78 82 80 86 75 63 58 63 81 89 92 77 63 79 76 80 82 82 84 76 75 78 67 71 76 66 86 77 62 49 48 58 65 46 36 38 38 33 28 27 28
94 94 79 64 65 83 89 80 61 57 57 65 73 98 94 75 60 77 74 76 85 91 96 97 84 94 85 82 90 87 75 72 69 49 55 64 70 54 47 46 46 43 40 36 34
86 89 89 77 85 78 89 74 69 82 83 88 95 91 88 72 62 75 70 76 86 93 96 98 94 95 80 75 63 68 69 68 58 45 47 52 54 47 40 39 40 35 37 37 35
95 92 92 89 81 74 84 92 90 93 81 86 100 95 88 80 71 62 63 78 91 91 92 92 92 80 86 84 77 76 75 74 60 49 47 55 56 44 39 37 34 33 31 31 30
88 83 88 85 84 62 88 96 89 92 87 95 97 96 88 74 73 71 69 76 80 85 77 80 66 82 82 91 91 82 72 65 63 55 50 62 52 44 35 35 32 31 30 30 29
87 84 91 99 93 82 77 89 83 90 95 97 94 91 84 63 70 68 67 69 77 80 70 61 52 72 70 76 66 71 54 57 61 62 75 59 74 58 44 46 41 32 28 25 25
89 88 99 94 100 100 78 84 78 97 93 83 95 92 78 68 67 68 67 56 71 66 62 69 60 67 70 65 54 63 54 59 65 76 70 70 80 56 44 36 29 27 27 24 23
98 85 77 91 92 97 95 97 95 96 96 100 96 94 78 69 70 74 66 53 54 62 59 59 52 51 52 58 52 57 58 69 80 77 89 68 72 55 40 33 30 34 35 35 31
99 96 83 90 98 96 95 94 88 96 97 100 97 72 74 76 81 78 72 68 86 98 97 66 66 51 52 64 56 60 71 89 83 91 79 71 79 62 46 42 38 36 39 39 36
92 94 96 91 86 81 81 94 89 80 96 94 78 74 97 73 86 75 74 94 66 73 90 90 92 61 52 60 69 64 68 85 68 88 87 67 79 48 42 34 33 40 41 39 34
82 83 94 99 94 87 94 98 96 97 99 93 79 93 100 87 90 92 76 75 67 61 79 84 78 58 54 55 57 73 84 64 85 83 93 74 58 32 42 42 42 43 39 42 48
75 82 90 93 96 87 98 98 100 98 74 74 93 92 86 93 90 89 72 63 61 59 57 64 87 62 58 52 59 59 64 83 92 66 75 62 70 48 35 39 46 51 43 47 58
74 79 80 83 82 82 98 100 96 74 73 71 85 80 85 84 80 72 73 63 55 60 54 62 77 83 60 68 78 75 85 80 80 77 87 88 55 48 37 41 48 50 42 54 58
78 97 84 88 92 93 100 100 97 86 78 72 60 67 74 72 74 71 74 64 53 55 64 59 81 89 76 62 61 65 71 72 86 76 94 94 78 44 48 44 44 41 43 59 65
79 89 82 98 98 99 98 94 88 84 88 60 58 52 60 68 71 68 65 56 55 56 64 59 79 92 81 69 68 76 72 69 74 84 98 90 71 44 50 42 44 52 60 72 76
83 94 87 84 85 97 96 93 86 72 63 52 57 54 57 64 69 77 69 68 55 51 51 51 74 74 86 68 82 90 81 76 79 96 88 86 72 49 47 51 51 64 85 85 84
94 97 99 96 86 84 84 86 79 81 59 54 54 52 59 71 71 79 71 65 63 61 60 61 82 82 79 74 75 77 75 84 85 76 89 70 74 55 48 49 56 88 87 81 80
96 95 93 92 82 89 81 79 79 75 69 66 76 71 69 73 71 79 74 69 63 62 67 67 96 96 93 72 84 92 80 80 81 76 78 71 72 49 48 60 82 89 80 79 80
98 95 98 81 87 82 81 69 73 65 70 73 72 78 86 82 74 58 51 57 60 70 76 72 88 97 88 76 84 89 84 78 74 76 66 80 62 61 69 79 92 88 77 74 70

GFSSW_850_rhum_054.txt.gz
RH
87 85 84 89 84 85 91 94 91 98 93 90 97 99 100 99 88 80 90 51 46 71 89 67 90 86 84 67 60 58 80 84 60 56 43 36 35 32 30 30 25 23 26 32 42
89 92 87 76 78 79 82 82 94 90 92 87 90 94 95 100 98 86 48 34 37 70 98 84 88 94 90 69 60 63 86 76 53 46 42 42 41 40 36 37 27 28 49 38 51
91 92 94 95 86 76 83 75 73 90 90 91 82 89 92 100 100 89 57 41 34 62 99 92 84 90 82 69 63 67 77 57 54 47 48 47 45 42 43 40 30 32 56 69 69
76 80 82 74 76 68 73 79 90 89 93 89 91 96 98 100 91 70 71 36 31 51 99 98 90 86 82 78 63 68 61 54 45 48 48 47 44 46 43 38 34 35 39 58 77
82 81 83 94 90 81 78 77 69 79 80 86 83 90 98 100 84 92 89 80 38 73 100 98 88 79 75 72 64 66 58 54 50 50 50 48 47 48 45 39 37 36 37 37 39
80 89 79 81 82 76 78 74 75 84 92 87 72 87 99 98 79 72 62 87 56 94 100 100 87 73 68 69 67 60 56 54 52 50 48 50 49 46 42 39 36 35 32 33 35
89 79 82 80 90 92 85 76 75 75 76 93 78 82 100 91 77 70 49 75 58 82 97 94 82 71 69 63 59 56 60 56 57 52 52 49 58 63 43 40 38 34 35 33 31
83 92 95 92 95 94 77 76 72 80 75 76 82 79 98 85 82 84 76 83 85 84 92 86 83 74 65 60 61 67 61 77 55 56 50 46 58 44 35 35 39 38 36 34 29
86 82 87 79 84 77 82 77 76 77 92 90 81 78 94 85 78 82 92 81 82 77 78 77 72 78 69 74 80 72 89 83 65 54 50 59 66 47 44 44 44 38 32 34 31
85 86 94 92 92 75 81 74 66 64 57 69 71 92 89 81 76 74 84 82 92 88 92 89 80 90 88 76 83 72 75 76 75 50 58 64 69 51 37 43 49 44 40 38 37
85 94 69 93 95 82 79 68 62 76 75 79 88 90 89 80 87 72 78 83 86 87 98 91 92 95 84 75 65 71 74 72 62 48 48 58 57 50 42 41 41 36 33 34 33
91 80 78 86 78 85 67 88 83 91 82 86 96 91 95 90 82 76 74 77 89 96 97 99 96 81 69 68 72 72 78 76 63 51 49 57 60 46 38 42 37 36 33 32 32
84 86 91 99 98 94 75 91 90 95 82 90 97 99 99 89 70 71 67 79 82 92 92 92 92 89 85 88 85 82 78 70 67 56 53 62 54 45 34 36 32 32 32 30 28
95 97 98 98 97 96 77 91 88 88 93 94 96 95 94 86 74 66 68 78 86 85 74 71 77 90 88 88 88 98 61 57 59 63 79 61 76 56 44 40 38 34 34 34 37
92 85 80 86 100 99 83 85 76 90 91 83 95 99 86 80 70 68 73 62 73 87 74 86 82 80 89 83 86 66 56 61 64 74 68 67 72 48 40 33 34 41 44 46 44
82 88 80 90 90 95 98 80 82 91 96 99 96 94 88 72 78 71 72 61 57 60 59 62 53 51 55 61 52 60 62 69 78 74 85 66 67 45 38 39 38 39 43 45 44
91 85 77 85 89 85 85 78 89 94 98 100 99 84 78 82 81 77 80 75 93 96 89 70 66 52 54 66 56 59 69 85 74 87 74 72 74 56 43 41 42 39 44 42 46
88 78 78 80 82 87 84 92 95 92 97 96 81 79 96 79 86 89 80 84 64 74 91 93 93 60 54 60 69 68 66 82 59 80 80 70 84 48 44 34 40 43 42 39 47
80 81 100 99 88 83 89 96 98 99 100 92 74 92 92 95 87 95 84 77 65 61 79 85 83 58 55 57 56 71 85 64 87 80 94 73 57 29 45 44 43 42 39 42 52
71 75 87 95 93 92 91 98 100 96 74 72 90 86 92 99 91 92 86 63 65 60 56 63 91 64 60 55 61 60 65 80 91 64 64 50 60 41 36 38 42 48 46 46 57
70 79 83 86 89 80 98 100 96 79 75 72 88 86 87 86 80 76 72 65 54 60 57 63 75 81 62 67 78 74 88 80 77 75 78 64 38 48 38 40 45 48 49 58 65
73 93 79 84 89 98 100 100 90 83 79 59 62 69 74 72 73 69 72 62 54 54 63 60 78 80 74 63 61 63 72 72 84 79 93 93 69 42 48 44 43 46 55 72 79
79 78 77 83 99 99 96 90 90 84 85 58 57 57 61 67 72 68 64 59 54 55 63 60 78 94 80 68 67 77 73 69 74 82 98 91 58 44 52 48 45 53 69 82 78
84 96 80 78 83 95 90 91 88 74 68 55 59 54 58 69 72 76 70 71 57 52 52 54 72 70 82 67 82 92 82 73 77 90 85 88 71 51 46 54 50 56 84 80 77
89 95 99 97 86 91 86 82 80 82 61 56 56 56 62 75 73 80 71 66 65 66 62 62 86 90 78 70 75 78 75 86 82 79 85 68 78 57 51 53 51 86 83 78 77
88 95 96 94 81 83 82 81 81 78 76 69 82 79 72 74 68 80 73 67 64 62 67 67 98 90 92 72 83 93 82 82 84 78 80 70 74 48 47 52 76 89 83 75 74
98 99 97 83 90 81 83 78 76 68 74 78 71 82 84 85 76 61 56 58 61 70 75 72 90 94 88 78 83 88 84 79 81 78 68 84 60 49 60 73 89 88 87 72 70

GFSSW_850_rhum_057.txt.gz
RH
81 93 93 92 94 77 83 86 81 78 94 91 91 100 98 99 100 100 86 69 40 61 94 66 96 90 87 64 58 61 70 70 57 50 40 36 34 32 30 29 27 24 28 34 41
85 88 81 85 78 90 89 86 81 86 85 94 75 94 99 100 99 99 89 71 54 45 98 86 94 98 94 70 61 63 74 68 50 45 42 40 38 37 35 37 29 33 45 38 40
79 84 78 77 94 94 95 92 79 78 76 85 75 90 92 96 96 85 78 76 65 48 96 96 83 94 87 73 67 68 68 57 54 43 44 47 45 44 42 39 31 33 55 62 79
91 78 76 87 93 98 95 90 70 82 73 92 92 83 93 91 89 68 75 67 81 53 93 97 93 96 80 78 67 69 63 54 48 52 50 50 46 46 44 36 37 37 38 47 76
82 83 82 91 94 93 87 81 93 84 77 77 76 80 82 98 91 80 95 98 100 86 94 99 98 88 78 74 68 67 60 55 50 53 50 50 49 46 44 39 39 38 36 37 39
85 78 76 89 91 82 83 93 86 73 73 71 76 79 86 98 92 82 81 70 94 99 94 98 87 79 72 73 63 61 56 56 52 51 49 51 50 48 43 37 36 36 33 33 33
75 81 81 82 82 94 93 94 94 90 80 73 76 84 92 94 89 77 76 85 85 94 94 90 81 64 68 68 63 60 66 60 54 54 52 50 54 61 40 40 40 37 32 32 33
78 80 75 84 82 80 87 78 76 72 78 82 74 85 96 79 89 82 81 70 82 67 92 88 76 65 63 61 64 67 62 74 56 57 51 46 56 43 38 41 42 39 37 34 26
75 82 78 89 92 92 81 82 69 66 96 97 88 93 78 71 83 80 85 96 99 79 92 79 77 74 66 73 80 75 86 78 63 58 56 50 61 47 45 43 42 39 37 38 34
93 93 92 86 84 83 87 73 60 75 65 76 91 89 72 84 75 84 88 99 98 84 76 80 78 90 86 76 83 88 80 78 62 53 60 66 68 55 41 42 41 37 33 34 36
95 90 86 82 85 80 84 62 67 84 83 74 76 87 78 82 77 78 84 96 85 86 85 82 92 90 85 71 62 64 73 73 66 50 51 58 59 50 43 42 42 37 35 32 32
97 96 97 97 89 95 84 75 81 87 70 82 87 91 96 95 97 79 91 82 88 90 86 97 93 72 71 66 66 68 76 76 63 52 51 56 56 45 41 42 41 41 39 38 34
84 86 89 83 98 100 86 86 90 88 69 90 87 97 99 84 90 83 87 89 85 88 90 96 82 74 72 76 76 77 78 74 68 56 54 60 54 45 36 35 35 35 35 39 40
81 85 87 77 91 99 80 88 88 91 90 95 96 93 98 86 88 76 87 82 91 93 88 93 88 84 89 82 75 93 68 60 59 64 71 60 67 52 41 40 45 48 51 52 46
81 87 88 85 98 97 88 84 79 93 92 91 93 95 98 90 75 73 73 65 86 88 89 96 96 92 95 93 77 90 58 61 63 70 63 63 65 45 38 39 41 44 48 56 55
78 81 80 88 93 98 83 76 82 84 96 99 95 95 93 84 77 77 76 65 76 78 66 70 72 70 70 85 77 69 61 68 72 70 76 62 65 40 39 40 38 41 44 50 56
84 83 71 75 89 84 84 86 89 93 93 99 99 90 85 84 80 81 87 83 94 99 99 81 67 56 54 64 54 58 71 86 68 83 70 72 75 51 40 39 41 45 44 46 56
71 89 82 81 90 94 92 89 89 91 99 96 88 84 96 85 87 85 94 86 67 74 89 91 92 64 55 61 68 68 66 83 55 65 62 69 74 43 43 36 42 43 51 52 60
61 66 84 86 87 85 91 96 100 99 99 93 87 94 97 89 86 90 86 78 69 64 79 84 91 58 60 58 57 68 80 61 85 81 84 63 55 34 44 44 45 42 47 56 64
65 62 79 83 86 81 93 98 100 96 72 70 89 82 96 93 98 87 85 65 68 62 56 65 94 67 62 56 61 60 63 78 85 76 55 42 48 31 44 46 38 45 48 56 69
66 66 77 81 78 83 99 100 95 79 72 72 88 87 87 85 78 79 74 65 56 60 58 64 74 82 63 69 77 74 82 77 71 69 61 47 31 42 39 42 45 48 48 68 79
65 88 72 67 91 95 96 96 90 82 76 59 65 72 75 74 71 71 70 63 54 54 65 63 78 90 74 64 62 62 73 67 75 76 88 84 49 38 42 44 46 46 53 80 77
74 71 66 73 97 98 88 86 88 86 79 58 58 60 63 67 72 67 66 63 53 53 61 59 78 94 86 69 66 78 73 66 70 79 97 80 41 44 50 49 44 51 78 81 76
79 95 68 70 90 95 91 87 82 73 65 56 60 55 61 74 72 75 72 72 59 53 53 52 73 68 80 68 80 92 83 71 76 89 82 84 58 45 41 50 51 61 84 80 76
86 94 97 98 90 88 86 82 80 84 69 60 61 58 64 77 74 80 73 69 67 67 62 61 84 89 76 69 77 77 80 79 82 77 82 60 72 52 50 53 50 81 82 80 74
90 92 94 95 82 78 82 80 84 82 89 75 81 80 66 71 64 80 74 70 68 64 64 68 94 93 87 74 84 93 82 83 78 75 75 69 71 47 46 48 70 87 84 76 72
98 97 95 84 86 82 83 81 74 72 75 82 74 80 84 84 79 65 59 58 61 70 74 74 94 90 87 82 81 93 83 80 82 79 69 86 62 50 56 61 86 87 87 75 71

GFSSW_850_rhum_060.txt.gz
RH
90 86 84 84 82 79 85 92 75 77 85 84 83 82 62 75 99 94 98 95 65 78 88 40 93 98 77 64 60 59 40 38 38 34 26 25 24 26 27 21 22 25 32 45 38
92 91 93 76 77 78 91 91 92 80 75 80 79 78 95 81 98 96 96 96 75 84 99 73 96 97 76 61 53 38 38 29 27 30 27 27 22 27 26 25 23 30 40 37 31
90 89 78 86 81 87 90 93 87 86 84 70 82 85 95 91 94 83 78 72 73 73 91 85 92 95 75 65 51 38 35 32 43 38 33 29 30 34 25 26 22 25 40 73 51
84 85 76 78 78 92 94 92 79 96 91 86 76 79 78 98 75 71 67 67 75 94 87 88 91 91 73 65 52 50 37 38 48 48 46 37 33 32 30 23 32 40 40 49 85
88 84 81 87 76 85 78 78 87 96 88 76 69 67 80 92 74 88 80 91 99 98 92 83 81 76 70 61 58 50 46 45 45 51 48 46 39 32 35 37 40 39 35 40 41
80 80 80 77 74 77 92 94 95 81 83 84 81 75 92 85 65 70 95 82 97 99 90 89 73 71 64 60 55 50 46 45 43 46 47 44 42 43 36 37 35 37 34 34 37
88 86 81 78 80 84 78 79 95 88 82 82 82 78 92 76 83 89 88 88 94 96 84 91 72 69 64 62 58 54 53 43 46 42 37 43 42 45 36 32 32 30 29 31 35
88 85 85 81 80 89 93 77 67 74 85 80 82 85 82 65 70 89 80 81 89 98 87 92 81 68 51 57 56 51 46 54 36 41 45 41 28 33 38 34 33 32 29 31 31
96 87 89 92 92 89 80 78 71 72 77 87 96 88 77 66 85 88 96 84 80 93 92 90 82 63 62 53 64 52 45 44 50 44 34 40 30 27 38 38 33 32 32 35 33
89 87 88 85 82 74 78 76 63 74 68 96 90 94 81 72 82 90 93 77 87 98 90 94 86 82 60 51 54 55 52 47 41 46 48 47 36 34 39 39 34 32 31 31 34
84 85 87 94 98 89 86 65 77 89 75 73 73 84 74 79 82 88 83 88 99 83 75 77 94 87 63 46 39 40 47 44 44 43 44 44 45 40 36 36 34 31 28 28 32
85 79 77 74 87 98 97 80 83 82 68 83 82 83 83 97 82 78 88 99 87 79 59 82 93 68 50 50 49 46 43 45 55 46 44 44 46 37 34 34 36 35 33 32 33
71 87 84 89 99 96 90 90 83 81 68 86 97 94 97 92 80 94 92 91 64 68 71 71 69 52 56 58 56 50 46 55 50 48 43 45 42 39 31 32 34 35 38 42 42
66 62 79 82 83 85 93 90 86 88 96 88 97 94 96 90 82 92 88 98 88 72 83 86 79 65 62 59 49 64 54 53 53 54 52 46 33 39 33 39 37 42 47 50 50
62 58 59 59 84 96 86 81 80 91 93 97 96 98 97 86 89 96 93 80 78 94 91 98 92 81 78 60 54 72 56 53 52 52 50 47 46 36 32 38 39 38 44 52 58
56 61 60 60 64 73 74 81 84 93 92 98 95 90 88 94 84 92 91 80 82 78 83 96 97 87 86 92 72 49 50 50 50 54 66 44 48 31 32 30 36 36 41 49 58
64 62 57 68 80 78 83 97 92 86 97 100 97 87 81 84 74 78 76 83 91 98 100 100 97 87 82 89 88 70 58 81 77 80 59 54 50 29 30 29 30 41 46 50 58
65 67 77 78 86 86 84 84 86 95 100 95 83 88 96 74 88 92 73 70 58 62 94 92 96 90 76 60 67 59 58 69 54 43 41 57 50 31 31 31 36 40 48 55 62
63 63 81 86 83 85 92 97 99 100 99 80 65 71 75 72 83 93 68 67 61 51 68 78 89 55 55 52 49 62 72 49 65 62 56 36 39 34 34 33 36 36 44 54 67
61 61 76 70 70 71 90 94 98 93 70 60 76 68 65 71 68 66 68 58 58 52 46 60 90 62 56 51 51 53 48 67 79 66 47 33 30 27 38 37 34 38 45 56 71
62 67 70 61 64 80 99 99 81 71 69 61 68 66 65 65 63 63 63 58 50 52 45 50 59 80 56 63 61 60 64 59 48 48 44 24 21 25 35 33 37 38 48 67 72
60 79 68 61 85 91 98 92 83 71 68 54 55 60 60 59 58 57 54 54 51 46 51 54 62 77 67 56 52 52 54 47 55 63 64 62 28 25 27 32 38 41 58 73 71
67 66 62 63 91 87 74 72 78 65 59 52 54 53 54 56 62 57 56 60 52 47 48 49 70 84 76 66 60 66 58 54 53 63 84 52 29 32 33 35 35 45 64 70 71
81 82 65 71 93 76 71 73 67 70 57 53 53 49 52 57 54 60 61 60 60 54 53 45 57 57 54 65 66 85 69 57 80 85 56 52 35 33 35 32 38 49 70 70 68
82 89 96 84 72 71 74 70 69 69 63 57 51 50 51 57 58 61 62 60 60 64 54 48 70 70 62 61 65 68 71 67 82 68 85 47 48 31 31 37 41 59 77 75 67
98 91 93 82 76 68 74 71 72 74 74 61 57 63 54 51 51 59 58 54 53 56 53 58 93 86 82 66 68 81 65 66 67 61 62 54 55 35 36 40 52 74 80 74 69
96 91 94 81 71 68 70 72 68 68 78 70 62 59 62 66 70 62 55 51 49 54 58 58 81 81 71 68 69 81 72 65 63 59 56 72 48 38 40 44 65 82 82 72 68

GFSSW_850_rhum_063.txt.gz
RH
81 92 90 91 85 83 74 81 86 95 84 77 84 78 89 87 59 62 100 98 83 76 64 68 97 99 76 60 45 46 44 41 34 29 22 18 21 21 19 17 18 17 24 50 73
79 92 93 86 78 86 82 76 82 84 88 79 70 78 80 86 86 72 88 94 94 77 97 62 85 92 71 58 50 43 45 36 26 23 24 20 22 19 21 19 16 19 34 59 73
85 93 93 83 76 81 78 93 84 81 83 82 79 73 86 83 78 55 57 77 81 84 83 74 66 84 65 55 46 39 32 26 22 31 32 23 22 18 21 17 16 17 22 53 69
76 80 82 80 78 83 83 80 84 80 93 88 82 82 78 91 62 37 71 70 80 93 76 80 54 72 65 58 46 42 31 24 31 38 35 26 22 25 22 19 20 26 34 44 60
83 84 83 80 82 82 81 79 92 80 86 76 77 75 78 79 72 71 89 78 92 91 71 71 53 61 60 53 45 44 31 31 36 45 39 28 24 24 24 27 31 33 36 32 37
88 84 82 78 78 78 82 75 81 92 81 77 79 77 87 69 53 55 62 97 99 98 67 69 53 54 53 49 45 42 37 37 35 44 44 39 28 31 28 27 30 29 29 28 31
93 97 89 90 72 75 80 88 87 85 85 82 76 91 84 64 57 88 62 94 100 99 68 62 55 54 51 53 53 45 43 40 36 36 37 42 39 36 29 30 28 25 26 25 26
89 95 93 87 72 75 93 88 94 79 77 81 78 94 84 64 63 69 82 84 95 93 70 61 65 66 59 48 52 54 44 54 38 37 34 38 36 27 30 28 26 24 22 21 21
96 92 81 85 86 87 71 73 78 71 60 60 95 92 68 69 65 74 87 89 90 95 75 67 87 72 60 60 59 50 50 43 35 33 36 41 30 23 29 29 25 22 22 23 24
100 83 68 72 88 87 71 70 63 66 86 94 93 87 66 60 65 88 96 97 92 92 70 80 87 74 65 53 68 49 46 31 31 40 35 36 34 24 26 31 26 23 23 24 25
99 84 74 62 69 90 80 81 81 83 79 66 71 71 73 67 80 98 74 82 97 74 64 76 91 87 55 42 29 26 36 30 26 38 39 34 33 27 26 30 28 25 23 22 22
85 89 83 87 87 93 93 71 84 91 62 68 70 79 78 96 98 91 82 98 95 72 52 83 91 69 42 38 35 35 36 38 38 35 38 31 35 30 28 29 27 26 26 24 26
88 71 80 73 70 93 89 96 92 92 86 78 89 84 88 95 89 96 91 88 84 54 64 79 75 76 72 51 47 36 37 35 40 45 38 36 40 34 28 29 30 30 29 30 32
65 64 54 63 87 94 90 78 72 79 100 92 80 87 90 90 78 94 85 87 77 60 57 68 71 82 77 63 44 45 32 31 49 50 40 35 23 34 31 33 30 33 35 38 39
56 66 60 42 85 89 76 66 73 87 82 97 93 91 93 89 89 93 99 98 75 88 73 95 78 77 82 67 41 56 43 45 48 51 48 46 43 34 31 38 35 34 40 45 47
59 64 67 87 88 70 72 78 98 97 92 96 91 81 89 90 92 92 94 80 77 80 84 95 90 86 87 75 53 51 50 50 48 52 70 40 39 36 32 31 33 33 36 42 48
60 63 78 82 87 84 95 96 98 88 96 100 95 86 79 91 90 82 80 88 96 99 100 100 99 89 87 84 67 56 60 90 92 87 63 38 43 27 23 24 29 32 37 43 48
57 70 81 88 87 86 100 87 89 90 99 95 84 64 78 57 80 71 65 85 65 75 100 99 98 100 90 90 95 72 68 76 68 54 48 45 46 28 24 23 34 37 42 48 53
55 67 89 91 73 72 80 99 100 100 97 75 61 59 60 58 72 60 56 59 56 56 83 87 98 89 79 58 75 95 94 47 56 44 42 33 31 32 30 28 32 34 40 48 58
57 62 82 66 74 94 82 93 84 74 61 50 60 57 56 56 56 52 53 51 51 44 39 52 88 68 56 48 46 51 44 64 80 69 41 34 26 26 35 36 31 34 40 49 61
73 78 57 57 77 73 100 92 64 57 60 55 52 50 46 54 50 51 53 52 43 43 37 44 54 71 55 62 57 54 58 51 46 41 45 22 21 22 29 28 34 35 43 56 63
72 72 61 51 80 76 90 83 74 56 52 47 46 46 44 46 48 47 47 47 44 39 43 46 58 73 63 52 48 45 46 42 53 50 50 56 33 22 28 30 33 38 48 62 64
76 71 58 58 82 76 64 58 61 51 48 46 48 47 46 47 55 48 48 53 47 42 41 42 65 78 67 59 51 60 50 45 44 58 88 51 35 24 26 30 32 38 52 61 64
80 76 74 65 73 59 54 55 55 60 48 46 45 43 46 48 43 52 51 53 52 48 48 40 48 55 52 64 56 71 56 51 81 86 48 45 32 31 31 32 30 40 55 62 61
80 72 90 72 58 59 57 53 53 53 50 47 46 43 42 49 46 47 49 53 50 55 44 42 58 53 50 51 55 64 62 59 88 68 87 43 37 28 28 30 34 45 62 69 64
96 92 89 75 60 56 64 55 58 54 58 47 47 44 41 41 38 46 46 44 44 48 44 46 88 84 82 56 58 73 58 58 62 62 54 48 49 30 29 34 41 48 70 72 66
94 97 98 68 56 57 53 55 55 59 60 58 46 44 46 50 53 49 43 40 39 44 49 51 74 82 61 59 60 74 62 59 58 53 54 68 43 34 35 38 45 63 73 70 64

GFSSW_850_rhum_066.txt.gz
RH
84 77 81 82 79 80 79 79 77 75 83 88 78 73 87 83 76 60 70 88 83 92 53 71 88 90 87 76 55 51 67 83 70 49 32 20 21 20 19 18 17 17 38 64 72
87 81 77 77 78 75 75 72 83 77 82 74 78 76 74 74 84 87 67 65 76 94 79 70 82 90 86 78 57 46 62 56 40 30 30 24 22 21 20 20 18 19 38 59 53
96 89 89 82 79 76 79 75 66 74 86 87 69 78 74 78 90 60 39 62 75 85 86 72 63 80 82 64 54 46 56 41 32 32 32 26 22 22 21 26 19 17 29 59 68
84 82 81 76 80 80 75 80 73 69 76 83 82 81 79 83 72 70 48 26 70 85 86 74 59 71 75 66 53 50 42 36 27 34 33 27 23 22 20 21 22 25 33 52 62
98 89 88 82 75 78 79 77 74 86 85 71 75 75 80 85 69 54 77 78 88 88 88 74 57 64 71 60 48 52 40 33 31 41 39 30 29 27 24 26 30 32 32 33 44
95 84 92 89 85 86 72 79 77 75 82 78 72 70 79 74 56 51 55 66 99 94 89 67 60 51 52 53 54 44 42 35 33 44 37 33 31 27 25 24 29 30 30 30 31
99 97 82 84 85 77 89 90 81 88 82 77 75 82 91 72 53 72 68 62 98 89 92 67 59 45 53 53 53 44 47 43 35 44 43 40 41 38 27 27 27 28 28 26 26
96 85 79 83 80 84 77 81 73 65 58 63 78 91 89 66 62 61 70 70 92 100 93 66 54 56 52 53 54 62 49 61 41 39 41 43 52 36 31 31 29 27 24 24 23
87 93 77 70 74 87 70 70 66 61 58 59 96 96 67 60 68 61 59 69 85 89 82 69 58 66 58 76 75 67 73 62 49 38 38 42 45 33 29 31 30 27 25 22 21
91 80 79 79 66 84 79 59 57 69 80 91 90 89 73 57 58 59 71 70 93 88 83 76 66 80 74 83 87 73 68 47 46 40 40 48 49 31 28 28 26 24 22 22 23
90 85 72 75 87 90 70 80 82 83 76 66 67 69 65 78 69 76 77 75 97 100 97 80 86 88 76 66 51 42 47 47 36 36 44 46 45 36 27 31 32 27 24 22 23
74 78 70 62 84 84 80 74 90 88 72 64 65 68 80 86 86 87 83 98 96 96 78 86 87 60 52 56 53 45 44 44 33 40 42 42 41 31 29 33 30 29 27 24 23
55 72 59 70 76 85 89 96 87 85 97 81 88 91 97 93 95 95 93 93 84 96 70 74 68 56 53 52 56 43 44 39 43 44 39 39 42 39 31 28 29 30 30 29 28
52 59 58 67 84 81 68 58 66 76 99 94 79 92 97 90 88 95 94 98 86 64 64 66 67 69 80 76 52 61 34 34 47 56 58 42 42 38 35 35 31 29 29 33 36
56 59 61 73 92 71 66 72 78 98 93 77 88 88 92 91 93 89 100 85 78 69 74 98 82 80 88 82 57 47 39 45 52 57 50 50 58 37 38 40 38 34 38 41 40
54 59 74 89 94 86 81 100 94 97 96 97 92 90 88 84 88 87 94 82 67 69 84 94 87 83 89 86 87 51 54 54 51 60 90 55 53 50 43 39 39 39 43 46 47
52 66 74 94 96 96 98 93 98 93 93 94 97 88 88 92 92 86 88 89 85 96 99 100 99 91 88 97 81 67 68 94 96 96 88 44 53 44 33 32 37 38 39 43 49
50 62 67 80 93 98 95 99 89 82 99 84 80 55 71 64 79 80 90 95 77 83 100 96 95 99 85 91 92 72 71 94 76 88 73 44 62 39 30 30 31 36 41 46 52
50 56 76 74 72 91 97 95 98 98 94 78 62 63 58 60 65 60 60 81 85 79 98 100 100 94 90 79 78 96 94 51 70 45 78 57 39 34 28 42 37 37 43 49 57
50 69 76 58 76 89 90 87 86 70 57 51 60 51 56 54 55 53 55 50 55 56 51 69 98 96 93 86 77 88 63 74 93 74 62 47 45 43 42 42 38 41 42 51 60
57 82 60 51 75 79 98 83 62 52 56 54 51 47 46 52 49 48 53 51 41 42 41 48 65 88 72 89 87 94 92 68 56 54 80 48 40 30 38 37 38 39 43 52 61
71 89 57 60 90 77 92 80 68 51 48 45 47 46 43 45 47 47 54 53 43 40 46 51 66 81 68 52 47 52 52 53 88 61 71 82 50 29 32 36 37 39 46 60 64
80 67 63 66 93 93 67 57 57 49 46 46 46 46 45 45 52 47 52 52 46 49 51 47 78 90 71 64 52 62 55 50 61 78 90 88 55 34 38 38 33 40 51 61 64
77 88 73 62 64 66 57 53 54 58 50 44 43 43 45 48 42 54 57 52 51 49 45 46 52 62 81 76 71 77 62 56 83 96 72 77 39 38 40 39 34 43 53 60 63
72 73 85 92 62 63 55 54 53 51 51 45 46 44 45 49 46 48 52 58 50 48 46 53 64 55 51 50 57 70 65 65 89 76 78 56 38 34 35 36 34 45 54 62 64
86 93 89 79 63 58 64 55 57 50 54 47 51 41 39 46 44 46 47 49 53 52 46 54 92 88 88 53 57 73 63 64 70 70 70 61 59 39 33 34 41 49 62 70 68
46 84 89 72 58 62 62 61 58 57 56 52 54 46 49 52 51 47 44 39 41 50 55 58 86 93 78 59 62 82 71 68 65 62 66 76 53 37 42 41 45 58 68 72 68

GFSSW_850_rhum_069.txt.gz
RH
98 97 83 81 76 76 75 74 76 74 73 78 85 77 75 80 85 75 58 67 86 72 70 72 62 85 82 87 72 73 93 91 77 66 51 38 37 20 18 18 24 48 52 59 71
99 96 87 91 84 76 84 84 81 68 67 76 76 80 76 83 72 68 56 42 72 74 65 73 63 94 91 81 60 62 81 67 50 52 54 45 29 32 20 20 45 53 56 56 58
99 97 87 80 82 73 75 77 81 80 65 69 71 74 69 71 76 54 66 63 58 78 80 76 56 92 90 80 64 56 64 54 49 48 59 46 32 28 23 24 21 57 40 39 40
96 88 92 98 93 85 75 79 78 72 71 76 73 74 77 81 77 70 66 46 42 78 82 85 63 87 88 83 69 55 47 45 42 41 50 50 27 23 23 31 24 24 31 40 46
96 99 97 98 99 88 60 72 79 72 71 67 73 70 67 77 61 53 65 79 78 80 76 86 66 76 86 75 61 63 48 41 41 39 40 37 30 30 26 32 30 46 57 57 55
99 91 94 81 89 84 76 63 79 76 68 77 80 70 70 88 40 59 55 67 79 92 77 76 68 66 71 67 70 53 53 49 39 42 39 34 33 29 27 30 28 29 30 32 41
98 99 83 96 83 84 79 74 70 66 72 69 77 75 85 64 61 80 79 68 74 100 90 78 63 61 54 59 58 60 58 53 45 45 44 35 38 36 28 28 30 29 28 28 29
97 88 77 96 70 82 72 58 57 59 58 59 82 82 86 47 47 57 63 66 64 87 91 73 65 59 53 54 60 67 55 70 47 47 44 36 49 39 29 31 30 30 28 28 26
98 68 63 72 70 78 50 57 59 58 57 62 75 83 80 64 64 51 57 60 67 97 93 73 70 62 59 73 83 76 89 73 53 46 49 43 51 36 31 30 32 31 29 27 24
85 60 59 73 77 70 58 60 71 77 75 83 85 81 67 70 64 65 64 64 74 92 91 86 68 83 78 86 87 92 82 67 65 49 47 52 51 39 31 30 32 31 30 27 25
58 41 45 57 73 77 74 80 77 76 76 68 66 71 71 72 62 63 70 66 84 88 91 88 88 92 75 76 63 68 71 59 52 44 49 50 50 44 37 31 32 29 28 25 24
54 51 46 54 52 54 62 76 88 92 81 75 70 76 81 82 77 86 88 81 96 93 92 91 90 74 65 70 71 59 66 63 44 38 47 50 51 46 40 34 30 28 27 27 27
58 54 48 50 54 68 58 65 73 78 96 95 88 85 77 88 95 83 82 92 85 91 88 94 73 61 68 73 78 65 71 61 47 47 43 45 55 48 40 32 30 30 30 30 29
58 58 62 55 57 68 69 64 72 77 97 96 93 93 89 88 97 91 83 95 86 90 84 89 67 67 74 69 62 74 51 47 54 60 72 44 66 43 40 40 35 31 30 30 31
58 60 71 74 71 80 85 73 83 92 92 91 93 95 96 91 84 96 87 88 89 89 80 98 80 86 91 77 80 69 49 44 55 60 56 54 60 47 39 47 41 35 31 35 37
54 64 70 78 95 98 98 94 85 87 91 98 95 86 82 78 89 94 90 91 67 78 83 93 85 88 89 89 87 83 61 57 61 69 91 66 65 55 52 40 42 41 44 42 45
50 63 68 72 86 96 98 89 90 95 82 85 96 85 92 95 86 81 87 84 88 94 96 97 98 87 84 88 83 89 88 98 94 95 92 58 66 50 37 38 42 52 47 47 51
50 59 70 72 85 95 94 91 90 83 97 79 86 76 78 77 89 84 83 92 83 86 92 97 100 97 84 85 95 97 79 88 87 97 85 50 77 52 37 33 39 42 44 48 55
50 56 65 70 82 88 92 96 89 93 91 79 64 72 67 65 78 85 86 90 84 79 88 98 95 90 86 78 87 98 96 63 71 59 81 65 46 35 45 47 45 46 47 54 60
52 70 66 62 80 82 86 93 91 78 68 61 66 52 63 57 64 65 65 71 77 74 69 87 96 90 92 88 83 95 72 79 92 76 72 66 54 54 52 51 46 49 50 55 60
65 77 63 61 83 68 95 89 72 58 56 62 63 52 48 54 50 56 63 52 49 64 66 73 77 99 96 98 98 96 98 80 63 69 81 59 51 37 41 45 44 45 46 57 62
61 91 61 66 82 89 95 86 68 59 52 55 51 51 53 48 51 60 66 56 47 46 56 54 76 96 78 79 65 71 83 74 85 65 73 87 64 33 39 43 38 44 49 58 62
76 71 67 73 95 94 72 70 65 57 51 51 50 48 47 49 57 53 65 54 48 53 54 53 80 93 77 68 58 67 61 69 62 76 87 86 62 40 44 44 42 47 53 60 63
74 94 58 69 64 70 76 68 60 56 59 47 47 45 49 50 45 58 65 53 50 50 47 49 67 72 84 70 75 80 68 62 72 87 71 81 53 49 48 44 39 43 44 57 63
49 90 92 98 84 84 69 64 67 61 54 48 52 50 52 55 50 57 61 62 54 48 48 58 69 56 54 54 66 72 68 74 79 69 76 58 52 45 46 46 38 38 55 63 64
58 77 72 85 78 76 70 68 59 62 57 62 57 59 46 51 53 54 58 63 64 57 52 64 90 83 83 59 58 72 70 72 76 68 67 68 68 45 34 35 49 44 57 64 64
34 68 89 73 77 75 72 66 69 72 59 55 59 69 54 57 55 50 46 45 50 63 63 71 84 90 88 66 66 78 72 69 71 69 62 75 55 43 44 46 52 54 58 61 66

GFSSW_850_rhum_072.txt.gz
RH
97 96 95 85 80 74 78 77 79 79 67 67 77 81 80 81 92 83 70 40 70 79 78 76 66 70 97 72 69 86 90 81 68 75 57 58 66 37 24 23 26 45 61 64 74
96 88 89 86 86 75 80 79 76 79 80 62 77 78 76 78 84 80 62 46 75 80 82 74 73 66 98 83 73 88 96 78 55 56 75 70 66 50 30 41 73 61 65 73 73
98 99 100 90 100 85 82 86 76 80 78 66 68 68 74 76 80 65 69 55 44 84 85 67 68 68 84 87 71 67 78 58 52 51 79 77 69 61 40 29 56 64 67 69 66
91 99 99 93 87 82 83 81 74 79 63 65 69 64 71 77 81 64 74 80 66 62 82 79 75 81 89 94 73 67 53 54 57 73 71 84 75 58 32 30 25 23 33 49 60
87 98 99 95 81 76 73 61 80 70 66 66 67 66 74 78 72 72 57 64 77 54 80 84 76 84 87 81 72 65 52 49 46 58 58 65 81 63 32 39 24 41 51 41 49
97 91 98 96 82 76 69 48 66 59 63 77 71 64 74 85 70 79 66 80 89 89 83 88 73 74 74 74 73 63 56 51 48 43 43 70 66 57 34 36 57 59 63 61 58
93 64 99 84 70 74 52 56 62 56 66 66 64 66 70 48 61 70 72 80 87 85 82 80 68 71 67 62 64 65 65 63 54 47 44 36 54 55 31 32 31 30 31 34 46
68 71 89 81 79 60 53 59 56 55 59 64 69 66 52 61 62 56 60 66 68 82 91 79 74 54 62 57 65 76 72 78 52 50 44 36 51 35 30 33 32 31 29 28 27
64 53 67 74 73 57 56 54 57 55 58 62 73 76 64 60 62 66 55 59 63 83 86 85 74 65 60 73 88 81 88 74 58 49 50 42 46 37 29 34 29 31 30 28 27
60 48 62 68 58 60 66 69 72 76 81 85 85 74 64 71 66 76 60 57 67 90 89 94 74 80 84 86 91 95 84 70 66 55 53 55 53 41 35 34 31 29 31 30 28
53 54 56 60 52 55 68 74 77 72 80 71 70 70 70 70 71 78 63 58 79 85 88 92 92 90 82 72 67 77 71 70 60 48 52 58 55 47 38 38 36 30 31 30 28
54 54 50 56 53 48 39 54 90 85 82 80 78 79 77 81 82 78 74 79 85 93 95 95 90 74 71 69 70 78 79 71 51 43 52 54 55 47 42 41 34 31 31 30 26
55 55 60 55 63 58 50 52 61 79 92 98 96 84 82 90 89 89 84 85 84 94 93 85 72 66 71 79 79 75 74 65 58 50 47 54 62 58 48 42 37 32 30 28 28
54 58 64 62 66 68 69 66 73 69 95 98 96 92 91 86 91 75 92 87 88 98 91 84 67 72 77 81 76 83 58 57 52 61 80 46 79 51 53 46 43 36 33 31 31
52 58 64 70 71 82 90 94 89 94 92 96 93 94 92 92 93 92 82 84 85 93 93 96 81 77 86 78 65 69 74 56 57 65 59 56 68 58 38 54 45 43 34 32 33
50 58 64 69 84 92 98 93 89 81 92 96 90 82 88 82 94 93 91 91 85 83 85 92 82 88 90 89 89 86 58 66 68 79 93 65 68 65 48 43 42 39 34 33 40
48 58 66 74 81 93 98 93 84 92 74 83 95 85 81 86 87 86 94 96 97 98 99 97 97 87 79 82 76 81 77 98 98 98 93 64 71 46 42 39 38 45 39 43 43
48 57 58 72 83 98 97 80 89 82 88 80 83 78 95 82 88 82 81 91 81 78 95 97 100 94 83 83 83 94 88 92 89 96 83 58 82 54 39 34 33 35 44 51 53
48 58 60 63 84 98 93 91 83 91 84 90 72 69 74 86 88 87 83 87 84 80 86 90 93 84 84 81 75 96 99 75 73 71 88 69 58 40 48 50 54 54 52 56 59
56 67 68 69 82 86 85 91 90 77 78 74 76 55 67 67 86 92 89 76 80 78 70 85 98 83 81 86 87 91 84 98 92 83 79 68 64 56 58 60 54 55 61 60 63
53 73 72 79 90 67 94 94 79 64 64 66 65 63 50 55 55 65 68 62 62 68 71 81 78 93 92 96 81 96 100 89 70 72 83 68 59 44 52 53 53 55 59 61 63
47 81 72 80 81 92 92 86 67 65 56 60 56 57 57 52 56 63 66 61 50 51 70 64 81 92 89 77 76 76 89 76 91 83 77 86 56 39 43 50 47 51 54 58 57
61 70 66 77 93 95 77 75 69 60 56 52 54 49 49 54 57 56 64 54 50 52 62 60 81 98 96 74 77 100 90 80 73 79 87 80 54 43 48 46 43 45 49 58 62
64 83 47 65 74 75 82 73 58 60 58 52 52 46 52 53 47 58 65 54 51 50 49 51 73 72 83 69 78 84 78 89 94 97 80 87 52 45 49 48 49 49 50 57 61
41 97 85 91 69 88 82 71 71 66 57 53 56 52 60 60 53 58 64 63 54 52 50 56 70 61 60 64 70 72 73 77 86 78 82 64 61 45 45 47 46 44 50 59 62
42 62 66 77 76 83 77 77 79 71 64 60 63 67 67 60 53 56 66 66 64 58 55 68 87 81 80 63 59 74 72 76 74 69 69 64 68 49 37 41 40 38 44 51 61
36 59 80 65 78 78 72 57 66 70 65 58 63 72 71 55 57 52 49 49 50 66 67 73 85 86 79 68 67 76 69 69 74 72 62 75 51 45 48 40 42 38 41 52 60

GFSSW_850_rhum_075.txt.gz
RH
86 97 98 99 89 94 76 78 67 71 75 81 60 72 85 80 88 95 73 44 70 80 82 69 75 76 91 84 74 74 84 70 67 69 64 64 70 55 46 38 51 55 68 68 81
93 96 91 99 92 87 81 80 65 76 73 76 60 75 78 85 87 89 68 61 45 86 90 85 79 70 87 85 85 90 81 73 55 57 59 70 70 67 60 47 53 72 76 80 82
95 96 100 97 93 82 80 66 64 75 78 66 66 63 76 79 89 81 67 74 44 84 89 89 80 68 86 88 77 84 79 60 55 76 82 78 73 72 65 40 34 88 75 79 82
98 98 98 98 98 76 72 42 63 74 60 63 68 64 59 76 90 86 89 82 84 66 97 87 83 74 86 88 74 75 63 61 74 89 83 76 80 74 69 56 47 46 67 68 73
99 97 98 84 77 74 72 50 74 64 61 62 65 60 77 80 77 78 76 70 60 82 82 93 82 76 83 84 76 64 58 56 84 77 72 71 72 74 73 46 43 40 53 57 59
95 96 92 74 70 70 66 50 71 57 58 65 67 61 63 74 79 76 81 77 56 68 66 89 76 72 73 80 73 66 56 72 73 77 61 76 73 80 57 48 48 58 58 61 57
77 72 92 71 52 48 52 54 63 64 57 67 66 62 57 57 70 85 79 89 78 78 60 82 71 72 72 73 68 68 70 68 59 63 68 78 94 88 58 52 51 69 61 59 60
61 44 66 73 50 49 51 56 59 61 49 66 65 66 52 65 67 61 62 76 85 87 79 83 79 70 67 68 75 79 70 84 58 52 57 68 76 79 59 55 45 34 36 48 57
49 41 51 60 58 57 54 53 55 57 59 71 78 75 61 66 66 59 60 63 68 82 81 81 86 67 64 84 88 86 90 82 64 52 51 48 52 66 60 57 43 32 32 31 28
52 46 49 52 62 63 66 72 69 77 77 83 79 68 61 71 71 67 58 63 65 72 90 98 81 83 86 87 86 98 87 73 67 59 55 55 50 44 42 40 36 32 31 31 28
52 50 41 46 49 47 59 71 71 67 77 95 86 72 76 82 81 69 62 63 62 82 91 98 91 85 89 68 70 77 70 71 59 51 57 58 53 47 40 39 38 35 33 31 30
52 54 51 47 52 48 49 50 67 70 81 89 83 83 78 85 79 75 67 79 78 96 90 94 94 75 73 67 71 75 77 72 55 46 53 57 58 50 44 44 39 35 33 32 31
53 55 55 49 52 59 53 62 74 87 88 97 96 93 78 83 79 85 81 85 82 94 96 97 77 69 75 77 80 76 78 70 59 51 49 53 59 54 46 45 41 38 35 34 33
50 57 58 60 62 67 70 66 70 73 98 98 93 82 83 82 90 82 86 87 86 94 94 83 70 76 82 83 77 87 63 60 54 61 74 52 86 58 49 49 49 40 36 33 33
50 58 60 66 69 84 92 96 82 90 90 93 90 93 87 91 83 86 91 86 85 89 93 98 82 86 86 79 69 75 71 63 60 66 65 59 74 64 43 60 52 44 40 36 33
50 57 64 71 81 90 98 94 90 81 84 98 92 82 92 89 90 88 91 90 84 88 88 92 84 86 88 87 74 76 62 70 83 80 93 70 73 73 53 45 40 42 40 36 34
48 55 63 77 85 97 98 93 83 90 68 82 96 87 83 84 86 81 87 92 94 99 99 99 96 87 80 82 73 72 87 98 98 98 94 68 71 54 45 40 40 39 37 37 36
49 54 63 69 88 99 97 80 86 75 89 74 82 82 92 76 84 90 89 95 88 79 97 98 99 96 86 79 80 86 75 92 89 96 84 72 85 61 45 38 36 33 32 36 43
51 64 69 76 87 98 90 92 79 84 76 91 73 79 94 81 84 84 82 88 82 78 80 92 97 84 81 85 78 93 99 71 77 75 91 74 62 43 42 46 44 47 44 46 50
58 64 74 84 92 89 84 93 89 72 74 80 83 61 72 94 94 94 88 78 80 80 68 78 97 81 83 83 86 84 81 94 96 95 87 72 71 53 45 52 63 69 64 60 58
70 66 74 89 92 68 92 90 81 66 70 69 68 70 57 68 84 90 81 64 68 81 71 76 76 91 83 96 87 98 98 98 95 81 80 74 60 50 45 48 64 65 68 66 63
49 79 70 78 77 92 86 82 68 68 62 64 63 62 59 54 59 70 75 62 54 69 80 74 81 90 86 76 72 73 78 88 96 87 84 86 66 38 46 50 55 61 64 62 62
53 67 62 75 90 94 79 77 71 65 58 54 57 52 52 58 59 58 66 56 52 59 64 65 89 98 98 91 86 95 81 85 95 80 88 81 62 42 48 52 53 59 61 61 63
52 66 42 61 72 79 85 75 69 63 63 57 54 50 54 58 53 57 66 57 52 53 51 56 75 74 79 67 83 99 93 86 96 98 83 83 55 40 44 51 52 53 56 59 60
36 84 70 78 58 86 87 77 77 71 62 55 58 56 67 69 58 62 63 64 58 51 56 57 74 77 68 64 76 78 79 89 94 85 88 66 71 51 41 48 47 47 48 57 60
39 52 65 71 73 82 77 77 80 74 73 64 67 64 70 71 57 57 68 68 64 61 63 70 82 81 84 64 74 79 74 81 90 86 89 79 67 48 39 42 44 45 52 56 57
42 50 75 60 76 73 76 56 59 70 65 68 71 78 80 69 56 54 53 54 53 68 71 75 86 85 82 72 67 79 67 69 74 70 70 84 58 44 50 46 42 43 47 48 45

GFSSW_850_rhum_078.txt.gz
RH
96 94 91 98 99 92 73 72 76 64 74 80 65 61 76 87 91 100 85 58 70 89 85 77 85 79 84 86 80 80 80 82 74 63 55 67 62 58 48 48 40 60 77 73 78
98 99 98 98 100 84 67 76 60 76 77 77 61 63 78 88 85 88 91 84 60 89 90 82 69 73 85 84 82 85 83 70 57 64 69 72 68 68 58 54 53 63 97 85 82
98 95 98 84 92 66 65 40 66 78 67 65 67 63 74 81 83 85 86 89 82 73 96 91 74 69 79 83 83 85 78 63 84 84 69 73 75 69 69 55 50 61 51 100 90
94 92 98 77 66 66 60 41 75 67 59 60 63 68 68 76 83 92 96 95 94 80 97 95 86 71 82 90 77 82 67 64 86 85 72 76 73 69 71 59 53 48 51 93 96
92 90 93 80 60 44 39 43 67 61 67 61 64 62 74 79 77 82 81 74 77 93 87 86 85 73 75 75 71 62 64 75 78 73 70 70 76 76 63 54 52 47 56 65 63
93 82 86 66 46 42 40 42 47 49 59 66 66 62 66 64 77 73 78 64 67 88 81 86 79 68 69 71 71 61 59 82 81 73 74 76 83 77 50 50 51 49 56 75 59
83 44 69 59 45 47 47 43 42 49 52 59 67 62 62 67 72 74 71 72 68 67 79 86 73 73 74 81 71 66 87 80 85 82 79 81 81 86 61 61 59 51 44 74 59
67 47 47 55 49 50 50 46 47 46 44 58 63 63 60 73 73 68 63 76 82 88 65 80 76 75 71 76 73 74 75 90 78 82 85 76 87 75 59 77 63 56 46 50 67
58 50 47 46 50 57 53 53 54 54 55 69 68 75 62 67 68 65 66 66 80 86 63 79 82 75 68 88 90 86 94 83 82 75 86 79 72 65 70 70 75 64 57 39 56
56 55 44 43 44 54 62 65 70 75 74 74 74 62 65 79 76 69 70 71 69 79 68 82 84 84 83 91 84 91 85 80 76 67 77 87 56 74 78 70 78 73 60 42 32
54 56 51 48 44 41 57 69 66 66 82 92 88 75 78 86 82 70 68 77 71 79 86 94 91 92 88 69 72 78 76 78 62 56 62 74 59 72 73 85 86 68 56 38 32
53 58 54 47 51 47 48 52 70 74 84 87 81 79 83 86 72 70 72 72 72 90 88 95 90 75 73 66 74 76 78 75 59 52 62 63 61 51 50 63 62 58 46 33 29
51 58 59 57 54 58 52 59 64 70 88 89 84 83 78 80 84 76 88 78 87 95 95 99 79 74 72 71 78 78 81 74 63 53 58 59 63 60 49 43 44 43 38 36 33
50 58 62 64 66 65 70 64 68 69 94 98 86 80 79 80 83 88 88 84 84 97 95 92 73 79 81 82 74 82 66 65 60 64 80 53 84 62 48 50 50 44 41 37 36
49 58 64 70 72 80 90 97 85 79 91 88 85 84 76 84 77 84 86 74 87 92 94 98 83 86 87 79 66 72 68 65 62 72 67 64 77 61 48 54 45 38 41 37 36
47 59 68 78 84 92 97 94 84 81 93 95 89 85 94 84 90 78 85 84 82 84 89 92 85 82 84 86 67 72 70 77 84 78 90 75 77 74 57 46 40 39 37 33 31
46 58 68 80 90 98 98 96 83 92 67 87 97 84 79 87 91 81 84 92 91 91 100 98 95 85 79 85 75 71 78 98 97 97 90 70 82 57 48 41 39 36 30 29 36
47 62 72 81 92 99 95 82 88 75 87 70 80 80 87 74 76 80 87 96 89 85 98 95 99 96 83 78 84 81 80 92 88 96 89 72 89 60 45 40 35 32 31 32 32
53 70 84 88 93 99 88 90 78 80 74 88 78 91 81 81 82 85 73 88 86 84 91 94 98 84 81 84 81 97 96 63 85 80 91 76 67 47 44 44 40 40 38 36 34
54 69 85 96 98 98 86 91 87 67 70 83 78 65 83 90 90 95 87 74 81 75 65 72 96 82 87 79 85 83 80 92 96 97 91 74 70 60 40 38 44 55 54 46 44
64 67 81 93 94 77 88 91 82 69 72 74 70 71 62 90 88 89 84 70 72 86 72 73 74 91 86 96 93 97 97 92 83 82 87 78 62 51 45 40 43 54 57 57 52
47 72 67 78 77 93 90 77 68 69 70 73 66 64 64 57 74 91 79 66 65 78 84 71 81 97 82 81 71 73 76 85 94 86 87 88 60 37 42 48 46 57 63 61 54
47 56 60 61 87 93 80 76 75 68 61 57 61 61 55 61 64 69 68 56 59 73 74 73 89 100 99 86 87 97 85 76 87 84 93 89 72 39 47 49 54 62 64 62 59
38 60 35 52 67 83 92 77 76 62 71 58 57 55 58 64 62 59 69 60 56 59 56 63 81 78 81 68 83 96 88 82 91 94 77 81 67 45 40 45 52 60 60 61 62
33 76 60 76 56 81 86 84 82 81 68 61 62 62 64 74 62 68 64 65 62 54 62 65 85 78 70 62 83 88 86 86 96 86 96 73 70 52 45 42 40 41 55 65 68
32 46 65 64 70 77 76 79 72 72 73 77 74 77 71 77 63 60 66 72 68 66 71 69 86 81 88 64 79 87 81 86 87 87 84 77 77 58 48 44 42 40 53 64 63
36 44 48 60 73 64 71 60 56 63 47 66 53 53 80 84 69 60 52 56 58 73 76 79 84 88 87 74 70 84 73 72 76 83 78 90 69 52 54 51 42 42 49 54 53

GFSSW_850_rhum_081.txt.gz
RH
98 99 100 92 97 82 68 72 46 54 68 71 70 58 69 77 86 91 98 72 70 87 86 73 89 82 88 92 78 78 85 74 62 55 54 66 55 60 48 48 66 85 97 97 90
99 99 98 97 87 66 66 42 56 66 66 64 62 61 79 86 85 88 92 86 96 95 87 76 83 79 86 87 87 82 84 69 56 57 67 68 65 66 54 45 52 48 58 98 100
99 87 96 99 70 63 54 64 74 63 56 57 63 61 74 90 94 87 66 89 94 94 91 82 80 68 81 87 86 87 77 69 86 75 64 69 72 64 60 49 59 62 50 79 100
99 87 91 99 46 41 36 91 69 57 57 56 60 64 61 79 87 94 92 92 97 98 88 90 77 72 80 89 81 84 72 74 90 79 70 75 71 66 61 57 58 53 51 62 98
99 76 90 76 45 42 42 44 60 53 56 60 57 56 66 73 71 88 82 79 82 94 80 94 82 72 79 81 72 64 72 78 80 69 71 70 77 66 62 56 53 50 46 60 90
87 60 96 85 44 46 48 42 45 49 56 56 52 52 54 66 70 71 77 80 80 81 82 92 81 66 64 79 72 59 75 87 73 73 71 69 81 72 62 59 47 45 44 49 72
87 61 49 79 54 49 48 47 47 49 47 50 52 55 66 70 65 73 66 80 76 74 80 84 80 70 72 81 69 63 86 80 85 78 81 58 64 70 67 59 55 44 45 48 48
63 64 44 45 48 53 50 47 44 43 42 58 58 53 66 72 70 65 63 76 80 75 80 80 74 73 74 77 76 72 79 89 83 79 88 56 70 56 60 56 59 49 49 50 44
55 69 45 42 45 50 57 50 58 58 64 69 63 60 63 65 67 67 68 80 80 86 76 80 80 75 73 85 87 80 90 82 92 76 87 71 72 54 58 62 62 58 53 53 48
51 58 51 43 43 42 55 59 61 70 74 69 71 56 73 86 72 74 74 88 81 90 79 92 79 84 82 88 89 92 86 77 86 84 87 84 83 66 70 77 66 60 58 56 52
47 56 54 46 48 46 47 61 61 62 81 89 86 80 82 78 74 72 77 80 92 76 88 96 91 86 86 69 70 70 70 65 66 63 81 85 76 68 81 72 66 65 59 59 50
38 55 56 54 51 55 50 53 59 69 81 84 82 83 87 80 70 71 88 84 89 93 83 91 89 75 74 67 73 72 77 76 62 60 70 74 82 62 76 76 69 63 55 54 52
32 53 57 58 57 59 58 57 61 68 86 87 85 81 82 77 84 83 89 81 84 83 96 100 88 72 72 75 78 79 79 74 70 57 57 66 72 65 57 70 67 57 55 52 52
30 53 59 64 70 67 72 66 64 69 94 97 87 79 80 76 77 86 89 82 85 91 91 92 77 75 79 77 71 82 68 65 62 69 85 56 84 65 57 68 58 59 43 46 44
27 55 64 72 76 85 92 97 89 76 88 77 86 73 77 71 76 76 86 78 89 91 95 97 85 85 86 78 60 71 68 66 63 70 69 67 74 62 52 59 51 48 47 40 43
30 56 66 78 89 96 96 93 82 82 94 92 87 84 89 87 86 74 83 80 80 81 86 92 86 78 80 83 68 70 72 75 79 74 90 74 70 68 56 44 40 41 42 40 37
40 60 71 80 94 97 97 92 82 93 68 84 82 79 80 91 84 77 84 90 83 95 100 97 94 84 78 84 75 66 76 92 94 95 90 73 80 57 45 45 39 36 34 34 35
51 67 82 87 95 97 89 80 88 75 87 69 78 74 88 81 75 84 83 93 88 88 98 99 99 89 81 78 84 81 77 87 93 92 83 72 79 57 46 42 39 35 33 33 33
59 72 83 90 96 98 86 90 77 79 73 84 77 92 80 84 80 74 82 80 88 84 89 90 94 82 81 83 79 87 89 65 83 80 84 67 62 44 41 38 38 37 36 34 34
64 64 79 87 99 97 85 88 86 65 68 84 79 73 83 81 84 84 87 76 83 77 61 76 96 82 84 80 82 80 74 86 95 97 92 71 64 49 38 33 35 36 36 38 37
64 63 71 82 90 76 89 90 80 70 72 79 73 74 65 94 86 84 84 70 74 86 68 71 73 93 90 97 95 95 93 89 78 78 82 75 53 46 44 37 37 38 36 44 45
52 67 66 74 72 93 93 77 70 71 75 78 69 69 69 61 90 93 90 76 70 80 87 69 77 89 87 80 74 73 81 78 86 84 86 76 61 37 39 42 46 44 48 54 57
42 53 57 60 79 92 80 74 78 71 64 61 63 66 61 65 69 78 71 57 72 77 80 75 93 96 97 87 81 89 79 76 81 81 96 89 65 39 44 45 44 53 56 63 57
34 56 37 52 72 80 86 74 78 65 75 66 62 57 60 66 64 65 66 62 68 72 62 66 89 77 77 68 82 98 92 82 86 96 74 76 64 50 45 46 42 41 53 62 56
27 54 52 70 57 78 86 85 85 84 70 68 67 74 72 80 68 73 64 65 66 61 77 86 100 90 79 63 82 84 85 88 96 81 86 67 64 51 47 43 43 41 42 62 61
26 41 59 64 68 73 76 82 74 70 66 73 76 63 78 93 75 100 95 77 72 71 76 70 98 81 86 68 73 85 83 89 84 78 79 72 75 51 48 48 54 56 53 53 59
24 33 44 64 75 57 60 65 61 56 46 55 59 62 75 70 93 92 89 86 74 73 78 82 94 97 94 74 71 90 80 76 73 81 77 90 67 55 60 60 57 55 57 49 42

GFSSW_850_rhum_084.txt.gz
RH
91 89 98 98 85 61 55 36 57 64 67 67 62 57 62 65 74 85 98 87 88 86 78 80 93 90 97 89 84 75 73 55 42 40 32 46 38 55 51 47 56 57 67 88 96
99 88 92 96 79 50 42 80 82 61 55 56 60 60 71 76 89 91 82 80 88 90 88 81 83 80 75 82 83 74 72 50 34 34 34 44 38 46 40 44 47 47 55 93 99
98 92 90 96 40 38 36 90 58 53 55 57 55 60 71 83 87 92 86 80 89 98 96 81 78 70 60 76 74 59 77 48 44 40 41 45 49 56 36 43 50 50 54 85 100
99 98 99 84 43 39 37 45 52 56 58 58 57 59 67 73 73 98 96 90 95 100 95 85 77 66 57 61 69 69 55 55 62 66 53 46 50 47 50 48 56 55 55 72 99
98 99 95 88 43 42 41 36 42 48 56 54 53 55 61 64 74 94 90 89 86 95 94 74 66 58 53 53 66 57 57 63 74 65 60 60 52 39 48 57 58 55 51 56 76
96 100 66 98 76 45 45 42 42 46 48 50 49 53 63 58 74 81 82 86 88 92 97 84 65 57 51 59 55 56 56 61 63 62 60 52 58 58 47 57 54 54 50 49 55
82 100 77 52 58 48 46 42 42 41 40 47 46 61 68 73 71 73 70 75 81 93 89 80 84 69 51 62 58 50 59 63 64 58 56 53 51 58 44 55 50 48 49 44 50
67 88 86 46 47 46 49 44 45 44 42 52 51 58 66 67 66 63 70 78 79 74 82 87 80 78 60 68 61 51 46 60 56 61 60 53 52 34 48 48 42 42 44 45 45
46 66 75 47 44 43 48 52 58 73 65 54 55 57 61 65 62 68 72 82 79 84 82 92 70 74 68 60 66 60 54 50 68 60 56 55 47 36 51 51 42 38 38 42 44
19 55 62 52 46 45 42 54 57 66 63 55 64 60 71 84 71 76 78 79 83 81 88 88 79 64 58 63 64 70 51 49 50 60 59 54 50 41 52 55 43 36 35 42 45
16 50 58 55 48 46 45 55 64 70 81 82 86 81 83 73 73 80 79 84 81 78 83 92 89 64 50 52 47 47 51 51 47 51 56 51 49 42 42 51 46 43 36 36 44
17 50 59 58 52 53 48 54 54 63 75 84 77 84 85 70 65 85 86 83 81 77 81 94 87 49 56 53 50 49 46 48 51 49 59 49 53 43 40 46 46 44 44 36 40
22 52 59 61 59 60 59 55 56 71 74 86 87 86 84 81 82 88 87 90 68 70 74 99 83 56 54 59 55 50 44 49 48 48 53 54 50 47 42 46 48 48 54 44 40
24 54 60 66 72 71 73 64 61 67 96 77 73 73 85 74 76 84 82 77 69 74 74 77 70 64 56 56 50 61 52 50 54 54 59 50 50 43 37 41 43 43 46 48 48
25 56 62 73 79 87 88 92 85 69 83 66 74 67 74 64 74 74 86 86 67 78 75 92 80 67 63 56 48 51 54 53 54 54 55 56 63 36 37 40 39 39 42 45 49
32 56 71 79 88 94 91 83 76 92 89 86 75 71 71 76 68 74 80 84 72 69 80 89 78 58 48 64 56 57 57 55 53 51 66 41 53 37 35 31 31 34 37 43 45
49 66 79 82 92 94 93 88 96 86 68 83 72 68 67 69 71 63 68 72 71 91 100 94 89 74 72 65 61 56 57 78 77 82 59 51 53 34 26 30 28 28 29 34 42
54 73 86 86 97 92 85 73 93 70 83 63 70 65 70 64 62 60 60 67 65 60 97 100 97 85 67 61 68 55 50 56 67 56 44 58 53 30 27 29 32 32 32 34 35
55 67 84 89 99 96 80 99 72 81 72 70 70 79 66 70 68 66 57 51 57 62 70 76 90 78 74 68 62 70 86 52 70 61 63 42 42 33 25 28 29 31 35 36 36
59 69 75 91 99 92 75 86 75 58 61 71 67 61 61 67 75 75 58 47 60 59 56 59 90 80 86 73 73 65 49 76 86 81 66 48 45 29 26 25 23 22 26 29 39
63 73 67 81 86 76 99 78 70 67 68 68 62 62 58 71 70 74 67 56 56 66 57 55 60 91 92 96 97 83 74 70 55 55 60 47 34 26 30 26 27 26 34 43 46
70 68 64 74 76 81 77 70 70 65 76 67 64 61 59 54 74 76 69 55 59 65 71 54 59 85 77 66 61 60 57 57 67 67 59 59 41 28 26 28 32 33 46 59 52
52 68 58 67 72 66 62 62 73 67 61 60 58 57 53 58 63 57 58 54 64 62 65 62 88 92 90 79 76 86 66 62 55 64 87 64 43 29 32 32 37 39 41 56 65
38 58 49 55 66 53 53 58 62 68 67 66 58 54 56 59 51 64 58 55 65 68 64 57 78 64 57 56 56 80 64 61 77 96 63 65 46 31 31 34 34 33 35 44 49
26 42 37 54 42 56 62 67 65 62 68 66 63 62 65 60 56 58 55 54 68 73 73 83 100 79 63 59 66 68 65 65 88 77 79 55 48 40 32 28 28 35 40 46 60
20 38 52 59 63 54 58 54 70 63 59 55 68 55 56 80 72 100 98 88 74 81 77 92 100 100 100 84 69 76 63 61 61 64 60 56 55 36 34 35 39 41 42 47 48
16 19 25 62 54 40 35 53 53 52 43 49 51 58 56 49 61 63 97 99 100 100 95 79 92 93 87 86 95 92 66 61 60 56 58 73 52 38 40 42 44 42 43 47 49

GFSSW_850_rhum_090.txt.gz
RH
95 99 100 99 94 53 35 83 75 52 48 50 51 50 55 66 66 84 90 89 80 90 90 82 85 70 59 83 72 72 83 70 52 38 36 28 38 39 40 44 45 50 72 88 86
98 98 98 99 94 71 45 42 92 70 47 46 43 53 54 76 90 91 91 82 64 83 100 91 81 67 80 78 77 73 82 60 40 50 40 30 33 35 40 45 42 56 81 96 87
98 98 99 97 94 57 47 40 46 67 48 42 39 48 54 71 81 93 86 82 80 91 88 92 82 59 77 78 96 73 73 48 38 52 50 37 29 31 36 46 42 49 80 94 90
94 98 98 83 96 87 54 41 44 43 45 42 39 41 58 83 91 68 80 74 78 87 97 93 78 71 55 80 84 90 64 54 53 56 55 50 35 35 30 43 46 51 70 89 94
62 96 98 95 59 87 58 53 39 41 40 39 38 51 63 58 67 75 76 86 77 85 94 78 70 52 48 59 77 78 70 60 64 59 58 55 47 35 46 45 46 48 64 82 87
36 64 91 93 43 49 52 42 44 55 38 39 40 62 67 57 69 74 78 88 90 94 90 83 74 60 45 43 72 71 71 79 71 57 52 48 46 41 45 46 47 44 50 61 84
26 24 60 79 43 42 44 43 59 68 45 49 37 62 58 61 71 72 78 78 79 85 86 80 78 66 56 38 50 68 77 76 86 64 49 47 50 52 41 44 44 45 44 51 56
39 16 48 63 45 40 40 46 53 63 45 44 55 76 54 61 68 74 81 71 83 93 86 70 66 66 60 43 44 65 80 87 69 54 57 52 60 45 38 41 41 40 42 43 51
32 17 49 54 46 40 40 46 64 67 42 60 62 64 55 62 67 80 81 76 91 73 70 60 57 71 56 55 58 52 76 85 77 73 56 58 52 33 36 36 39 37 34 38 42
28 20 48 54 47 42 42 44 54 65 60 69 60 58 59 63 71 78 78 76 84 74 60 65 81 77 62 69 83 62 50 47 62 68 57 72 56 40 30 37 37 38 36 32 36
28 23 48 53 49 45 45 56 69 63 67 62 65 56 64 70 74 78 76 72 74 76 83 86 95 83 57 50 35 38 42 40 41 52 63 50 48 45 34 42 42 39 37 33 30
28 25 49 56 51 49 54 64 62 70 65 61 61 64 70 74 69 72 74 62 64 83 80 89 84 50 40 39 39 47 40 40 50 51 61 47 48 39 34 34 41 40 37 34 30
31 30 51 60 57 60 76 64 56 66 73 62 67 59 69 72 73 76 70 61 51 62 68 83 78 53 48 44 49 50 50 49 52 44 41 44 51 40 32 28 29 33 34 34 32
32 38 54 64 85 76 81 56 48 66 91 59 52 66 67 67 67 76 78 71 51 59 64 69 58 58 55 54 45 56 37 54 56 52 66 45 70 41 36 35 32 30 31 34 34
31 49 63 72 87 88 86 59 49 70 89 57 59 55 68 58 63 70 63 70 54 54 62 75 71 64 62 46 40 49 40 51 56 52 55 54 68 48 29 39 34 32 30 32 34
29 55 70 81 95 88 71 62 61 94 83 75 55 56 54 52 52 64 65 71 62 49 57 69 69 67 54 47 39 45 50 44 47 56 96 66 61 54 37 29 28 28 29 30 32
40 66 76 94 91 68 64 80 96 93 65 74 57 51 51 51 52 55 62 66 73 91 96 76 74 55 61 68 57 56 63 90 93 91 91 40 54 47 30 23 23 26 25 26 28
55 70 78 98 70 67 82 80 94 57 88 60 56 52 65 47 49 51 53 58 60 61 79 93 93 77 58 69 66 63 63 82 73 75 60 39 59 40 22 22 23 22 24 27 28
64 70 87 88 73 84 93 97 80 83 76 57 51 64 61 49 53 51 53 55 48 52 78 83 76 60 57 50 52 65 75 51 90 61 70 56 40 29 24 25 26 26 27 29 29
64 95 98 87 76 96 90 82 63 48 48 53 60 49 50 55 66 58 54 41 44 37 45 80 96 76 67 63 62 78 60 76 92 90 62 38 34 39 25 27 30 27 28 28 30
75 92 90 79 86 94 93 70 50 50 52 55 53 47 43 44 61 61 56 41 36 37 44 75 92 95 86 88 78 87 97 90 64 62 74 60 46 29 28 33 33 38 38 40 38
87 87 84 76 99 75 93 55 51 46 52 55 53 57 55 46 47 45 58 43 47 50 58 52 95 92 88 77 61 56 69 81 97 74 67 79 63 23 30 30 28 39 44 47 44
85 89 77 92 98 90 47 40 49 51 51 53 53 47 42 48 53 39 40 41 51 70 80 63 99 98 99 95 78 92 73 61 68 80 87 85 60 30 28 28 29 34 31 33 43
60 82 74 79 60 48 38 34 39 51 53 47 46 45 49 48 39 45 41 44 51 54 67 85 89 70 68 75 75 95 77 64 78 98 78 77 55 38 35 34 31 34 32 31 33
55 54 51 82 52 42 39 35 31 38 50 46 50 47 41 55 45 39 32 32 47 83 62 93 99 98 66 55 74 88 71 71 91 89 82 62 58 44 36 34 31 29 31 31 33
44 42 31 39 36 36 50 38 35 32 47 31 40 33 41 47 39 48 49 52 57 86 98 99 99 100 98 89 97 92 70 61 64 68 75 66 62 42 40 39 37 34 32 34 35
37 33 24 38 36 33 34 29 34 41 32 34 40 42 43 46 56 52 50 49 75 89 86 95 98 98 98 98 100 99 92 66 59 55 59 79 57 43 45 40 36 34 34 35 36

GFSSW_850_rhum_093.txt.gz
RH
78 88 93 93 100 100 83 61 48 43 43 72 88 50 53 69 73 84 93 92 83 95 90 72 79 83 85 88 81 74 89 84 65 50 48 36 40 37 44 49 52 71 79 73 74
37 82 86 93 98 84 66 68 41 38 42 40 38 46 52 72 90 81 91 78 83 87 85 88 83 84 75 84 80 89 89 73 59 57 41 39 35 40 45 48 83 86 83 81 79
21 51 77 100 66 92 93 85 49 38 41 40 36 42 61 76 82 69 82 92 74 81 84 86 93 93 80 85 94 82 81 66 74 63 38 42 35 38 46 50 53 97 88 87 82
22 28 54 89 65 56 95 70 90 40 38 36 34 57 68 69 91 74 74 70 76 85 87 93 88 86 84 85 97 84 73 76 74 65 47 58 44 35 42 47 50 64 78 86 86
40 19 39 80 72 41 52 46 58 63 38 31 36 65 64 65 70 72 72 81 77 78 93 86 94 82 80 74 79 86 70 74 88 73 66 54 64 55 49 47 51 60 87 88 83
42 27 27 52 53 38 38 42 56 58 34 38 39 58 63 68 71 72 77 82 78 80 86 76 85 79 76 75 73 82 79 77 80 79 81 61 65 74 49 46 50 67 78 88 85
38 36 23 49 48 36 37 46 58 42 42 43 59 68 66 64 68 74 82 76 82 82 85 95 77 82 64 80 60 70 84 76 66 84 80 68 76 78 48 44 45 52 61 75 86
35 30 26 49 46 36 38 60 64 39 51 57 61 65 59 64 64 68 77 83 77 82 78 72 63 67 62 57 68 82 76 85 76 80 72 85 78 73 49 46 45 45 51 52 67
33 28 28 50 46 38 39 56 60 61 54 58 62 62 60 63 64 71 81 88 70 69 63 58 48 62 57 63 79 69 95 88 80 81 81 72 76 54 43 44 44 45 44 48 47
36 28 31 50 48 40 41 44 63 57 54 62 62 58 60 67 75 70 76 78 63 58 52 55 66 82 74 78 87 74 78 85 83 78 76 84 76 55 42 41 42 41 41 44 49
39 30 34 52 48 43 44 58 69 61 59 64 62 60 66 70 70 70 75 70 64 66 89 87 84 83 73 63 53 51 51 54 61 68 71 78 70 55 42 42 42 40 39 37 40
41 31 44 55 49 48 57 66 74 67 66 58 60 64 71 68 68 63 67 69 69 94 80 84 82 67 60 54 52 48 48 53 68 64 71 73 71 53 46 45 42 40 39 38 34
41 30 52 58 56 58 62 60 62 69 76 66 60 58 63 70 71 67 70 64 67 83 78 80 80 68 61 60 52 51 56 53 71 63 68 73 76 52 42 38 39 38 32 34 36
40 31 57 61 77 74 74 48 58 70 87 66 63 59 66 66 68 68 71 73 54 78 79 75 64 67 69 61 52 63 49 55 61 71 84 52 81 55 42 43 38 40 40 36 34
38 37 62 68 81 85 78 56 47 67 72 53 64 55 62 64 62 66 57 66 63 64 67 74 77 73 70 58 45 54 52 59 68 59 64 58 76 66 41 45 39 38 33 37 33
37 47 70 76 80 81 68 52 64 84 67 77 62 65 65 56 58 66 68 66 63 57 61 72 67 71 64 58 51 48 54 56 56 67 91 72 76 73 48 37 40 36 30 29 31
34 56 78 82 92 69 61 77 90 73 63 72 66 58 56 61 64 65 72 73 82 78 79 82 75 71 60 66 62 55 69 95 94 95 88 60 75 60 43 35 30 36 33 31 30
36 69 84 84 75 65 86 87 67 66 86 60 59 59 68 56 59 66 64 74 68 75 93 93 74 81 66 72 72 73 75 88 81 95 73 51 68 48 35 28 26 26 26 28 31
51 78 85 77 67 73 92 94 68 80 78 71 62 72 70 61 56 59 66 67 52 62 83 95 83 68 62 59 60 68 81 57 86 78 84 64 49 36 31 28 29 28 29 28 28
56 82 81 81 72 93 93 85 65 63 55 56 70 65 64 64 70 72 62 52 56 49 54 72 93 77 68 61 69 72 65 76 97 94 78 54 48 46 28 31 34 40 36 32 32
74 99 99 85 88 97 91 94 58 50 50 61 64 62 51 51 72 67 59 51 44 58 53 75 92 94 80 90 86 91 93 84 76 74 74 60 49 33 35 40 47 49 43 37 32
84 98 100 84 98 96 98 63 51 53 53 59 57 64 67 62 57 52 69 56 53 66 89 79 98 99 98 79 64 65 83 80 92 84 78 80 62 33 37 42 46 47 39 35 34
88 100 99 99 98 95 58 44 54 56 61 64 66 60 50 53 60 50 44 54 52 70 83 85 99 99 99 98 87 98 84 86 88 91 91 80 66 34 35 34 40 44 40 39 37
76 97 91 100 93 62 55 45 53 50 55 54 52 50 56 59 53 55 45 49 44 76 62 81 100 99 93 95 84 99 79 76 95 99 85 86 57 39 37 36 34 35 33 36 43
67 71 56 95 86 53 34 35 41 57 57 47 56 58 49 59 59 55 47 48 59 83 90 92 99 100 96 81 94 96 83 86 99 86 81 61 62 47 44 40 34 34 33 35 37
54 52 55 47 50 52 50 38 41 40 46 40 56 46 44 49 46 59 62 59 64 82 91 98 96 99 98 87 97 85 80 81 81 85 84 79 73 43 38 41 43 40 38 38 35
50 40 26 46 45 46 50 35 45 38 36 39 43 46 49 57 60 58 56 54 67 83 79 90 98 94 93 99 99 99 94 82 66 68 76 91 65 47 51 48 44 40 37 37 37

GFSSW_850_rhum_096.txt.gz
RH
26 79 99 98 79 96 74 40 40 40 41 80 35 39 53 65 69 72 71 80 84 88 98 81 85 94 94 94 98 87 90 84 66 50 42 39 39 44 47 52 64 74 72 73 74
39 74 98 99 86 70 93 64 71 37 38 42 34 40 66 72 75 66 65 95 81 87 83 96 87 84 92 89 98 96 87 75 65 58 42 39 38 44 52 73 94 90 81 80 77
39 51 89 92 97 52 64 60 55 66 42 36 31 59 66 66 77 70 71 97 86 83 81 100 99 82 82 86 97 86 84 78 84 82 61 40 44 42 51 53 86 88 76 87 78
36 50 43 74 93 45 42 40 49 64 40 32 35 62 66 64 86 69 81 84 82 91 75 91 82 82 81 88 92 92 81 80 91 87 70 63 43 49 45 48 50 73 70 80 82
34 39 41 41 74 40 38 40 51 56 37 36 52 54 53 67 70 74 79 86 81 88 86 75 96 84 82 87 89 90 92 85 91 80 75 63 73 62 52 53 61 70 78 76 84
33 32 25 39 54 38 36 46 46 43 38 36 55 56 63 67 67 74 81 82 86 98 82 72 88 86 95 83 76 89 95 82 86 88 80 66 72 52 53 62 68 80 83 84 75
33 30 24 43 50 36 42 47 37 46 40 59 60 55 63 66 64 69 78 82 90 89 64 68 72 85 76 78 75 86 88 85 79 93 86 84 64 65 54 53 72 68 87 90 84
34 31 25 43 49 37 47 51 52 48 56 60 61 62 58 62 68 83 82 84 84 86 74 66 74 81 75 66 69 84 81 95 87 89 86 78 76 64 60 59 57 64 66 86 89
35 34 26 44 49 38 40 54 52 53 56 58 58 61 62 65 68 78 84 73 71 72 71 67 70 70 62 79 84 75 98 90 86 86 88 78 85 59 61 64 56 53 56 57 70
34 36 26 44 49 40 40 45 54 54 54 55 57 54 59 71 71 69 74 66 64 59 55 57 60 72 78 76 88 84 94 85 79 88 86 90 82 73 59 67 52 49 48 50 51
34 38 27 44 48 43 43 51 67 56 58 58 62 60 65 65 67 70 72 64 63 56 79 76 74 76 69 64 58 57 76 75 67 70 76 76 81 75 74 68 49 46 47 47 49
33 41 28 45 49 47 50 56 72 65 63 60 58 59 68 70 68 62 67 68 69 90 80 75 70 78 72 64 58 56 59 63 67 64 71 66 66 60 70 62 48 44 45 43 41
33 42 30 49 52 54 58 54 61 73 70 66 60 53 62 65 68 60 70 65 75 80 76 79 74 69 65 64 58 56 57 67 71 76 72 72 74 67 56 50 46 42 41 39 38
33 42 34 55 59 68 63 55 61 74 84 64 65 54 62 65 62 59 66 71 57 80 75 76 65 69 71 63 55 64 52 51 69 80 94 72 90 58 56 47 46 41 39 40 37
34 41 40 58 76 75 75 50 56 67 55 46 68 56 62 65 59 65 57 68 70 68 66 71 77 82 72 62 54 57 52 62 70 68 63 71 72 68 52 52 43 42 37 34 35
39 38 47 63 72 78 76 53 53 79 45 78 70 76 74 60 60 64 66 64 65 61 66 72 66 73 71 63 57 48 61 64 80 89 94 68 71 70 61 45 37 36 34 31 32
45 37 56 64 75 74 63 59 85 62 62 69 75 67 62 68 66 68 73 72 80 82 84 78 73 71 64 65 60 59 89 99 98 98 92 67 81 62 47 43 34 34 30 30 29
46 48 61 70 84 70 68 81 44 58 83 56 63 61 69 64 65 72 69 83 72 70 95 97 72 82 70 67 71 73 91 92 83 92 78 65 84 56 40 34 32 27 30 29 29
48 74 66 79 74 74 84 98 51 75 74 76 69 74 71 65 56 68 76 71 61 65 92 97 84 68 69 65 62 74 87 60 83 80 87 63 52 39 35 30 33 33 32 32 32
57 82 75 83 74 85 91 82 68 63 62 60 72 70 75 70 71 74 72 59 59 57 52 69 98 74 68 66 74 68 64 89 98 97 85 63 62 48 32 38 36 41 38 34 31
79 79 96 90 79 89 97 79 68 53 52 63 71 68 60 58 72 76 64 52 50 66 59 66 90 88 86 89 88 86 92 81 71 68 82 61 54 36 36 35 44 47 40 35 32
81 98 100 89 96 93 98 87 51 58 55 59 60 64 68 61 61 68 71 61 61 63 64 74 96 98 84 85 84 80 77 70 83 83 78 77 56 37 41 47 50 52 42 38 35
96 100 100 94 98 98 80 47 54 62 64 69 70 66 62 58 61 55 48 56 52 73 82 81 100 97 97 93 91 98 83 80 88 88 88 79 58 38 38 52 48 44 39 36 35
76 99 100 100 98 89 65 53 57 54 60 60 57 53 57 62 57 60 45 50 59 76 74 76 96 98 96 98 98 100 98 84 87 98 87 86 54 41 42 42 46 45 41 40 37
70 78 84 98 97 77 52 49 54 64 54 54 57 54 52 58 57 58 52 54 73 82 86 86 93 94 90 87 99 100 97 98 99 88 85 68 70 51 42 42 35 37 38 37 37
63 66 64 63 56 72 47 44 41 49 61 53 57 46 44 53 49 51 60 60 64 75 82 92 94 97 84 80 86 88 96 97 98 92 80 86 81 46 38 40 44 43 40 37 38
55 43 31 51 55 51 54 40 44 46 44 39 47 48 46 48 56 55 56 55 68 81 80 91 98 90 83 76 91 92 84 90 88 86 89 97 70 50 60 53 50 46 44 41 37

GFSSW_850_rhum_099.txt.gz
RH
34 37 51 94 98 81 92 94 95 79 44 42 41 40 75 70 66 60 71 86 97 86 85 100 94 94 95 92 84 94 97 71 69 47 42 38 44 48 49 61 72 65 80 74 71
34 35 33 47 92 98 60 86 81 81 64 33 34 61 69 66 63 67 81 91 93 81 82 99 68 97 96 88 87 98 95 68 86 72 47 44 44 51 59 78 94 92 80 79 83
33 32 34 18 70 94 45 45 68 55 45 31 38 62 62 55 60 71 82 96 90 85 89 99 99 95 94 92 93 97 89 84 92 82 65 44 49 48 62 61 76 94 100 99 80
34 32 31 19 41 55 40 41 49 42 32 34 57 49 52 62 86 73 87 86 86 94 75 79 93 80 89 82 94 98 93 89 92 82 68 68 47 53 47 47 53 80 59 81 76
33 35 32 22 41 41 37 45 47 36 36 41 57 56 58 64 67 66 76 82 90 95 82 78 88 88 88 84 91 94 89 88 89 78 79 60 73 57 67 62 62 67 72 77 82
31 37 31 23 42 38 39 47 38 37 44 55 58 54 60 71 65 77 72 77 87 85 68 66 74 87 95 90 84 89 96 84 86 84 86 82 66 54 61 81 73 74 75 76 65
30 37 36 25 43 37 42 50 38 37 54 62 61 57 58 63 68 86 75 86 93 89 71 54 67 78 83 90 80 91 92 78 82 84 82 87 66 76 66 87 80 66 68 70 67
34 34 38 27 44 38 44 48 42 46 59 63 62 58 52 56 75 80 76 81 94 92 85 78 67 72 77 83 84 90 91 98 82 81 76 77 83 69 66 60 76 85 70 64 68
46 32 40 28 46 41 40 47 52 51 58 61 58 59 60 60 67 74 73 73 74 83 72 62 72 70 68 82 89 82 98 100 88 85 81 83 85 67 64 61 57 56 74 64 61
73 30 42 30 49 43 38 45 54 57 55 59 58 52 62 65 68 70 65 65 61 60 56 60 61 72 77 73 88 97 93 91 93 87 87 83 83 78 67 64 62 54 51 66 66
88 31 44 32 52 44 40 41 51 52 57 60 62 61 65 63 67 67 63 62 63 53 78 68 80 82 83 77 67 70 78 79 78 79 86 86 86 80 74 66 62 54 49 47 54
98 39 45 34 53 46 44 54 63 59 62 60 57 64 68 64 62 62 65 63 70 73 74 68 73 80 76 64 61 60 74 70 68 75 75 86 85 79 81 73 60 55 52 44 46
99 34 46 40 55 51 49 55 61 70 70 65 61 54 63 63 62 61 65 66 73 80 75 66 70 71 66 62 60 60 63 67 71 79 74 78 81 76 69 66 59 59 53 47 43
99 47 48 56 56 58 55 57 63 73 82 56 71 55 60 66 58 60 64 67 58 78 75 74 68 70 67 65 57 64 54 54 84 86 94 69 77 62 64 68 62 59 52 44 43
99 61 50 69 71 67 65 57 58 60 62 44 71 59 66 66 61 65 58 70 70 72 64 63 76 77 71 64 59 59 57 62 82 72 73 90 81 66 54 68 57 53 49 43 38
100 66 56 73 78 73 74 52 52 82 47 77 73 80 75 66 61 67 68 64 68 63 68 69 68 76 70 63 61 51 69 83 90 84 95 77 80 72 67 51 46 44 40 37 33
100 70 63 79 76 74 69 49 88 84 63 73 82 78 71 69 65 69 72 74 76 84 87 78 72 69 70 71 59 69 83 98 98 98 92 70 82 71 49 46 41 38 32 28 29
99 68 79 87 85 70 54 80 94 47 81 56 67 67 72 69 66 71 72 86 74 67 94 96 74 79 71 69 70 82 92 93 89 95 94 72 86 66 40 36 37 31 28 28 27
94 63 100 95 88 67 69 97 75 63 71 77 73 77 74 68 62 73 80 75 67 75 81 97 83 63 71 68 64 80 93 81 98 81 90 81 57 41 36 36 33 35 35 34 32
98 92 100 94 83 82 89 93 69 62 65 65 64 72 77 74 73 78 72 63 61 66 57 70 96 72 69 73 80 73 72 91 98 96 92 72 63 51 33 35 36 42 37 33 32
100 97 100 89 85 84 98 89 67 58 56 64 72 77 68 68 75 80 70 56 57 62 60 66 89 79 94 94 87 90 89 78 78 86 91 72 56 46 41 31 39 42 38 36 34
99 98 100 93 94 92 99 90 57 60 58 62 63 64 67 64 66 81 73 72 66 62 71 67 85 90 87 88 91 86 78 75 87 90 80 80 65 40 49 47 39 45 44 38 34
98 99 100 100 98 98 90 66 58 64 63 66 68 64 63 64 62 61 63 58 53 71 76 70 96 97 88 95 90 99 87 76 77 82 89 84 64 39 42 54 51 48 44 39 37
98 98 100 100 100 94 75 55 56 58 66 65 62 59 60 63 58 60 53 60 66 83 86 75 91 92 92 91 98 100 100 82 83 98 84 74 52 38 36 45 51 49 46 42 40
93 91 96 97 95 94 64 58 63 66 55 59 60 56 62 67 60 64 51 50 67 82 89 82 79 83 87 87 90 96 98 100 99 82 83 68 64 47 40 39 38 42 39 38 37
83 73 97 88 81 93 66 52 57 61 64 59 54 48 50 60 54 58 56 57 58 71 83 89 90 96 96 70 86 92 80 91 99 98 92 88 88 57 41 36 39 42 44 42 38
81 57 46 65 82 77 59 38 47 52 46 45 55 50 46 44 52 57 54 57 72 78 78 93 97 93 84 73 92 89 82 74 77 87 94 99 70 54 64 65 58 46 46 46 43

GFSSW_850_rhum_102.txt.gz
RH
29 32 68 92 96 94 78 55 82 91 98 94 34 38 61 67 58 71 75 88 98 79 83 98 84 81 93 93 94 81 95 92 86 68 41 41 51 52 48 56 66 63 55 70 93
32 30 35 85 83 96 76 41 46 91 98 49 29 58 62 65 59 69 76 92 85 82 94 99 84 82 95 98 95 86 96 85 60 71 50 42 47 59 68 84 79 91 75 73 84
50 29 34 66 51 59 68 39 40 48 98 30 44 51 56 62 63 68 77 94 90 77 96 94 88 88 91 95 95 93 95 77 68 89 73 46 54 54 74 82 66 67 97 79 68
79 33 32 33 41 48 63 39 39 37 40 33 52 60 59 68 78 68 76 87 85 88 83 87 79 92 90 89 94 83 80 91 82 90 70 54 50 57 51 57 59 53 70 97 90
98 56 30 33 28 48 40 41 35 34 33 39 58 60 62 61 66 75 69 72 81 82 81 96 85 93 92 87 90 89 87 90 99 92 77 62 65 63 74 86 67 63 70 76 94
100 82 30 35 27 49 38 43 32 33 44 57 61 59 65 65 66 78 70 76 81 89 85 82 88 93 82 84 76 92 89 88 95 89 84 71 68 56 71 99 67 64 57 54 62
99 95 34 37 28 48 39 43 37 35 44 59 64 62 63 61 71 78 81 88 88 82 92 84 87 87 85 84 80 88 85 86 89 83 81 84 81 89 71 88 75 62 73 83 69
100 100 55 36 32 48 40 43 45 41 53 60 63 62 56 61 71 74 71 79 86 80 80 79 74 79 84 86 87 86 92 100 84 83 77 70 96 76 70 74 74 79 63 64 69
100 100 90 37 36 46 41 46 52 46 52 59 59 63 55 60 67 67 66 65 74 76 68 62 72 73 79 86 93 87 99 100 94 82 78 77 90 76 71 65 61 62 75 61 70
100 100 94 52 38 47 44 43 53 54 50 56 59 58 55 61 68 66 66 65 58 56 54 61 58 77 77 77 92 96 96 94 97 86 74 81 84 72 68 76 69 59 54 71 63
99 100 99 70 40 51 46 42 43 49 51 61 65 62 61 62 65 63 64 62 56 54 74 65 83 86 84 79 69 76 84 88 86 85 81 84 77 71 72 70 74 62 53 48 62
98 100 100 63 41 56 51 51 56 50 59 54 57 64 68 65 66 61 62 61 66 74 65 68 85 76 79 74 62 72 82 83 85 85 80 86 74 67 70 75 68 65 57 48 44
100 100 100 78 48 60 59 59 59 60 71 62 61 57 61 64 64 60 64 64 75 78 78 67 68 70 65 61 61 61 70 70 83 88 78 88 87 83 75 69 62 58 55 50 44
98 100 99 81 59 63 69 60 64 68 83 54 73 60 60 66 57 61 64 72 64 78 78 75 70 70 66 66 60 65 56 58 88 86 91 73 72 83 74 74 69 62 52 46 42
100 100 99 87 73 77 70 62 63 58 84 45 73 62 69 66 62 63 62 66 72 75 67 65 81 78 73 63 59 63 63 68 85 81 85 88 85 65 69 75 64 56 54 45 45
74 100 100 96 69 76 77 58 58 82 78 76 78 80 76 69 62 68 67 65 72 66 69 70 69 78 70 65 63 60 76 84 90 83 98 82 84 74 70 59 52 48 48 43 43
76 100 99 86 75 83 74 59 85 94 65 81 90 86 75 72 67 70 71 77 74 78 87 78 69 67 73 75 61 70 74 96 98 99 93 75 92 69 53 49 45 44 38 37 38
88 100 99 81 93 86 60 79 95 56 77 56 74 77 78 71 68 74 75 84 74 68 97 96 73 70 68 72 71 82 77 89 88 97 94 80 95 74 48 40 37 39 32 31 33
100 100 91 83 98 88 79 96 78 65 67 80 72 78 80 71 64 74 79 76 69 77 78 96 82 60 68 70 68 85 97 74 90 80 92 86 71 44 37 38 34 35 35 31 30
100 99 96 81 98 85 93 85 72 56 68 68 58 69 78 79 76 80 74 66 65 73 59 69 94 69 76 75 81 77 75 96 99 97 95 76 68 56 34 34 34 41 40 36 36
100 98 93 99 92 98 97 88 68 61 59 64 65 84 68 78 78 82 70 64 69 63 66 70 86 74 84 93 89 95 100 91 87 84 92 77 58 47 42 39 35 40 39 39 37
100 99 99 98 97 91 100 85 63 64 61 63 64 64 73 69 79 81 77 69 60 69 73 67 85 88 72 76 91 80 97 96 92 97 83 83 68 40 46 58 50 40 42 40 36
98 98 100 96 98 97 90 90 70 65 64 65 67 62 62 65 61 73 68 64 61 72 86 79 96 96 75 82 87 100 98 93 100 86 92 87 72 39 49 64 55 52 48 43 38
99 100 100 100 100 91 93 74 65 62 67 64 65 64 63 64 60 65 64 67 67 87 83 74 89 82 89 79 90 98 88 93 100 98 94 77 57 40 40 50 53 50 47 43 39
99 96 92 98 96 93 86 60 65 68 60 61 63 64 68 74 62 70 51 49 68 78 84 86 86 84 73 80 89 92 87 85 99 97 96 71 65 48 40 38 39 46 42 42 40
98 92 98 92 86 92 90 70 63 69 63 64 57 58 56 63 54 62 58 53 55 67 83 85 91 92 88 80 84 85 82 83 88 94 98 99 92 63 46 39 41 42 46 46 45
99 74 75 87 93 90 88 60 56 56 47 51 58 52 49 47 52 53 53 60 76 74 79 95 92 96 92 71 84 92 84 80 76 86 84 94 77 70 76 68 61 47 45 49 49

GFSSW_850_rhum_105.txt.gz
RH
98 75 34 32 29 31 84 93 54 85 89 92 31 33 61 62 56 65 71 85 99 88 80 92 92 75 88 81 81 86 92 98 75 85 62 38 36 41 52 56 62 53 55 51 99
98 96 63 31 31 27 45 90 93 52 79 89 25 51 64 64 64 60 66 88 94 87 87 97 89 83 88 97 83 85 82 88 75 61 71 70 42 58 62 82 76 60 67 51 80
99 100 88 32 33 26 44 88 74 39 40 53 33 53 72 64 65 66 77 85 92 85 99 96 82 73 92 92 90 86 77 88 79 70 62 76 59 60 67 76 74 68 61 69 68
100 100 98 51 34 28 43 41 51 38 36 31 43 55 64 65 76 74 76 69 73 88 88 86 78 74 83 92 90 83 75 88 90 95 80 78 61 63 63 64 54 47 40 66 76
100 100 100 70 36 32 41 39 42 39 33 38 51 57 65 65 62 64 74 80 77 84 95 92 74 83 88 80 86 83 83 79 84 94 99 73 66 69 80 88 69 57 51 78 76
96 100 99 94 51 38 38 40 41 43 35 49 54 60 67 71 67 70 77 86 93 86 87 88 91 93 85 82 80 84 82 81 80 88 93 78 68 71 79 83 84 64 60 63 67
96 99 100 100 57 42 32 41 41 46 41 52 58 62 65 60 68 73 72 83 85 70 77 76 86 99 75 87 87 81 76 80 85 91 86 74 72 79 78 93 74 60 57 60 63
91 98 100 100 68 51 37 42 45 53 50 53 58 62 56 60 68 64 64 72 78 75 78 74 83 91 85 80 85 84 83 98 79 87 80 82 77 74 76 80 85 72 59 59 61
100 98 100 99 90 68 43 45 47 58 58 56 55 60 54 55 63 63 64 64 67 64 62 69 79 82 90 91 92 79 91 99 84 85 90 81 86 68 69 75 79 80 84 62 62
99 99 100 99 95 77 45 49 46 56 58 60 58 63 50 61 67 65 60 61 60 52 52 61 64 81 71 76 82 93 94 89 91 87 86 83 73 63 66 67 79 67 70 81 72
94 97 98 100 99 67 49 50 44 50 61 47 50 62 57 64 64 62 61 59 60 56 67 59 79 87 82 81 73 76 81 88 86 81 91 90 76 60 61 60 62 63 62 64 92
64 85 92 100 92 74 56 51 60 70 66 53 52 56 62 67 65 63 64 66 64 65 63 70 86 74 77 79 66 77 84 88 84 83 80 84 76 56 65 62 57 55 56 58 58
46 85 91 100 96 79 71 53 59 70 77 61 59 53 57 64 64 59 65 64 70 74 74 67 65 71 64 62 64 69 77 84 77 83 83 83 79 68 63 68 55 46 48 51 53
34 90 100 100 94 70 62 64 66 79 86 59 74 63 58 65 57 61 65 69 68 78 78 72 70 72 68 67 61 66 57 60 86 90 93 80 75 67 63 59 55 42 44 47 46
32 58 100 99 96 78 71 70 69 71 80 55 74 64 69 65 63 66 66 65 76 78 65 67 79 77 76 63 60 62 65 77 83 79 85 87 88 74 66 69 56 52 48 44 44
24 49 96 100 98 82 76 65 65 83 76 76 79 78 77 71 63 64 63 63 72 67 68 70 70 78 71 70 64 69 77 82 86 81 94 77 82 67 72 67 55 49 49 49 44
24 69 100 100 89 73 76 61 89 96 61 76 90 87 75 73 68 68 73 73 71 70 80 72 68 68 74 78 64 69 77 95 97 97 89 75 91 66 54 48 44 44 43 44 41
56 66 99 99 84 83 67 82 97 77 69 58 79 80 76 70 72 76 74 80 74 71 93 94 67 64 75 73 74 86 82 86 91 94 87 83 92 65 53 45 44 41 38 38 35
99 100 100 94 92 86 68 98 87 84 62 79 71 77 80 72 67 74 78 76 68 73 72 92 80 60 68 73 74 84 99 74 86 82 82 77 68 44 37 44 40 35 33 35 35
98 99 99 100 98 92 92 86 86 60 68 70 60 70 80 81 74 79 75 65 68 72 60 70 96 75 79 75 88 85 83 99 98 96 94 74 69 52 39 35 34 36 39 39 39
98 98 98 100 100 78 99 89 78 59 64 67 61 79 66 82 75 83 71 71 70 69 70 71 87 74 69 86 91 95 98 94 95 82 83 72 53 44 43 42 45 37 41 40 39
99 100 98 100 96 91 100 86 70 66 64 63 61 66 70 77 81 80 78 69 65 76 73 71 80 89 75 87 90 83 100 100 95 97 77 73 57 40 46 57 62 45 45 41 41
98 98 99 100 98 98 92 86 80 67 65 64 66 62 62 67 62 73 71 67 68 84 92 80 92 92 71 75 69 86 88 93 99 96 92 82 64 39 53 61 58 52 52 47 44
99 100 100 100 96 88 89 84 79 62 63 62 66 63 63 65 67 69 70 70 68 88 80 72 89 80 82 67 90 91 82 81 96 99 96 79 59 43 44 54 56 54 50 46 43
100 99 98 99 99 92 84 79 65 70 63 65 65 64 66 73 65 71 53 53 66 72 80 80 91 93 83 78 80 76 87 90 95 89 99 85 69 56 51 42 42 46 46 43 41
100 99 96 94 91 89 90 89 68 65 69 72 60 67 56 57 45 67 59 51 50 63 84 89 84 97 90 69 81 89 78 76 86 77 84 90 86 70 65 56 46 47 44 45 46
73 94 90 92 91 92 86 83 59 59 50 53 59 54 57 52 51 54 53 62 76 72 84 92 94 96 90 77 85 86 73 80 79 81 83 94 75 69 74 70 70 68 54 51 50

GFSSW_850_rhum_111.txt.gz
RH
94 92 99 98 98 100 49 35 32 88 60 29 31 76 40 52 57 82 67 54 61 98 86 92 89 96 96 87 68 61 75 72 46 44 44 52 78 58 59 67 43 33 42 41 78
87 99 96 99 100 98 76 40 32 49 45 34 29 37 45 51 66 64 57 64 77 97 90 92 81 82 76 67 61 72 73 55 34 56 80 62 76 80 73 64 39 46 42 53 91
97 98 99 100 96 95 97 73 32 40 37 47 29 38 45 51 65 48 61 67 93 78 74 85 88 69 57 47 48 54 78 39 55 81 89 73 73 80 86 74 41 53 73 71 98
99 98 99 82 92 98 100 80 34 40 38 39 39 42 48 74 65 53 66 75 84 78 93 80 75 63 57 61 52 62 45 50 65 78 79 83 92 84 78 59 50 56 68 76 99
99 92 100 100 100 100 98 81 36 42 41 38 47 50 52 58 48 58 66 73 88 92 86 79 77 63 67 50 51 58 54 64 72 83 83 83 76 81 65 54 54 77 90 77 94
95 75 98 97 100 100 100 94 57 44 43 39 40 56 94 54 52 60 65 75 87 84 75 80 77 80 76 56 54 49 58 59 66 71 78 76 63 71 70 61 60 68 74 72 72
94 76 88 91 100 100 97 95 70 45 46 45 50 62 90 57 53 58 63 70 79 74 77 86 90 97 72 67 63 57 63 66 60 60 65 64 55 68 67 59 54 53 62 72 75
94 86 28 92 99 100 100 96 59 47 50 54 55 87 66 48 53 59 63 65 79 85 81 74 96 99 78 63 61 60 64 77 53 59 68 61 78 59 56 61 50 46 58 69 78
72 69 28 64 91 100 100 100 82 51 56 59 72 81 48 48 51 59 64 64 69 72 80 75 89 83 66 70 71 50 56 81 50 58 65 60 61 56 72 58 46 45 52 67 82
82 68 31 42 71 95 99 96 62 51 57 64 83 72 53 41 58 60 63 58 71 66 67 74 80 79 76 83 96 56 51 44 54 59 59 58 64 66 68 51 45 50 41 60 77
91 86 37 90 87 81 88 64 75 82 73 56 47 44 47 52 55 62 64 62 62 59 60 62 78 74 52 50 50 49 43 38 30 52 59 53 62 65 54 52 47 53 69 66 69
83 84 45 94 100 100 100 72 61 66 57 59 57 52 56 56 56 56 61 55 49 51 45 52 66 49 54 49 51 47 41 39 47 50 60 51 55 57 50 44 47 54 69 70 93
82 86 76 57 95 99 100 76 60 60 64 62 61 55 54 60 49 52 62 55 46 46 45 57 56 48 50 50 48 44 46 43 47 53 54 65 59 63 49 42 45 52 66 75 81
71 89 84 38 78 98 79 63 66 76 90 62 60 61 64 64 51 58 66 66 47 54 46 44 39 50 50 49 43 50 42 46 50 54 52 46 75 62 54 49 46 48 63 71 81
75 88 87 48 70 100 82 72 77 75 88 55 61 63 67 55 50 55 69 60 51 44 53 53 53 55 51 43 49 51 48 47 45 48 46 43 51 50 49 52 47 43 51 62 82
86 96 90 61 56 86 90 76 81 91 83 69 60 55 56 52 48 54 55 61 58 49 42 45 46 52 54 52 49 48 51 45 45 53 66 39 45 46 48 49 42 37 42 53 66
97 100 74 82 97 97 92 84 94 95 60 71 64 55 47 49 49 47 46 44 48 61 70 49 42 41 55 56 43 50 57 76 75 78 56 48 49 34 29 32 39 38 38 42 55
99 77 60 97 98 98 84 73 98 75 67 54 59 55 48 43 47 50 46 41 45 41 53 56 59 46 42 53 64 59 57 73 81 60 41 50 51 45 30 30 31 33 34 36 42
60 68 99 86 82 100 81 100 75 73 55 57 57 50 51 48 48 48 40 39 44 41 50 48 45 39 45 50 54 75 77 55 70 44 46 37 36 26 25 28 30 30 31 32 33
92 83 99 100 100 98 84 80 68 52 52 54 41 44 36 47 45 42 37 47 50 47 41 45 62 47 43 46 52 57 65 81 76 78 54 37 36 40 36 35 28 28 28 33 40
98 98 98 100 100 88 94 72 60 55 56 51 42 39 36 41 41 38 40 52 48 51 45 44 51 50 38 52 53 54 74 73 97 88 90 58 50 35 42 40 38 29 34 39 49
92 97 99 98 98 84 72 63 65 58 59 52 43 43 39 43 44 42 44 48 55 57 48 50 51 65 40 44 48 50 60 76 76 95 69 71 71 33 37 35 33 36 40 44 51
99 99 99 99 100 87 63 60 63 54 54 49 46 46 44 43 42 44 48 51 56 57 57 48 66 68 49 60 54 56 51 49 81 94 84 75 76 34 33 37 41 40 40 41 42
97 100 99 98 99 85 62 56 60 60 54 51 46 43 41 42 40 44 47 51 56 56 63 53 89 74 57 62 59 64 50 42 68 85 71 62 73 45 46 43 38 40 40 40 41
98 98 99 97 94 75 58 61 58 52 56 52 48 43 39 39 41 41 44 48 44 51 46 45 71 57 49 47 50 52 54 46 72 67 81 57 62 55 46 42 44 39 43 44 46
92 99 77 99 80 63 64 65 58 49 51 54 49 49 43 36 33 32 38 39 35 40 48 55 82 82 76 52 56 53 41 41 49 53 56 56 56 41 49 50 50 46 46 49 50
88 88 99 95 86 68 59 57 53 50 47 47 49 44 46 46 43 42 41 44 54 56 54 59 77 81 63 55 81 82 57 59 60 58 71 74 56 59 58 54 57 59 56 55 54

GFSSW_850_rhum_114.txt.gz
RH
78 97 95 96 98 92 99 97 61 35 42 45 30 35 34 44 45 80 72 59 56 55 92 85 85 85 89 93 87 75 94 92 69 60 46 28 57 45 43 63 75 70 78 65 80
100 99 98 100 100 100 100 99 87 46 38 37 35 29 38 49 50 86 58 52 60 97 86 83 80 82 92 86 77 85 86 70 49 42 42 48 60 69 59 66 75 80 68 62 64
100 98 96 100 98 95 100 100 94 55 39 38 36 33 42 55 85 55 54 61 73 86 89 89 92 76 67 58 61 61 79 54 48 47 56 77 74 78 78 74 71 78 73 74 79
98 99 99 99 99 98 100 100 95 54 41 42 38 38 44 58 68 51 52 69 77 76 87 82 83 64 56 62 49 63 52 51 50 68 72 67 78 71 69 66 67 65 74 66 86
91 100 94 96 94 99 99 100 98 84 45 46 42 41 49 73 55 52 56 70 80 82 85 80 70 66 74 63 70 67 53 52 54 68 73 72 66 74 69 52 65 68 68 68 78
97 94 92 41 90 97 100 100 95 92 48 50 49 43 91 75 51 55 63 70 82 83 78 73 76 77 79 74 71 58 58 52 58 68 66 66 54 62 51 47 58 66 76 65 78
95 92 68 34 34 100 100 99 100 85 53 55 52 52 95 67 50 53 60 64 71 67 73 88 80 87 82 71 60 57 70 62 63 64 65 64 58 46 38 53 70 74 77 75 74
68 95 63 43 24 77 99 100 100 87 55 59 58 74 86 50 43 53 58 61 71 80 83 74 91 84 92 71 62 62 62 88 56 62 58 72 55 33 60 55 72 74 73 76 50
86 73 71 48 56 52 84 97 100 95 60 65 68 92 63 49 42 52 61 61 63 67 79 82 70 88 73 77 83 62 83 85 70 60 62 77 71 49 61 68 69 74 64 72 72
75 80 76 63 76 84 70 76 94 61 59 71 84 76 60 43 54 58 59 62 65 66 71 76 80 84 69 89 100 97 95 60 68 65 65 69 71 49 55 72 70 67 55 62 84
73 75 84 78 50 98 97 79 69 94 87 70 60 56 42 51 53 59 60 61 61 63 67 70 82 92 88 61 50 57 55 54 38 58 60 63 56 53 57 53 56 52 45 62 68
74 73 88 84 45 81 98 91 80 82 70 61 50 53 49 54 56 57 56 55 49 62 52 61 74 51 55 48 51 50 56 53 48 56 63 60 59 49 54 56 50 49 50 72 82
81 85 83 88 48 63 98 99 80 74 75 60 60 54 52 53 48 52 60 53 51 52 52 54 49 41 47 48 50 52 68 52 52 49 56 63 68 59 56 52 46 49 55 59 69
81 94 88 93 45 88 93 91 78 84 99 67 60 57 56 63 51 55 64 63 48 53 55 53 40 44 51 52 49 66 57 50 44 51 85 56 79 60 58 58 58 52 66 76 71
78 95 96 97 42 87 96 88 78 78 98 56 60 62 60 57 50 56 61 59 53 50 51 63 58 64 64 53 51 59 50 53 51 50 57 48 63 91 57 61 56 57 66 87 78
91 97 97 90 96 84 95 90 82 96 97 69 60 58 55 49 45 52 51 56 52 49 43 48 33 47 57 52 50 46 55 54 51 55 84 50 52 97 61 58 57 54 58 70 85
98 98 95 88 97 81 95 90 98 98 61 74 60 51 46 48 46 44 46 47 53 69 75 52 42 39 47 62 50 55 68 93 94 95 86 45 50 53 39 37 58 64 57 62 74
84 83 98 94 84 92 91 91 98 65 69 53 51 47 46 42 47 47 46 48 44 43 70 69 74 48 40 52 62 67 80 97 95 94 91 47 79 48 35 34 51 61 47 56 63
94 96 91 76 85 89 91 99 96 76 51 56 48 51 54 44 49 47 38 45 49 48 63 73 52 36 40 40 54 68 85 66 97 59 70 50 42 38 36 37 33 42 43 40 34
84 92 99 98 97 95 96 95 71 52 50 50 47 43 48 48 48 42 35 48 52 46 42 50 74 48 38 40 50 64 63 85 88 94 69 57 58 63 54 48 39 40 42 42 50
94 97 100 100 98 91 100 80 55 54 56 56 43 35 38 42 39 36 41 53 53 55 47 50 55 62 44 61 64 74 79 71 94 92 97 96 97 47 52 45 44 47 47 53 58
88 99 100 100 96 88 88 66 58 55 56 49 42 42 42 39 42 43 53 57 57 54 57 53 60 85 61 52 45 53 58 88 94 89 88 99 98 42 48 48 44 44 44 44 50
99 100 98 98 100 97 56 52 56 57 54 47 45 42 38 42 47 44 53 48 53 61 69 62 79 92 75 71 54 56 50 50 90 94 90 92 98 55 49 47 42 42 42 43 44
90 96 93 94 99 86 61 58 55 59 53 47 44 36 35 40 37 46 50 52 52 54 60 53 92 84 89 72 57 72 58 48 80 91 90 83 78 94 55 55 48 45 45 48 48
89 100 98 94 82 70 58 58 51 58 49 47 43 42 41 38 36 42 43 51 44 42 43 57 82 72 58 48 51 56 55 50 82 70 86 72 65 58 58 58 53 48 48 51 51
85 87 80 98 72 63 62 61 55 52 51 50 52 45 41 46 43 51 42 44 45 39 54 66 90 90 88 53 64 54 41 40 47 54 60 64 64 66 57 54 56 59 59 56 56
79 92 86 82 77 66 65 58 54 52 46 45 47 45 55 50 40 38 41 48 56 64 56 67 90 92 73 58 86 86 58 55 58 53 66 71 76 81 74 61 63 67 62 63 62

GFSSW_850_rhum_117.txt.gz
RH
100 100 100 89 100 100 98 100 94 97 68 38 42 36 41 53 47 52 64 57 62 73 60 59 80 79 87 85 78 79 98 91 81 76 67 48 48 39 37 51 42 45 50 57 54
99 99 98 98 98 97 99 100 99 98 77 39 41 35 37 47 53 55 51 70 53 55 65 80 82 81 88 88 85 90 95 75 63 59 58 49 52 58 68 58 58 58 55 48 43
96 92 98 99 86 86 88 99 100 98 84 43 43 37 41 49 75 58 48 65 60 77 79 81 80 88 86 75 79 83 85 66 56 52 52 64 60 70 78 84 63 61 55 53 48
99 97 93 86 36 93 98 98 99 98 84 53 47 38 45 54 74 52 53 59 72 78 84 87 76 90 65 74 64 72 66 62 56 56 55 65 65 80 73 68 52 56 52 48 48
87 90 90 55 31 78 96 100 98 98 92 53 48 42 46 94 62 54 54 64 73 74 80 83 84 76 80 68 69 80 72 60 55 58 57 63 73 74 60 48 43 47 54 59 54
80 88 91 80 44 25 89 90 100 100 100 55 63 50 64 94 54 52 57 68 77 81 81 77 79 75 82 84 82 69 72 75 69 58 68 76 77 72 61 49 54 54 50 72 56
78 84 86 88 63 32 62 98 100 100 94 60 58 71 84 58 49 55 56 64 67 68 71 75 77 69 83 85 69 67 80 64 62 59 69 65 80 76 57 51 50 43 58 74 68
86 77 85 85 74 45 54 86 98 100 99 59 57 78 84 50 49 47 53 62 64 66 76 75 79 91 95 72 72 72 69 87 57 65 69 69 76 53 52 61 59 67 73 72 67
89 78 72 81 78 59 76 49 87 97 95 62 62 76 82 52 51 42 56 61 67 65 72 81 83 81 85 89 86 78 95 86 78 54 69 74 85 62 49 57 69 69 69 68 75
82 77 77 77 82 47 87 74 74 86 66 67 78 88 64 46 52 58 60 60 57 69 76 82 81 90 85 92 96 98 92 83 86 61 70 84 90 67 59 59 74 70 66 69 73
76 78 81 83 83 57 76 86 82 84 96 69 66 58 51 51 49 52 58 63 64 67 79 74 94 92 82 74 84 84 68 78 66 65 74 78 77 65 51 60 61 68 63 66 77
76 73 87 93 85 62 67 92 89 91 79 65 63 65 54 52 56 59 60 62 64 83 68 77 93 70 60 67 76 56 63 85 81 63 68 69 69 58 56 61 58 54 56 66 90
96 71 88 95 96 48 98 96 88 80 85 64 61 61 51 52 57 60 58 60 58 63 62 73 58 44 51 60 61 57 68 74 66 49 63 71 70 69 55 54 52 50 55 64 77
71 77 90 95 84 96 100 89 91 82 98 73 64 59 55 54 60 55 58 62 58 59 56 63 54 58 64 66 63 77 57 57 62 69 79 63 84 64 71 60 52 58 65 71 65
99 95 98 99 79 79 98 88 85 88 94 66 65 63 61 62 53 60 57 63 62 63 57 65 57 61 66 66 58 72 58 60 65 71 64 58 83 94 75 76 71 73 83 79 69
88 99 98 96 88 83 98 87 81 96 95 70 62 65 63 53 47 52 53 55 48 58 49 57 41 49 57 54 60 57 64 65 64 69 87 64 74 70 55 74 80 69 71 80 67
81 97 83 81 87 80 92 88 99 95 58 76 66 62 64 53 51 49 56 55 57 69 73 62 48 41 44 62 58 59 80 94 91 94 89 58 66 62 46 72 82 78 73 78 98
95 95 95 95 92 97 85 96 92 71 73 55 54 54 54 48 52 49 52 62 57 58 86 82 74 50 45 52 68 74 80 98 96 91 93 69 68 64 44 45 87 82 76 62 79
91 98 87 79 81 82 90 97 96 72 59 60 55 57 58 45 51 51 57 63 59 60 74 82 66 45 43 45 62 73 90 67 97 93 90 77 67 51 46 45 53 81 78 72 59
83 96 98 93 87 83 97 79 75 60 63 57 56 44 59 52 52 43 61 61 69 61 57 60 77 53 48 48 52 67 66 79 90 94 95 88 97 82 66 60 55 58 66 63 65
93 98 98 76 75 85 100 81 66 56 58 58 60 50 49 47 45 49 71 63 66 67 57 59 66 66 58 69 76 74 83 84 87 96 97 96 98 59 64 62 62 58 52 58 64
92 98 86 72 87 91 93 65 58 61 53 51 49 52 50 50 55 58 70 63 54 63 69 61 72 89 74 57 50 58 67 84 93 91 97 98 99 70 77 58 53 55 49 48 59
98 98 84 76 94 98 64 57 60 68 63 58 53 47 42 46 60 54 66 53 54 65 69 64 87 89 74 60 54 64 58 66 89 92 90 96 98 68 69 59 54 56 54 51 48
92 96 77 83 92 94 70 70 62 55 56 52 48 42 40 44 44 51 61 55 51 52 57 62 90 78 89 77 65 74 62 58 79 95 91 81 70 77 71 68 66 63 60 57 52
97 96 94 94 83 77 64 63 64 64 50 48 53 52 48 47 40 48 51 54 44 40 50 66 84 80 62 57 53 64 57 55 75 71 88 73 89 85 76 71 68 62 62 61 62
85 97 85 94 81 72 69 66 68 61 54 57 63 54 53 55 52 54 53 58 55 49 60 70 95 92 94 63 74 57 48 48 47 55 63 66 84 81 71 64 79 76 71 70 69
89 91 99 79 83 79 71 61 62 51 49 48 51 51 59 50 41 42 48 56 59 63 62 77 92 95 83 66 84 76 58 57 63 56 67 82 85 83 69 76 90 84 80 80 76

GFSSW_850_rhum_120.txt.gz
RH
100 95 98 99 94 96 96 96 98 100 99 71 42 49 48 84 49 49 49 51 59 90 87 60 72 76 88 82 82 76 94 92 78 72 65 52 57 47 43 46 44 46 45 42 40
94 95 94 97 94 98 94 97 96 100 95 90 49 46 53 48 47 40 45 58 72 66 82 65 77 83 92 92 83 85 94 71 57 57 66 60 56 53 66 59 54 50 48 47 43
90 88 87 85 78 40 82 90 86 100 100 92 57 49 43 48 54 49 45 65 84 85 73 82 76 91 89 87 87 87 87 65 65 60 61 61 61 63 71 72 60 52 39 31 40
78 84 88 83 68 31 70 100 87 98 100 91 60 48 43 50 57 53 54 76 87 73 78 84 83 91 82 80 71 88 78 71 57 57 62 62 55 62 73 64 54 49 41 39 44
80 78 87 88 80 51 34 92 100 94 99 90 91 49 46 79 41 56 56 66 73 75 75 79 89 84 82 72 67 80 70 67 67 67 66 64 65 65 63 60 63 61 52 48 47
83 80 78 91 86 67 32 60 97 100 100 92 72 52 52 77 54 56 57 64 72 74 82 87 84 77 77 82 83 70 72 74 71 73 70 66 62 72 63 60 67 64 58 46 47
78 82 76 76 95 76 54 42 97 100 99 93 62 60 66 42 58 63 66 61 69 67 72 79 80 78 79 87 73 75 89 78 69 68 76 66 83 78 62 62 63 60 55 44 42
82 80 81 74 79 84 59 76 77 99 99 80 57 78 59 52 53 57 57 56 63 66 72 78 81 84 93 79 82 85 75 91 58 62 67 74 83 54 48 58 62 60 58 54 55
92 83 79 82 77 80 59 84 63 85 89 73 74 65 67 53 49 46 45 57 62 70 76 77 89 83 92 92 86 82 92 92 78 58 62 79 83 59 53 58 66 65 63 62 62
90 87 74 86 83 80 55 87 65 89 75 75 95 86 63 52 52 59 57 63 67 71 79 92 90 94 93 92 95 93 84 75 79 64 66 76 84 66 58 61 62 60 70 90 89
94 94 71 88 94 86 61 86 82 95 82 70 70 63 57 51 48 48 55 60 66 70 88 85 96 86 86 75 88 92 95 91 67 67 79 77 73 66 58 58 56 62 84 92 89
82 92 67 87 91 85 67 88 87 85 81 64 65 72 60 53 50 60 62 62 70 87 78 82 98 75 69 69 72 72 86 75 72 70 71 75 74 64 65 56 52 75 77 73 97
99 81 83 89 94 66 91 87 81 72 78 67 66 65 53 53 55 60 62 63 66 72 68 80 65 52 54 60 73 68 70 72 69 58 60 74 70 75 63 68 68 68 72 77 98
98 98 96 97 82 94 98 88 84 81 94 77 63 62 57 54 60 58 57 62 63 66 61 66 54 53 54 60 66 88 60 61 64 78 91 59 91 72 62 72 79 80 94 88 96
92 97 83 67 56 95 98 92 86 82 92 69 65 62 60 62 56 58 57 62 70 64 58 43 56 58 64 61 60 71 61 70 70 81 73 63 94 68 65 84 84 84 90 100 92
91 86 74 78 80 97 94 87 84 86 97 71 58 67 59 54 50 52 56 61 52 60 55 58 46 48 54 54 59 56 69 68 71 80 95 70 95 85 73 91 81 80 86 100 92
80 62 60 67 80 89 84 82 90 94 58 72 69 64 65 54 52 51 53 59 68 74 76 64 53 50 46 64 59 66 79 92 91 94 97 70 81 100 62 85 91 89 87 80 100
77 75 82 85 86 78 83 91 89 79 76 57 56 56 56 49 50 53 53 68 62 65 86 86 78 54 48 54 68 76 80 97 97 97 96 69 96 93 52 67 79 85 83 76 89
66 67 80 77 70 77 87 93 96 73 68 63 56 59 61 47 50 51 66 79 68 69 83 87 72 51 50 51 64 77 87 84 99 99 91 97 74 56 55 55 63 76 82 73 75
79 87 80 78 77 73 83 86 77 60 65 59 59 51 60 53 52 48 74 68 80 68 66 61 81 55 56 55 53 66 67 77 90 92 96 93 97 98 81 66 58 56 65 71 74
81 75 69 62 63 66 97 82 70 58 60 54 58 57 51 51 51 64 75 63 64 73 58 64 68 59 68 71 72 68 78 85 83 94 96 99 98 85 74 62 71 63 57 62 77
98 94 68 59 74 90 90 66 59 64 55 51 49 49 51 52 61 67 68 64 56 66 60 64 73 94 74 59 51 56 63 87 87 89 91 93 98 69 68 63 69 70 65 60 71
84 87 68 63 89 95 66 62 64 66 64 56 53 50 43 46 57 63 65 54 51 62 67 65 85 90 60 49 50 66 60 68 87 87 96 96 97 62 66 64 67 71 62 60 60
70 97 68 71 92 90 71 67 65 51 54 53 51 44 43 49 52 56 62 53 49 51 61 62 88 70 74 67 68 75 63 61 79 93 92 84 79 84 86 70 70 69 68 67 67
69 97 88 99 89 90 67 61 64 61 50 50 56 56 48 46 44 54 52 54 44 50 58 59 75 78 63 65 58 65 59 55 74 77 84 69 80 83 88 81 84 76 70 71 72
65 83 89 84 82 84 76 66 65 60 53 52 61 56 55 58 54 54 54 55 54 58 60 75 88 92 83 68 79 65 56 48 50 56 63 70 76 82 78 83 86 82 78 77 77
76 80 85 77 83 81 79 69 61 53 51 50 50 56 56 49 43 47 52 59 61 63 65 79 92 93 80 78 77 58 62 50 65 62 66 85 68 81 72 80 91 89 88 87 84

GFSSW_850_rhum_126.txt.gz
RH
79 85 94 99 94 78 62 66 100 98 95 100 98 72 53 46 35 29 28 36 50 84 70 65 64 78 78 84 80 74 90 94 87 78 60 54 58 55 54 54 52 50 48 45 36
96 95 95 97 99 94 65 47 92 98 94 100 99 83 56 42 34 30 40 38 62 92 64 58 59 79 84 87 85 83 92 84 70 62 65 62 63 60 63 60 60 58 51 49 44
92 96 96 92 95 99 80 48 84 88 94 100 98 83 54 37 36 51 42 44 91 78 74 68 79 81 88 85 89 83 95 71 67 59 62 67 66 62 67 72 60 58 40 40 49
90 93 95 97 96 94 94 62 96 68 88 99 95 79 45 37 55 57 56 55 88 96 85 81 85 83 88 84 86 98 84 78 72 60 67 68 62 68 66 65 59 60 58 54 53
96 87 84 91 96 96 98 68 93 100 100 99 94 62 46 42 46 65 73 92 92 86 88 87 86 80 96 88 80 99 80 70 68 62 68 70 77 75 73 59 64 63 63 60 54
99 79 84 84 92 97 96 79 64 99 100 92 82 60 46 44 59 77 79 91 85 91 91 84 78 75 87 83 81 77 80 77 71 73 74 79 74 76 65 50 58 58 57 55 51
100 96 80 82 90 92 94 70 71 100 99 92 70 56 50 61 63 69 67 72 78 73 75 76 77 87 85 86 82 83 91 78 68 71 80 76 85 92 54 58 60 58 58 55 54
88 91 90 71 83 84 83 74 68 100 81 93 75 57 57 63 60 61 63 68 72 78 78 79 79 86 89 84 78 89 88 87 62 64 66 68 82 60 59 68 69 69 71 64 57
74 92 79 72 85 85 70 79 88 84 91 82 63 57 59 54 60 62 62 59 58 62 68 79 83 92 86 88 85 86 96 90 77 62 66 75 88 66 69 78 75 78 82 75 66
89 79 76 75 90 67 80 70 78 79 68 66 61 53 54 56 59 55 56 55 65 70 76 84 85 95 92 93 98 99 100 89 88 64 68 77 85 75 70 74 76 80 86 91 76
68 78 82 89 67 80 65 77 68 65 62 76 70 66 56 52 54 61 51 60 68 72 82 77 93 92 93 79 81 95 95 100 90 66 78 81 78 74 72 65 76 85 86 86 95
71 83 90 86 66 83 80 73 70 69 76 69 62 58 55 52 59 62 58 63 70 84 75 84 95 74 63 67 70 69 90 91 76 67 61 66 74 61 63 68 69 76 80 86 98
85 79 80 89 94 80 72 69 68 70 68 68 62 61 58 53 58 64 64 66 72 82 84 93 71 59 65 60 61 68 80 79 79 68 60 71 74 70 58 59 63 74 80 91 100
73 70 65 85 75 81 77 76 76 77 88 73 64 60 58 57 58 62 64 63 68 80 69 79 64 56 59 58 57 83 61 70 72 78 87 66 95 72 76 72 70 80 86 97 100
72 71 73 59 74 68 77 70 70 73 80 55 65 54 55 61 59 53 58 64 81 71 65 64 56 62 63 56 60 73 60 73 73 83 87 75 96 76 83 92 91 87 89 98 100
74 77 69 56 61 70 73 73 72 72 85 74 62 65 56 52 52 52 52 60 66 59 54 72 52 55 55 54 58 61 73 75 82 87 94 82 90 83 97 96 94 77 90 99 100
85 78 77 71 69 68 68 68 79 89 62 62 65 63 63 55 52 56 56 73 84 82 76 69 56 50 50 66 60 72 76 95 95 97 93 82 88 100 95 72 68 81 94 100 100
74 75 71 80 84 78 75 72 88 75 81 62 61 57 59 53 53 63 65 81 70 73 91 92 73 53 51 60 72 83 93 91 95 96 96 77 96 88 68 63 62 70 87 100 100
60 58 54 60 67 72 74 94 83 74 70 70 56 60 58 53 55 64 76 78 78 78 93 85 70 53 52 58 64 74 92 84 84 89 90 94 66 62 68 72 66 68 78 94 100
39 43 46 44 49 54 83 89 82 66 67 60 56 56 61 58 51 64 70 66 72 69 73 61 91 50 59 52 50 64 67 85 91 88 100 90 91 89 92 86 74 76 78 83 95
42 45 45 36 40 50 96 81 69 59 62 58 57 57 54 58 62 71 64 57 64 71 64 71 68 52 56 63 71 68 78 86 84 88 92 99 89 82 85 74 85 80 81 83 86
41 67 44 30 64 82 92 75 63 63 55 56 50 51 54 57 62 66 63 62 59 64 66 66 74 89 61 62 59 55 63 89 92 92 82 92 92 86 87 75 82 83 81 77 78
39 44 46 35 87 99 76 60 63 62 61 60 53 57 47 55 56 66 62 52 50 63 76 66 76 73 43 46 49 65 61 68 87 88 95 90 86 77 76 78 81 84 79 79 74
39 76 45 55 84 80 77 71 62 48 56 56 51 44 48 47 51 54 60 52 49 61 69 60 86 64 60 58 67 81 65 60 77 91 90 88 80 73 82 86 84 82 82 80 84
44 85 83 93 83 79 71 65 66 64 51 50 53 58 59 47 49 52 50 57 44 57 61 54 68 81 70 68 72 73 70 62 80 80 80 62 79 74 82 87 86 86 83 81 80
45 65 78 78 79 70 76 76 61 57 56 52 54 58 55 52 54 58 57 58 56 64 61 71 76 91 85 67 76 79 69 64 57 61 74 72 80 72 79 80 80 84 88 86 83
56 59 59 80 78 76 79 70 61 58 53 54 54 60 47 50 50 50 58 62 67 71 67 79 92 91 60 71 70 42 46 60 56 60 63 86 62 77 82 87 84 83 85 88 86